     2              OBSERVATION DATA    GPS                 RINEX VERSION / TYPE
teqc 1999Jul19 19991123 02:46:21UTC                         PGM / RUN BY / DATE
                                                            COMMENT
Original Marker Name: 0212                                  COMMENT
Campaign Name: HPGN 1991                                    COMMENT
4-Character Station Name: 0212                              COMMENT
6-Character Antenna Code: TRMSST                            COMMENT
Vertical Measurement Point: TGP                             COMMENT
Vertical Offset to Rinex Ref. Point: 0.0629                 COMMENT
Radial Measurement Point: OGP                               COMMENT
Radial Offset to Rinex Ref. Point: 0.2413                   COMMENT
Antenna Height from Field Measurement: 2.2200 m             COMMENT
                                                            COMMENT
Original XYZ: -2587311.8055 -4071468.9117 4159075.0243      COMMENT
New XYZ position is based on association with SCEC monument COMMENT
E1O6T1D1+0011. Position of that monument is believed to be  COMMENT
valid to within 1 m horizontally; vertical accuracy         COMMENT
should be no worse than 3-times this value.                 COMMENT
                                                            COMMENT
Revised Rinex header created by UCSD GPS archive for        COMMENT
GSAC on 10-Mar-2000 (2000:070) 04:37:02 GMT                 COMMENT
For assistance contact dagnew@ucsd.edu or hjohnson@ucsd.edu COMMENT
                                                            COMMENT
HPGN CA 02 12                                               MARKER NAME
0212                                                        MARKER NUMBER
-Unknown- CALIF DEPT TRANSPORTATION                         OBSERVER / AGENCY
485 TRIMBLE 4000 SST NP 4.30 / SP 4.20                      REC # / TYPE / VERS
16 TR 4000SST L1/L2 GEO                                     ANT # / TYPE
 -2587320.5120 -4071475.8610  4159091.8620                  APPROX POSITION XYZ
        2.1439        0.0000        0.0000                  ANTENNA: DELTA H/E/N
     1     1     0                                          WAVELENGTH FACT L1/2
     5    C1    L1    L2    S1    S2                        # / TYPES OF OBSERV
     0                                                      INTERVAL
  1991     7     2     2    51   45.000000                  TIME OF FIRST OBS
  1991     7     2     8    11   60.000000                  TIME OF LAST OBS
                                                            END OF HEADER
 91  7  2  2 51 45.0000000  0  4G17G23G 3G16
  20608198.133          -0.59317        -0.08633        25.250           3.438
  22975747.109          -0.42416        -0.19331        15.250           0.969
  20503165.711          -0.09617        -0.39932        24.000           2.344
  23468619.078          -0.80416        -0.00131        13.750           0.813
 91  7  2  2 52  0.0000000  0  4G17G23G 3G16
  20604418.445      -19855.695 7    -15471.58023        25.000           3.469
  22964715.375      -57976.568 6    -45176.35421        14.250           0.969
  20501577.492       -8352.608 7     -6508.85322        24.250           2.156
  23475535.047       36357.278 6     28330.92721        14.000           0.844
 91  7  2  2 52 15.0000000  0  4G17G23G 3G16
  20600653.969      -39631.085 7    -30880.97123        24.500           3.406
  22953689.445     -115890.007 6    -90303.63021        13.750           1.125
  20500008.758      -16599.613 7    -12935.08322        24.250           2.250
  23482472.625       72777.077 6     56709.96321        14.750           0.875
 91  7  2  2 52 30.0000000  0  4G17G23G 3G16
  20596906.695      -59333.125 7    -46233.19923        25.250           3.406
  22942679.844     -173746.871 6   -135386.82721        14.000           1.000
  20498457.180      -24747.311 7    -19283.93722        24.000           2.188
  23489407.094      109251.963 6     85131.91121        14.250           0.750
 91  7  2  2 52 45.0000000  0  4G17G23G 3G16
  20593170.766      -78957.508 7    -61524.91424        24.250           3.500
  22931685.703     -231542.259 6   -180422.13821        15.250           0.969
  20496928.102      -32791.256 7    -25551.94522        24.250           2.281
  23496362.023      145785.933 6    113599.90321        14.750           0.688
 91  7  2  2 53  0.0000000  0  4G17G23G 3G16
  20589451.734      -98504.845 7    -76756.59323        24.750           3.406
  22920698.867     -289276.621 6   -225409.87521        15.000           1.000
  20495416.367      -40731.821 7    -31739.39522        24.000           2.313
  23503322.164      182377.913 6    142113.10421        13.750           0.750
 91  7  2  2 53 15.0000000  0  4G17G23G 3G16
  20585747.320     -117973.729 7    -91927.14323        24.500           3.406
  22909724.055     -346948.092 6   -270348.62321        14.500           1.000
  20493925.031      -48567.142 7    -37844.84122        24.250           2.250
  23510297.250      219029.097 6    170672.43621        14.000           0.719
 91  7  2  2 53 30.0000000  0  4G17G23G 3G16
  20582056.992     -137362.620 7   -107035.36423        24.250           3.344
  22898759.383     -404554.927 6   -315237.00721        14.500           1.156
  20492452.063      -56295.630 7    -43867.03822        24.250           2.250
  23517287.797      255741.206 6    199279.24921        14.250           0.688
 91  7  2  2 53 45.0000000  0  4G17G23G 3G16
  20578383.227     -156671.560 7   -122081.28324        24.750           3.531
  22887809.969     -462096.976 6   -360074.89421        14.750           1.031
  20491004.508      -63917.199 7    -49805.91822        24.750           2.313
  23524283.352      292513.498 6    227932.94921        13.250           0.656
 91  7  2  2 54  0.0000000  0  4G17G23G 3G16
  20574726.148     -175901.311 7   -137065.48623        25.750           3.438
  22876869.070     -519574.762 6   -404862.71321        14.000           1.094
  20489574.641      -71432.244 7    -55661.79622        24.250           2.313
  23531292.789      329345.089 6    256632.85521        14.000           0.750
 91  7  2  2 54 15.0000000  0  4G17G23G 3G16
  20571078.227     -195049.835 7   -151986.41023        24.250           3.469
  22865946.773     -576985.814 6   -449598.53121        14.500           1.000
  20488165.273      -78838.618 7    -61432.99022        24.500           2.156
  23538311.219      366237.696 6    285380.31221        13.000           0.844
 91  7  2  2 54 30.0000000  0  4G17G23G 3G16
  20567452.289     -214114.326 7   -166841.85124        25.000           3.500
  22855037.430     -634327.212 6   -494280.08021        15.250           1.000
  20486775.820      -86133.644 7    -67117.42922        24.000           2.250
  23545345.633      403193.636 6    314177.10721        13.500           0.750
 91  7  2  2 54 45.0000000  0  4G17G23G 3G16
  20563838.938     -233102.394 7   -181637.73323        25.250           3.438
  22844135.383     -691606.146 6   -538912.96421        14.250           1.281
  20485408.000      -93324.127 7    -72720.40122        24.000           2.313
  23552387.031      440205.354 6    343017.37821        13.750           0.813
 91  7  2  2 55  0.0000000  0  4G17G23G 3G16
  20560239.914     -252009.711 7   -196370.70323        24.750           3.438
  22833249.313     -748818.191 6   -583493.69521        15.000           1.031
  20484062.227     -100406.158 7    -78238.86322        24.250           2.438
  23559442.750      477276.555 6    371903.98721        13.500           0.719
 91  7  2  2 55 15.0000000  0  4G17G23G 3G16
  20556659.031     -270842.666 7   -211045.71824        25.750           3.594
  22822373.805     -805969.539 6   -628027.17221        14.500           1.063
  20482731.273     -107385.793 7    -83677.53622        23.750           2.438
  23566509.734      514400.708 6    400831.86521        13.500           0.750
 91  7  2  2 55 30.0000000  0  4G17G23G 3G16
  20553087.508     -289596.078 7   -225658.76123        25.000           3.438
  22811509.852     -863054.625 6   -672508.97321        14.750           0.969
  20481424.727     -114257.676 7    -89032.25222        24.500           2.281
  23573581.727      551582.892 6    429804.95921        12.500           0.688
 91  7  2  2 55 45.0000000  0  4G17G23G 3G16
  20549533.891     -308274.626 7   -240213.47024        25.250           3.563
  22800660.266     -920077.704 6   -716942.49521        15.250           1.063
  20480136.117     -121025.827 7    -94306.13322        23.750           2.250
  23580667.273      588817.894 6    458819.20421        12.250           0.719
 91  7  2  2 56  0.0000000  0  4G17G23G 3G16
  20545995.508     -326870.856 7   -254704.02824        25.750           3.531
  22789821.734     -977031.340 6   -761321.88721        15.000           1.094
  20478870.688     -127683.152 7    -99493.65622        23.750           2.156
  23587763.063      626112.793 6    487880.13221        12.250           0.750
 91  7  2  2 56 15.0000000  0  4G17G23G 3G16
  20542472.266     -345384.066 7   -269129.90124        25.500           3.500
  22778998.125    -1033914.425 6   -805646.30521        15.500           0.969
  20477625.391     -134228.364 7   -104593.82222        24.000           2.281
  23594873.594      663468.330 6    516988.31321        12.500           0.656
 91  7  2  2 56 30.0000000  0  4G17G23G 3G16
  20538963.438     -363820.999 7   -283496.33424        25.250           3.594
  22768187.750    -1090733.181 6   -849920.61621        16.000           1.156
  20476400.242     -140667.833 7   -109611.59122        23.500           2.250
  23601986.891      700877.764 6    546138.47321        12.750           0.844
 91  7  2  2 56 45.0000000  0  4G17G23G 3G16
  20535469.313     -382177.421 7   -297800.03424        25.250           3.594
  22757383.352    -1147483.424 6   -894141.51321        14.750           1.063
  20475194.836     -146997.672 7   -114543.93422        23.500           2.156
  23609122.617      738344.524 6    575333.32121        13.750           0.719
 91  7  2  2 57  0.0000000  0  4G17G23G 3G16
  20531992.438     -400453.215 7   -312040.90724        25.000           3.563
  22746601.602    -1204164.797 6   -938308.76521        15.750           1.063
  20474010.984     -153217.508 7   -119390.56422        23.500           2.188
  23616262.508      775868.672 6    604572.89421        13.250           0.813
 91  7  2  2 57 15.0000000  0  4G17G23G 3G16
  20528530.164     -418651.622 7   -326221.47324        25.500           3.531
  22735822.500    -1260780.153 6   -982424.58121        14.750           1.250
  20472847.313     -159330.234 7   -124153.73122        23.500           2.188
  23623415.375      813446.602 6    633854.36421        13.500           0.813
 91  7  2  2 57 30.0000000  0  4G17G23G 3G16
  20525080.188     -436770.828 7   -340340.33024        25.250           3.563
  22725066.219    -1317327.693 6  -1026487.52421        15.500           1.188
  20471704.961     -165334.000 7   -128831.99022        23.750           2.281
  23630573.828      851079.669 6    663178.78621        12.250           0.875
 91  7  2  2 57 45.0000000  0  4G17G23G 3G16
  20521650.633     -454803.860 7   -354392.03624        25.250           3.656
  22714317.219    -1373800.019 6  -1070491.89121        15.250           1.219
  20470584.469     -171221.651 7   -133419.77322        23.500           2.156
  23637750.594      888774.436 6    692551.28521        12.500           0.781
 91  7  2  2 58  0.0000000  0  4G17G23G 3G16
  20518232.344     -472761.453 7   -368384.96124        24.750           3.594
  22703583.875    -1430207.350 6  -1114445.59021        15.500           1.219
  20469484.781     -177003.549 7   -137925.15322        23.750           2.219
  23644929.836      926520.301 6    721963.60821        12.500           0.750
 91  7  2  2 58 15.0000000  0  4G17G23G 3G16
  20514830.570     -490645.654 7   -382320.69624        25.250           3.594
  22692861.141    -1486551.510 6  -1158350.08921        15.000           1.219
  20468405.094     -182682.035 7   -142349.95122        23.750           2.250
  23652126.375      964314.816 6    751413.84221        13.750           0.563
 91  7  2  2 58 30.0000000  0  4G17G23G 3G16
  20511442.172     -508450.567 7   -396194.65124        25.250           3.531
  22682154.094    -1542826.420 6  -1202200.60321        15.250           1.250
  20467345.281     -188250.497 7   -146689.01122        23.500           2.250
  23659324.633     1002163.781 6    780906.52021        13.500           0.625
 91  7  2  2 58 45.0000000  0  4G17G23G 3G16
  20508069.109     -526174.003 7   -410005.11724        25.250           3.563
  22671457.141    -1599029.757 6  -1245995.36521        15.000           1.250
  20466304.883     -193706.355 7   -150940.33522        23.500           2.250
  23666538.445     1040068.811 6    810442.87721        13.500           0.594
 91  7  2  2 59  0.0000000  0  4G17G23G 3G16
  20504711.164     -543818.789 7   -423754.30024        25.250           3.563
  22660772.867    -1655164.030 6  -1289736.30521        14.250           1.281
  20465286.727     -199052.848 7   -155106.43822        23.500           2.250
  23673762.352     1078027.323 6    840020.90821        13.500           0.719
 91  7  2  2 59 15.0000000  0  4G17G23G 3G16
  20501367.938     -561388.200 7   -437444.74924        25.250           3.594
  22650105.023    -1711232.496 6  -1333425.95521        15.250           1.250
  20464289.250     -204292.922 7   -159189.61822        23.250           2.188
  23680993.938     1116035.007 6    869637.25921        13.000           0.656
 91  7  2  2 59 30.0000000  0  4G17G23G 3G16
  20498038.578     -578879.683 7   -451074.46724        25.000           3.656
  22639450.328    -1767231.906 6  -1377061.81521        15.500           1.250
  20463317.531     -209423.791 7   -163187.69822        23.750           2.250
  23688236.484     1154094.710 6    899294.13721        13.500           0.719
 91  7  2  2 59 45.0000000  0  4G17G23G 3G16
  20494725.820     -596289.011 7   -464640.17624        24.750           3.500
  22628809.828    -1823157.788 6  -1420640.36921        16.000           1.438
  20462360.703     -214440.766 7   -167097.03422        23.750           2.156
  23695489.703     1192210.236 6    928994.50821        13.000           0.688
 91  7  2  3  0  0.0000000  0  4G17G23G 3G16
  20491427.875     -613622.542 7   -478146.81624        25.500           3.594
  22618178.898    -1879016.499 6  -1464166.58221        15.250           1.313
  20461425.938     -219350.293 7   -170922.64622        23.250           2.313
  23702753.641     1230374.873 6    958733.14921        13.000           0.781
 91  7  2  3  0 15.0000000  0  4G17G23G 3G16
  20488144.570     -630876.340 7   -491591.33124        25.750           3.500
  22607561.508    -1934803.725 6  -1507637.08821        15.250           1.281
  20460513.891     -224148.437 7   -174661.46022        23.750           2.219
  23710025.641     1268592.323 6    988512.93321        12.500           0.656
 91  7  2  3  0 30.0000000  0  4G17G23G 3G16
  20484876.750     -648049.160 7   -504972.74724        25.750           3.688
  22596959.859    -1990517.857 6  -1551050.66021        15.000           1.406
  20459623.000     -228833.279 7   -178311.99122        24.000           2.219
  23717309.797     1306863.609 6   1018334.67121        12.750           0.719
 91  7  2  3  0 45.0000000  0  4G17G23G 3G16
  20481626.398     -665141.966 7   -518291.81024        25.750           3.719
  22586372.828    -2046159.848 6  -1594407.98621        17.000           1.344
  20458749.930     -233406.092 7   -181875.22922        23.250           2.250
  23724596.406     1345187.064 6   1048197.06421        12.250           0.594
 91  7  2  3  1  0.0000000  0  4G17G23G 3G16
  20478386.016     -682157.655 7   -531550.79024        25.250           3.656
  22575795.688    -2101732.167 6  -1637711.04621        15.500           1.250
  20457903.727     -237869.325 7   -185353.07522        24.250           2.250
  23731900.602     1383559.908 6   1078097.95121        12.000           0.656
 91  7  2  3  1 15.0000000  0  4G17G23G 3G16
  20475162.734     -699095.498 7   -544749.10224        25.500           3.500
  22565235.773    -2157233.982 6  -1680959.15921        16.250           1.438
  20457073.555     -242222.118 7   -188744.87222        24.000           2.250
  23739214.180     1421982.524 6   1108037.61521        12.250           0.625
 91  7  2  3  1 30.0000000  0  4G17G23G 3G16
  20471953.234     -715956.363 7   -557887.43624        25.000           3.656
  22554686.969    -2212665.696 6  -1724152.65621        16.500           1.469
  20456266.555     -246465.141 7   -192051.12622        23.750           2.250
  23746538.258     1460453.776 6   1138015.17921        12.750           0.563
 91  7  2  3  1 45.0000000  0  4G17G23G 3G16
  20468761.000     -732736.113 7   -570962.56424        25.500           3.625
  22544150.930    -2268022.921 6  -1767288.10021        15.500           1.375
  20455480.688     -250594.254 7   -195268.61822        24.250           2.188
  23753865.961     1498977.473 6   1168033.61621        12.000           0.594
 91  7  2  3  2  0.0000000  0  4G17G23G 3G16
  20465582.547     -749448.715 7   -583985.36624        26.000           3.563
  22533630.578    -2323319.580 6  -1810376.35921        16.500           1.438
  20454713.031     -254623.276 7   -198408.12722        23.750           2.156
  23761206.789     1537539.416 5   1198081.85221        11.750           0.625
 91  7  2  3  2 15.0000000  0  4G17G23G 3G16
  20462415.313     -766087.203 7   -596950.42424        25.500           3.719
  22523121.445    -2378548.316 6  -1853411.68321        16.250           1.438
  20453968.375     -258544.595 7   -201463.70622        23.750           2.125
  23768550.609     1576146.598 5   1228165.32621        11.500           0.594
 91  7  2  3  2 30.0000000  0  4G17G23G 3G16
  20459264.070     -782645.517 7   -609853.00424        25.500           3.719
  22512624.656    -2433702.823 6  -1896389.17522        16.250           1.500
  20453244.594     -262352.162 7   -204430.64522        24.000           2.125
  23775901.344     1614804.753 5   1258288.51821        10.750           0.688
 91  7  2  3  2 45.0000000  0  4G17G23G 3G16
  20456126.047     -799128.632 7   -622696.98324        25.250           3.719
  22502144.781    -2488787.654 6  -1939312.36721        16.750           1.406
  20452538.797     -266050.935 7   -207312.81622        23.500           2.281
  23783275.070     1653508.477 5   1288447.21321        11.750           0.594
 91  7  2  3  3  0.0000000  0  4G17G23G 3G16
  20453004.984     -815532.181 7   -635478.97424        25.250           3.594
  22491675.039    -2543798.309 6  -1982177.77722        16.250           1.500
  20451858.078     -269636.332 7   -210106.63322        24.000           2.094
  23790645.594     1692261.887 5   1318644.64121        11.750           0.594
 91  7  2  3  3 15.0000000  0  4G17G23G 3G16
  20449898.953     -831859.362 7   -648201.44824        25.500           3.750
  22481219.758    -2598737.740 6  -2024987.66621        15.750           1.438
  20451195.758     -273111.409 7   -212814.49422        24.250           2.063
  23798028.859     1731061.263 6   1348877.87421        12.000           0.625
 91  7  2  3  3 30.0000000  0  4G17G23G 3G16
  20446805.289     -848113.142 7   -660866.72924        25.250           3.688
  22470776.922    -2653608.728 6  -2067744.23221        16.250           1.313
  20450554.703     -276479.003 7   -215438.60222        23.750           2.188
  23805420.766     1769903.566 6   1379144.56621        12.750           0.531
 91  7  2  3  3 45.0000000  0  4G17G23G 3G16
  20443729.305     -864286.234 7   -673469.13324        25.750           3.719
  22460351.352    -2708403.672 6  -2110441.55221        16.250           1.406
  20449938.242     -279731.499 7   -217973.02222        24.250           2.125
  23812819.969     1808795.898 5   1409450.24821        11.750           0.625
 91  7  2  3  4  0.0000000  0  4G17G23G 3G16
  20440665.031     -880388.440 7   -686016.31024        25.750           3.750
  22449935.156    -2763132.191 6  -2153087.10721        16.250           1.313
  20449337.453     -282878.709 7   -220425.40322        24.250           2.250
  23820233.313     1847728.001 5   1439786.91621        11.500           0.469
 91  7  2  3  4 15.0000000  0  4G17G23G 3G16
  20437614.734     -896417.690 7   -698506.62924        26.000           3.688
  22439534.430    -2817791.881 6  -2195679.03121        16.500           1.375
  20448759.977     -285918.259 7   -222793.88522        24.000           2.156
  23827643.500     1886701.822 5   1470156.10021        10.500           0.594
 91  7  2  3  4 30.0000000  0  4G17G23G 3G16
  20434578.297     -912367.994 7   -710935.43924        25.250           3.750
  22429147.883    -2872376.534 6  -2238212.47521        16.500           1.406
  20448201.945     -288844.202 7   -225073.84922        24.250           2.219
  23835071.594     1925723.244 5   1500562.36121        10.750           0.563
 91  7  2  3  4 45.0000000  0  4G17G23G 3G16
  20431556.047     -928247.199 7   -723308.84324        25.250           3.594
  22418773.063    -2926893.512 6  -2280693.19821        16.500           1.344
  20447665.672     -291663.657 7   -227270.83722        24.500           2.188
  23842506.336     1964784.053 5   1530999.31821        11.000           0.531
 91  7  2  3  5  0.0000000  0  4G17G23G 3G16
  20428550.133     -944052.352 7   -735624.54524        25.750           3.688
  22408413.797    -2981340.046 6  -2323119.02121        17.250           1.375
  20447147.648     -294374.020 7   -229382.81622        23.500           2.188
  23849947.875     2003886.743 6   1561468.90621        12.000           0.656
 91  7  2  3  5 15.0000000  0  4G17G23G 3G16
  20425555.344     -959784.823 7   -747883.60624        25.750           3.688
  22398065.445    -3035716.747 6  -2365490.44521        16.000           1.250
  20446655.523     -296976.042 7   -231410.37022        24.000           2.188
  23857398.789     2043029.950 6   1591970.07521        12.250           0.594
 91  7  2  3  5 30.0000000  0  4G17G23G 3G16
  20422576.211     -975437.234 7   -760080.28124        25.750           3.688
  22387733.375    -3090016.651 6  -2407801.99421        17.000           1.344
  20446182.281     -299462.747 7   -233348.06822        23.750           2.094
  23864857.258     2082220.396 6   1622508.05621        12.000           0.563
 91  7  2  3  5 45.0000000  0  4G17G23G 3G16
  20419613.742     -991011.048 7   -772215.71924        25.500           3.563
  22377414.766    -3144240.675 6  -2450054.44021        16.250           1.344
  20445729.492     -301835.289 7   -235196.80922        24.250           2.219
  23872317.695     2121456.311 5   1653081.44621        11.750           0.688
 91  7  2  3  6  0.0000000  0  4G17G23G 3G16
  20416664.203    -1006508.619 7   -784291.74624        25.750           3.531
  22367110.336    -3198390.791 6  -2492249.28921        17.250           1.344
  20445300.594     -304095.744 7   -236958.21122        24.000           2.313
  23879795.852     2160735.282 5   1683688.39421        10.750           0.688
 91  7  2  3  6 15.0000000  0  4G17G23G 3G16
  20413731.133    -1021929.349 7   -796307.89624        26.000           3.563
  22356817.938    -3252466.094 6  -2534385.85421        16.000           1.375
  20444890.273     -306243.349 7   -238631.67622        24.250           2.156
  23887273.922     2200057.683 5   1714329.18721        10.750           0.656
 91  7  2  3  6 30.0000000  0  4G17G23G 3G16
  20410809.070    -1037270.571 7   -808262.08924        25.250           3.656
  22346544.289    -3306463.805 6  -2576461.93721        17.000           1.406
  20444504.102     -308275.255 7   -240214.98922        24.500           2.063
  23894768.469     2239426.115 5   1745005.83721        10.750           0.719
 91  7  2  3  6 45.0000000  0  4G17G23G 3G16
  20407905.133    -1052531.832 7   -820153.97624        25.750           3.500
  22336282.734    -3360383.155 6  -2618476.97521        16.500           1.438
  20444138.258     -310190.964 7   -241707.75222        24.250           2.188
  23902270.398     2278840.622 5   1775718.39821        10.250           0.531
 91  7  2  3  7  0.0000000  0  4G17G23G 3G16
  20405017.961    -1067714.093 7   -831984.30224        25.500           3.531
  22326037.648    -3414224.894 6  -2660431.53021        16.500           1.344
  20443797.906     -311990.933 7   -243110.33122        24.500           2.281
  23909776.164     2318299.806 5   1806465.77721        11.000           0.563
 91  7  2  3  7 15.0000000  0  4G17G23G 3G16
  20402142.398    -1082821.530 7   -843756.32724        25.250           3.563
  22315806.313    -3467993.076 6  -2702328.78121        16.500           1.438
  20443476.633     -313679.732 7   -244426.28722        24.250           2.219
  23917298.922     2357799.226 6   1837244.51321        12.500           0.563
 91  7  2  3  7 30.0000000  0  4G17G23G 3G16
  20399283.164    -1097847.292 7   -855464.70424        25.500           3.500
  22305588.664    -3521680.762 6  -2744163.29221        16.500           1.469
  20443176.945     -315250.247 7   -245650.07622        24.250           2.094
  23924819.047     2397345.538 6   1868059.79821        12.750           0.406
 91  7  2  3  7 45.0000000  0  4G17G23G 3G16
  20396439.063    -1112793.014 7   -867110.71323        25.250           3.438
  22295387.227    -3575288.929 6  -2785935.84721        16.250           1.469
  20442899.695     -316703.606 7   -246782.57122        23.750           2.250
  23932355.742     2436937.077 6   1898910.33221        12.750           0.469
 91  7  2  3  8  0.0000000  0  4G17G23G 3G16
  20393610.617    -1127659.899 7   -878695.29223        25.750           3.438
  22285202.781    -3628818.443 6  -2827647.11421        16.500           1.469
  20442646.086     -318040.820 7   -247824.56622        23.750           2.156
  23939898.227     2476572.251 5   1929794.85621        11.750           0.469
 91  7  2  3  8 15.0000000  0  4G17G23G 3G16
  20390796.758    -1142445.739 7   -890216.72123        25.500           3.313
  22275030.906    -3682267.107 6  -2869295.38222        17.000           1.500
  20442413.266     -319259.645 7   -248774.30622        24.000           2.219
  23947449.398     2516252.910 5   1960714.81821        11.000           0.531
 91  7  2  3  8 30.0000000  0  4G17G23G 3G16
  20387997.180    -1157152.984 7   -901676.90324        25.500           3.500
  22264876.234    -3735637.221 6  -2910882.44522        17.250           1.563
  20442205.531     -320362.383 7   -249633.58922        24.000           2.156
  23955007.805     2555976.344 5   1991668.09621         9.750           0.531
 91  7  2  3  8 45.0000000  0  4G17G23G 3G16
  20385213.875    -1171779.582 7   -913074.24224        25.500           3.500
  22254733.445    -3788926.121 6  -2952406.21822        17.000           1.500
  20442016.641     -321346.954 7   -250400.79122        24.250           2.219
  23962575.469     2595744.490 5   2022656.20621         9.750           0.594
 91  7  2  3  9  0.0000000  0  4G17G23G 3G16
  20382446.305    -1186327.913 7   -924410.59624        25.500           3.531
  22244607.938    -3842136.265 6  -2993868.61822        17.000           1.594
  20441852.180     -322215.390 7   -251077.50522        24.000           2.156
  23970147.273     2635554.683 5   2053677.09321        10.000           0.500
 91  7  2  3  9 15.0000000  0  4G17G23G 3G16
  20379691.336    -1200798.234 7   -935686.16024        25.000           3.563
  22234498.594    -3895267.453 6  -3035269.51022        17.500           1.563
  20441708.742     -322967.833 7   -251663.82822        24.000           2.188
  23977737.398     2675406.405 5   2084730.34121        11.500           0.625
 91  7  2  3  9 30.0000000  0  4G17G23G 3G16
  20376952.469    -1215191.819 7   -946901.93523        25.000           3.469
  22224404.258    -3948320.988 6  -3076609.88122        17.750           1.750
  20441588.797     -323605.687 7   -252160.86022        24.250           2.219
  23985327.063     2715297.959 5   2115814.63321        11.500           0.500
 91  7  2  3  9 45.0000000  0  4G17G23G 3G16
  20374228.664    -1229507.261 7   -958056.81324        24.750           3.500
  22214320.797    -4001294.917 6  -3117888.22322        17.500           1.531
  20441487.648     -324126.827 7   -252566.95322        24.250           2.219
  23992921.922     2755230.780 5   2146931.08921        11.750           0.500
 91  7  2  3 10  0.0000000  0  4G17G23G 3G16
  20371519.820    -1243742.708 7   -969149.36424        24.750           3.594
  22204256.188    -4054187.398 6  -3159103.10822        18.000           1.625
  20441410.781     -324529.653 7   -252880.84922        24.000           2.156
  24000535.133     2795205.924 5   2178080.53321        11.500           0.469
 91  7  2  3 10 15.0000000  0  4G17G23G 3G16
  20368825.063    -1257899.743 7   -980180.81124        25.000           3.563
  22194206.141    -4106999.778 6  -3200255.56322        17.500           1.688
  20441356.844     -324815.869 7   -253103.87822        24.250           2.156
  24008145.547     2835221.611 5   2209261.54021        11.250           0.594
 91  7  2  3 10 30.0000000  0  4G17G23G 3G16
  20366146.789    -1271979.774 7   -991152.25924        25.000           3.563
  22184171.945    -4159733.247 6  -3241346.53022        18.000           1.563
  20441324.375     -324986.332 7                        24.500
  24015766.133     2875276.280 5   2240472.92921        11.000           0.469
 91  7  2  3 10 45.0000000  0  4G17G23G 3G16
  20363482.125    -1285982.581 7  -1002063.53124        25.000           3.688
  22174150.172    -4212387.057 6  -3282375.43422        18.250           1.781
  20441311.742     -325040.497 7                        23.750
  24023402.617     2915370.320 5   2271715.00121        10.750           0.531
 91  7  2  3 11  0.0000000  0  4G17G23G 3G16
  20360831.867    -1299906.381 7  -1012913.24524        25.250           3.656
  22164146.352    -4264959.259 6  -3323340.74022        18.000           1.656
  20441326.977     -324976.771 7                        23.750
  24031030.688     2955504.884 5   2302988.65421        10.500           0.625
 91  7  2  3 11 15.0000000  0  4G17G23G 3G16
  20358197.844    -1313746.339 7  -1023697.61824        24.750           3.656
  22154162.047    -4317444.902 6  -3364238.59922        19.000           1.656
  20441364.414     -324790.007 7                        24.000
  24038681.734     2995684.472 5   2334297.37721        11.000           0.750
 91  7  2  3 11 30.0000000  0  4G17G23G 3G16
  20355578.203    -1327511.288 7  -1034423.55024        24.750           3.656
  22144185.656    -4369852.567 6  -3405075.70122        18.500           1.813
  20441416.055     -324488.891 7                        23.250
  24046331.805     3035900.290 5   2365634.33821        11.000           0.688
 91  7  2  3 11 45.0000000  0  4G17G23G 3G16
  20352975.125    -1341197.906 7  -1045088.43824        25.250           3.625
  22134230.805    -4422178.729 6  -3445849.29122        19.000           1.625
  20441498.422     -324070.106 7   -252522.79522        23.750           2.219
  24053997.563     3076155.540 5   2397002.02721        10.000           0.531
 91  7  2  3 12  0.0000000  0  4G17G23G 3G16
  20350383.914    -1354805.712 7  -1055691.91524        25.250           3.531
  22124287.445    -4474422.677 6  -3486558.82022        18.750           1.781
  20441599.914     -323532.910 7   -252104.20822        24.000           2.156
  24061663.859     3116450.154 5   2428400.38121        10.000           0.500
 91  7  2  3 12 15.0000000  0  4G17G23G 3G16
  20347810.086    -1368331.023 7  -1066231.11324        24.750           3.531
  22114362.523    -4526580.322 6  -3527201.09122        19.000           1.688
  20441728.914     -322873.448 7   -251590.34222        24.250           2.094
  24069336.203     3156787.483 5   2459832.03521         8.750           0.406
 91  7  2  3 12 30.0000000  0  4G17G23G 3G16
  20345252.953    -1381776.978 7  -1076708.47024        25.250           3.500
  22104452.133    -4578654.781 6  -3567778.55922        18.750           1.781
  20441874.734     -322094.892 7   -250983.68422        24.250           2.344
  24077015.313     3197164.462 5   2491294.57321         9.000           0.313
 91  7  2  3 12 45.0000000  0  4G17G23G 3G16
  20342709.328    -1395146.984 7  -1087126.64623        25.750           3.469
  22094557.867    -4630649.205 6  -3608293.65022        18.750           1.781
  20442043.609     -321200.275 7   -250286.58722        23.750           2.344
  24084715.102     3237577.167 5   2522784.97521         9.750           0.313
 91  7  2  3 13  0.0000000  0  4G17G23G 3G16
  20340179.688    -1408437.120 7  -1097482.58123        25.250           3.406
  22084679.008    -4682559.311 6  -3648743.05222        18.250           1.719
  20442237.141     -320185.713 7   -249496.01822        24.000           2.250
  24092409.016     3278029.316 5   2554306.09621        10.500           0.281
 91  7  2  3 13 15.0000000  0  4G17G23G 3G16
  20337663.938    -1421651.947 7  -1107779.83423        25.250           3.344
  22074817.523    -4734389.519 6  -3689130.17622        18.750           1.750
  20442452.797     -319055.585 7   -248615.40022        24.250           2.344
  24100110.875     3318515.903 5   2585854.05121        11.000           0.281
 91  7  2  3 13 30.0000000  0  4G17G23G 3G16
  20335164.539    -1434787.403 7  -1118015.24023        25.250           3.313
  22064970.758    -4786135.302 6  -3729451.52422        18.500           1.750
  20442692.570     -317805.505 7   -247641.31822        24.000           2.281
  24107831.047     3359040.994 6   2617432.02621        12.000           0.469
 91  7  2  3 13 45.0000000  0  4G17G23G 3G16
  20332679.672    -1447841.539 7  -1128187.28923        25.250           3.375
  22055139.641    -4837794.429 6  -3769705.34822        18.750           1.781
  20442949.656     -316433.541 7   -246572.25622        23.750           2.281
  24115545.000     3399606.436 6   2649041.44821        12.000           0.563
 91  7  2  3 14  0.0000000  0  4G17G23G 3G16
  20330211.914    -1460817.239 7  -1138298.21523        25.750           3.219
  22045326.352    -4889369.937 6  -3809894.01122        19.000           1.844
  20443237.203     -314942.225 7   -245410.19422        23.750           2.125
  24123272.984     3440208.642 5   2680679.47621        11.750           0.500
 91  7  2  3 14 15.0000000  0  4G17G23G 3G16
  20327756.766    -1473715.876 7  -1148349.09723        25.000           3.375
  22035527.773    -4940862.827 6  -3850018.30022        19.250           1.750
  20443543.211     -313332.889 7   -244156.17022        24.000           2.313
  24131005.555     3480846.249 5   2712345.10121        11.750           0.625
 91  7  2  3 14 30.0000000  0  4G17G23G 3G16
  20325318.242    -1486538.186 7  -1158340.50923        25.250           3.219
  22025744.805    -4992273.648 6  -3890078.64322        19.250           1.781
  20443870.180     -311606.287 7   -242810.76522        23.500           2.188
  24138747.859     3521518.303 6   2744037.58721        12.250           0.625
 91  7  2  3 14 45.0000000  0  4G17G23G 3G16
  20322892.641    -1499283.284 7  -1168271.76023        25.250           3.219
  22015977.555    -5043601.094 6  -3930074.00622        19.500           1.813
  20444220.906     -309761.375 7   -241373.17222        23.750           2.188
  24146489.273     3562225.435 5   2775757.40821        10.500           0.656
 91  7  2  3 15  0.0000000  0  4G17G23G 3G16
  20320481.844    -1511945.601 7  -1178138.51023        24.750           3.281
  22006226.781    -5094839.379 6  -3969999.91622        19.250           1.750
  20444597.313     -307792.200 7   -239838.75122        24.250           2.250
  24154241.445     3602972.888 5   2807508.60921        10.250           0.625
 91  7  2  3 15 15.0000000  0  4G17G23G 3G16
  20318086.703    -1524533.156 7  -1187946.99923        24.750           3.313
  21996491.227    -5145996.447 6  -4009862.50422        19.750           1.813
  20444993.023     -305706.652 7   -238213.65122        24.000           2.250
  24162007.773     3643752.460 5   2839284.87321        10.000           0.719
 91  7  2  3 15 30.0000000  0  4G17G23G 3G16
  20315706.336    -1537043.589 7  -1197695.39823        25.250           3.250
  21986770.891    -5197069.712 6  -4049659.82422        19.000           1.781
  20445414.328     -303502.760 7   -236496.33622        24.250           2.188
  24169770.563     3684565.874 5   2871087.48921         9.500           0.594
 91  7  2  3 15 45.0000000  0  3G17G23G 3
  20313342.836    -1549474.482 7  -1207381.81023        25.250           3.375
  21977068.469    -5248056.546 6  -4089389.77522        19.750           1.875
  20445856.930     -301177.746 7   -234684.64122        24.000           2.188
 91  7  2  3 16  0.0000000  0  3G17G23G 3
  20310989.516    -1561829.173 7  -1217008.84823        24.750           3.344
  21967381.828    -5298960.117 6  -4129054.85422        19.250           1.750
  20446321.086     -298734.737 7   -232781.00222        24.000           2.156
 91  7  2  3 16 15.0000000  0  3G17G23G 3
  20308654.711    -1574103.668 7  -1226573.39023        24.750           3.313
  21957713.422    -5349775.931 7  -4168651.54922        20.500           1.781
  20446807.258     -296169.408 7   -230782.04722        24.000           2.125
 91  7  2  3 16 30.0000000  0  3G17G23G 3
  20306334.469    -1586297.472 7  -1236075.05923        24.750           3.406
  21948058.516    -5400503.459 6  -4208179.45222        19.250           1.906
  20447320.984     -293481.498 7   -228687.57322        24.500           2.188
 91  7  2  3 16 45.0000000  0  3G17G23G 3
  20304027.102    -1598414.566 7  -1245516.95823        24.500           3.281
  21938422.641    -5451146.364 7  -4247641.40722        20.000           1.750
  20447855.289     -290674.515 7   -226500.32022        24.000           2.188
 91  7  2  3 17  0.0000000  0  3G17G23G 3
  20301737.773    -1610455.504 7  -1254899.50323        25.000           3.406
  21928801.602    -5501705.092 6  -4287037.78322        19.750           2.031
  20448409.703     -287749.016 7   -224220.71022        23.750           2.219
 91  7  2  3 17 15.0000000  0  3G17G23G 3
  20299460.633    -1622417.102 7  -1264220.23823        25.250           3.406
  21919197.789    -5552176.203 7  -4326365.87522        20.000           1.906
  20448989.836     -284701.828 7   -221846.27922        23.750           2.125
 91  7  2  3 17 30.0000000  0  3G17G23G 3
  20297200.156    -1634295.959 7  -1273476.48723        25.250           3.406
  21909610.070    -5602556.044 6  -4365622.86322        19.500           1.938
  20449595.336     -281529.159 7   -219374.07022        24.250           2.219
 91  7  2  3 17 45.0000000  0  3G17G23G 3
  20294953.164    -1646103.795 7  -1282677.39723        25.250           3.438
  21900041.391    -5652856.093 7  -4404817.65322        20.500           1.938
  20450219.461     -278242.654 7   -216813.16222        23.500           2.156
 91  7  2  3 18  0.0000000  0  3G17G23G 3
  20292720.375    -1657834.008 7  -1291817.82323        25.500           3.469
  21890482.563    -5703069.393 6  -4443944.87222        19.750           1.969
  20450867.734     -274835.767 7   -214158.44422        23.750           2.125
 91  7  2  3 18 15.0000000  0  3G17G23G 3
  20290503.688    -1669488.441 7  -1300899.20223        25.750           3.469
  21880944.977    -5753197.756 7  -4483005.88422        20.500           1.969
  20451539.805     -271310.161 7   -211411.21422        24.000           2.125
 91  7  2  3 18 30.0000000  0  3G17G23G 3
  20288303.820    -1681055.237 7  -1309912.29124        25.500           3.500
  21871422.570    -5803228.871 7  -4521991.13922        20.000           2.000
  20452236.328     -267653.668 7   -208562.00422        24.250           2.188
 91  7  2  3 18 45.0000000  0  3G17G23G 3
  20286117.016    -1692541.875 7  -1318862.92024        25.500           3.531
  21861921.656    -5853170.334 7  -4560906.51422        20.750           2.000
  20452953.195     -263873.883 7   -205616.71622        24.000           2.219
 91  7  2  3 19  0.0000000  0  3G17G23G 3
  20283945.289    -1703951.596 7  -1327753.61524        25.250           3.500
  21852433.492    -5903025.087 7  -4599754.34222        20.500           2.094
  20453696.445     -259973.878 7   -202577.76022        24.250           2.094
 91  7  2  3 19 15.0000000  0  3G17G23G 3
  20281788.156    -1715284.389 7  -1336584.37124        25.000           3.531
  21842963.648    -5952792.815 7  -4638534.34922        21.250           2.031
  20454462.617     -255953.487 7   -199444.98622        24.250           2.188
 91  7  2  3 19 30.0000000  0  3G17G23G 3
  20279647.352    -1726537.540 7  -1345353.05923        25.000           3.438
  21833510.047    -6002470.542 7  -4677244.22822        20.750           2.063
  20455251.141     -251809.807 7   -196216.14122        24.250           2.156
 91  7  2  3 19 45.0000000  0  3G17G23G 3
  20277520.281    -1737715.910 7  -1354063.48524        25.000           3.500
  21824073.859    -6052062.871 7  -4715887.55822        21.500           1.969
  20456061.305     -247547.611 7   -192894.96222        23.750           2.125
 91  7  2  3 19 59.9990000  0  3G17G23G 3
  20275406.839    -1748818.273 7  -1362714.68024        25.000           3.500
  21814651.050    -6101565.940 7  -4754461.35122        20.500           2.031
  20456893.065     -243166.498 7   -189481.11622        24.250           2.031
 91  7  2  3 20 14.9990000  0  3G17G23G 3
  20273307.347    -1759844.809 7  -1371306.79123        24.250           3.375
  21805249.534    -6150984.887 7  -4792969.56222        22.250           2.094
  20457750.636     -238664.572 7   -185973.12722        24.000           2.156
 91  7  2  3 20 29.9990000  0  3G17G23G 3
  20271225.065    -1770793.789 7  -1379838.46123        24.750           3.406
  21795858.347    -6200315.113 7  -4831408.67622        20.500           2.188
  20458629.659     -234041.179 7   -182370.48022        24.000           2.125
 91  7  2  3 20 44.9990000  0  3G17G23G 3
  20269155.308    -1781667.438 7  -1388311.43123        24.250           3.469
  21786489.808    -6249558.526 7  -4869780.11922        21.250           2.219
  20459533.870     -229298.223 7   -178674.68122        24.250           2.094
 91  7  2  3 20 59.9990000  0  3G17G23G 3
  20267101.940    -1792459.556 7  -1396720.87023        24.250           3.469
  21777135.198    -6298708.693 7  -4908078.91322        20.500           2.125
  20460459.612     -224429.278 7   -174880.70022        24.250           2.031
 91  7  2  3 21 14.9990000  0  3G17G23G 3
  20265064.206    -1803167.037 7  -1405064.35723        24.250           3.438
  21767802.245    -6347762.188 7  -4946302.38022        20.750           2.219
  20461410.386     -219431.161 7   -170986.06022        23.750           2.094
 91  7  2  3 21 29.9990000  0  3G17G23G 3
  20263039.081    -1813808.168 7  -1413356.14123        24.000           3.406
  21758482.339    -6396737.307 7  -4984464.76822        21.250           2.219
  20462384.581     -214322.224 7   -167005.07222        24.250           2.188
 91  7  2  3 21 44.9990000  0  3G17G23G 3
  20261030.792    -1824370.762 7  -1421586.73323        24.250           3.375
  21749181.855    -6445621.594 7  -5022556.37622        21.500           2.156
  20463379.386     -209090.094 7   -162928.08722        24.000           2.188
 91  7  2  3 21 59.9990000  0  3G17G23G 3
  20259035.683    -1834852.899 7  -1429754.62923        24.500           3.344
  21739895.636    -6494412.836 7  -5060575.49922        21.000           2.344
  20464398.534     -203732.764 7   -158753.54722        24.000           2.156
 91  7  2  3 22 14.9990000  0  3G17G23G 3
  20257055.730    -1845259.235 7  -1437863.46124        24.500           3.531
  21730626.815    -6543115.575 7  -5098525.64122        20.750           2.219
  20465441.472     -198254.703 7   -154484.93122        24.000           2.188
 91  7  2  3 22 29.9990000  0  3G17G23G 3
  20255090.120    -1855586.900 7  -1445910.99323        24.250           3.438
  21721377.237    -6591726.833 7  -5136404.50922        21.000           2.375
  20466507.839     -192652.819 7   -150119.82922        24.250           2.281
 91  7  2  3 22 44.9990000  0  3G17G23G 3
  20253139.730    -1865833.986 7  -1453895.74223        24.750           3.438
  21712143.167    -6640244.562 7  -5174210.49922        20.750           2.313
  20467596.425     -186925.472 7   -145656.96622        24.250           2.156
 91  7  2  3 22 59.9990000  0  3G17G23G 3
  20251203.940    -1875998.298 7  -1461815.99023        24.500           3.438
  21702929.683    -6688666.174 7  -5211941.58322        21.000           2.344
  20468711.542     -181070.143 7   -141094.37522        24.500           2.188
 91  7  2  3 23 14.9990000  0  3G17G23G 3
  20249284.253    -1886083.715 7  -1469674.75924        24.500           3.531
  21693733.644    -6736995.358 7  -5249600.65122        20.750           2.344
  20469849.581     -175090.698 7   -136435.07622        24.250           2.250
 91  7  2  3 23 29.9990000  0  3G17G23G 3
  20247382.862    -1896090.934 7  -1477472.59524        24.750           3.531
  21684552.894    -6785232.792 7  -5287188.21822        20.250           2.313
  20471011.909     -168987.766 7   -131679.54422        24.750           2.156
 91  7  2  3 23 44.9990000  0  3G17G23G 3
  20245493.144    -1906022.971 7  -1485211.84423        25.500           3.438
  21675391.206    -6833381.095 6  -5324706.34922        19.750           2.406
  20472195.308     -162764.279 7   -126830.08222        24.250           2.156
 91  7  2  3 23 59.9990000  0  3G17G23G 3
  20243616.480    -1915879.919 7  -1492892.58524        25.250           3.500
  21666247.120    -6881440.065 7  -5362154.84722        20.250           2.344
  20473402.261     -156419.952 7   -121886.45722        24.000           2.156
 91  7  2  3 24 14.9990000  0  3G17G23G 3
  20241756.175    -1925659.170 7  -1500512.78324        25.750           3.500
  21657115.558    -6929407.248 6  -5399531.84722        18.500           2.344
  20474633.206     -149952.373 7   -116846.78522        24.250           2.188
 91  7  2  3 24 29.9990000  0  3G17G23G 3
  20239908.644    -1935362.910 7  -1508074.13824        25.000           3.563
  21648010.417    -6977284.306 7  -5436838.60022        20.000           2.344
  20475884.948     -143363.307 7   -111712.44622        24.000           2.219
 91  7  2  3 24 44.9990000  0  3G17G23G 3
  20238077.386    -1944988.534 7  -1515574.62624        25.500           3.531
  21638911.659    -7025068.383 6  -5474072.91622        18.500           2.406
  20477166.581     -136650.263 7   -106481.51122        24.500           2.219
 91  7  2  3 24 59.9990000  0  3G17G23G 3
  20236261.308    -1954531.302 7  -1523010.54824        25.250           3.688
  21629840.425    -7072754.456 6  -5511230.85322        19.500           2.375
  20478467.245     -129808.133 7   -101149.98422        24.500           2.188
 91  7  2  3 25 14.9990000  0  3G17G23G 3
  20234461.815    -1963995.729 7  -1530385.42024        25.250           3.750
  21620781.159    -7120347.046 6  -5548315.95922        18.750           2.344
  20479792.690     -122841.722 7    -95721.61622        24.500           2.156
 91  7  2  3 25 29.9990000  0  3G17G23G 3
  20232675.065    -1973379.236 7  -1537697.23624        25.250           3.688
  21611746.253    -7167843.329 6  -5585326.01422        19.750           2.344
  20481141.175     -115748.259 7    -90194.24922        24.250           2.125
 91  7  2  3 25 44.9990000  0  3G17G23G 3
  20230903.980    -1982683.318 7  -1544947.16324        25.500           3.688
  21602722.722    -7215244.879 6  -5622262.25722        18.750           2.469
  20482514.839     -108529.276 7    -84569.07522        24.500           2.156
 91  7  2  3 25 59.9990000  0  3G17G23G 3
  20229148.987    -1991911.356 7  -1552137.83724        24.750           3.719
  21593723.511    -7262554.497 7  -5659126.85522        20.250           2.281
  20483913.097     -101187.771 7    -78848.43022        24.750           2.125
 91  7  2  3 26 14.9990000  0  3G17G23G 3
  20227406.292    -2001064.686 7  -1559270.29224        24.750           3.750
  21584735.464    -7309773.367 6  -5695920.74922        19.750           2.469
  20485333.987      -93725.032 7    -73033.31722        25.000           2.281
 91  7  2  3 26 29.9990000  0  3G17G23G 3
  20225677.706    -2010144.037 7  -1566345.10224        24.500           3.813
  21575766.894    -7356902.107 6  -5732644.41422        19.750           2.313
  20486776.292      -86141.867 7    -67124.36322        25.000           2.156
 91  7  2  3 26 44.9990000  0  3G17G23G 3
  20223964.597    -2019147.031 7  -1573360.41024        24.750           3.781
  21566816.034    -7403938.067 7  -5769295.77622        20.000           2.344
  20488242.448      -78435.471 7    -61119.38622        24.750           2.094
 91  7  2  3 26 59.9990000  0  3G17G23G 3
  20222264.745    -2028074.473 7  -1580316.84524        24.250           3.625
  21557884.323    -7450881.881 7  -5805875.33122        20.500           2.250
  20489733.034      -70606.919 7    -55019.21822        24.750           2.188
 91  7  2  3 27 14.9990000  0  3G17G23G 3
  20220581.487    -2036926.077 7  -1587214.19024        24.250           3.844
  21548970.362    -7497733.011 7  -5842382.67522        20.750           2.313
  20491245.011      -62655.562 7    -48823.36022        24.500           2.156
 91  7  2  3 27 29.9990000  0  3G17G23G 3
  20218910.011    -2045697.085 7  -1594048.73024        23.750           3.688
  21540071.901    -7544486.695 7  -5878814.08522        20.500           2.313
  20492780.698      -54576.806 7    -42528.23222        24.250           2.156
 91  7  2  3 27 44.9990000  0  3G17G23G 3
  20217259.612    -2054392.263 7  -1600824.18424        23.750           3.688
  21531194.698    -7591147.308 7  -5915172.96422        21.000           2.406
  20494344.612      -46375.119 7    -36137.31622        24.750           2.188
 91  7  2  3 27 59.9990000  0  3G17G23G 3
  20215619.089    -2063007.768 7  -1607537.55924        24.000           3.813
  21522331.300    -7637710.852 7  -5951456.23023        20.000           2.500
  20495927.886      -38046.496 7    -29647.49122        24.750           2.188
 91  7  2  3 28 14.9990000  0  3G17G23G 3
  20213991.308    -2071549.138 7  -1614193.17124        23.750           3.719
  21513490.394    -7684182.731 7  -5987668.03622        21.250           2.406
  20497534.878      -29596.751 7    -23063.28422        24.250           2.125
 91  7  2  3 28 29.9990000  0  3G17G23G 3
  20212384.253    -2080007.260 7  -1620783.91124        24.250           3.781
  21504662.784    -7730553.501 7  -6023801.08023        20.500           2.531
  20499167.761      -21016.305 7    -16377.23522        24.000           2.156
 91  7  2  3 28 44.9990000  0  3G17G23G 3
  20210789.159    -2088391.472 7  -1627317.06624        24.250           3.750
  21495857.855    -7776832.174 7  -6059862.34823        20.750           2.531
  20500823.714      -12314.584 7     -9596.68322        24.250           2.125
 91  7  2  3 28 59.9990000  0  3G17G23G 3
  20209208.253    -2096695.842 7  -1633788.00224        24.250           3.719
  21487069.394    -7823013.031 7  -6095847.40023        21.000           2.531
  20502503.323       -3485.594 7     -2716.95622        24.250           2.188
 91  7  2  3 29 14.9990000  0  3G17G23G 3
  20207644.511    -2104921.225 7  -1640197.38924        24.250           3.719
  21478299.011    -7869096.916 7  -6131756.89823        20.750           2.594
  20504207.503        5469.549 7      4261.07522        24.000           2.125
 91  7  2  3 29 29.9990000  0  3G17G23G 3
  20206092.464    -2113070.246 7  -1646547.27524        24.250           3.563
  21469547.269    -7915085.934 7  -6167592.45823        20.750           2.500
  20505933.605       14548.637 7     11335.68222        24.000           2.156
 91  7  2  3 29 44.9990000  0  3G17G23G 3
  20204556.362    -2121140.466 7  -1652835.75224        24.000           3.625
  21460816.276    -7960977.352 7  -6203351.97523        20.750           2.688
  20507689.464       23754.361 7     18508.96222        24.750           2.094
 91  7  2  3 29 59.9990000  0  3G17G23G 3
  20203036.026    -2129128.195 7  -1659059.95424        24.250           3.781
  21452103.128    -8006767.349 7  -6239032.45323        21.750           2.594
  20509464.058       33090.425 7     25783.81022        24.250           2.250
 91  7  2  3 30 14.9990000  0  3G17G23G 3
  20201530.628    -2137040.716 7  -1665225.54824        24.250           3.656
  21443406.878    -8052462.964 7  -6274639.40123        20.750           2.594
  20511266.206       42549.622 7     33154.60822        24.500           2.156
 91  7  2  3 30 29.9990000  0  3G17G23G 3
  20200039.237    -2144888.002 7  -1671340.30324        24.500           3.625
  21434729.894    -8098073.908 7  -6310180.35423        21.750           2.594
  20513084.440       52122.008 7     40613.60422        24.000           2.219
 91  7  2  3 30 44.9990000  0  3G17G23G 3
  20198557.753    -2152660.854 7  -1677397.05824        24.500           3.625
  21426063.073    -8143591.051 7  -6345648.23523        20.250           2.688
  20514931.206       61816.629 7     48167.84622        24.500           2.188
 91  7  2  3 30 59.9990000  0  3G17G23G 3
  20197093.815    -2160359.314 7  -1683395.85124        24.500           3.563
  21417423.362    -8189014.152 7  -6381042.81323        21.250           2.719
  20516799.198       71633.836 7     55817.61622        24.000           2.156
 91  7  2  3 31 14.9990000  0  3G17G23G 3
  20195643.925    -2167981.878 7  -1689335.50524        24.750           3.656
  21408794.839    -8234341.672 7  -6416362.94523        20.250           2.656
  20518689.409       81574.926 7     63563.92022        23.750           2.156
 91  7  2  3 31 29.9990000  0  3G17G23G 3
  20194206.401    -2175528.410 7  -1695215.91824        24.500           3.500
  21400188.581    -8279573.069 7  -6451608.14323        20.750           2.719
  20520607.409       91640.391 7     71407.12322        24.250           2.156
 91  7  2  3 31 44.9990000  0  3G17G23G 3
  20192785.511    -2182996.283 7  -1701035.03524        24.250           3.531
  21391603.120    -8324705.519 7  -6486776.25823        21.500           2.719
  20522545.425      101832.662 7     79349.14822        23.500           2.156
 91  7  2  3 31 59.9990000  0  3G17G23G 3
  20191378.855    -2190388.202 7  -1706794.96924        24.500           3.656
  21383031.222    -8369741.638 7  -6521869.29923        21.000           2.781
  20524509.753      112149.396 7     87388.15022        23.750           2.094
 91  7  2  3 32 14.9990000  0  3G17G23G 3
  20189986.815    -2197703.954 7  -1712495.54424        24.250           3.594
  21374479.105    -8414681.083 7  -6556887.01923        20.750           2.750
  20526497.011      122590.471 7     95524.04122        24.000           2.156
 91  7  2  3 32 29.9990000  0  3G17G23G 3
  20188608.394    -2204943.407 7  -1718136.66524        24.250           3.625
  21365942.222    -8459523.344 7  -6591829.01423        20.000           2.969
  20528507.081      133156.324 7    103757.16822        24.000           2.094
 91  7  2  3 32 44.9990000  0  3G17G23G 3
  20187246.308    -2212106.493 7  -1723718.28424        24.000           3.656
  21357431.792    -8504268.379 7  -6626695.23523        21.500           2.875
  20530540.964      143846.892 7    112087.46922        23.500           2.188
 91  7  2  3 32 59.9990000  0  3G17G23G 3
  20185896.565    -2219195.949 7  -1729242.53024        24.250           3.563
  21348935.901    -8548918.848 7  -6661487.78123        21.000           2.906
  20532597.253      154659.780 7    120513.09222        23.250           2.063
 91  7  2  3 33 14.9990000  0  3G17G23G 3
  20184560.870    -2226207.475 7  -1734706.05124        24.500           3.656
  21340457.339    -8593470.286 7  -6696203.15423        21.750           3.063
  20534679.886      165599.190 7    129037.29322        23.000           2.281
 91  7  2  3 33 29.9990000  0  3G17G23G 3
  20183242.917    -2233141.850 7  -1740109.45324        24.750           3.688
  21331996.331    -8637922.990 7  -6730841.59623        21.000           2.875
  20536786.058      176664.557 7    137659.65222        23.000           2.219
 91  7  2  3 33 44.9990000  0  3G17G23G 3
  20181940.526    -2239998.717 7  -1745452.45824        24.500           3.656
  21323557.737    -8682276.548 7  -6765402.78523        22.000           2.938
  20538916.550      187856.260 7    146380.45522        23.000           2.094
 91  7  2  3 33 59.9990000  0  3G17G23G 3
  20180646.706    -2246780.921 7  -1750737.29024        24.250           3.688
  21315133.183    -8726533.641 7  -6799888.79823        20.750           2.938
  20541067.386      199171.511 7    155197.52222        23.000           2.063
 91  7  2  3 34 14.9990000  0  3G17G23G 3
  20179372.800    -2253487.087 7  -1755962.87024        24.750           3.688
  21306731.683    -8770692.619 7  -6834298.36523        21.250           2.906
  20543246.581      210611.614 7    164111.88522        23.000           2.094
 91  7  2  3 34 29.9990000  0  3G17G23G 3
  20178110.401    -2260117.488 7  -1761129.41624        24.250           3.750
  21298346.940    -8814753.652 7  -6868631.59923        21.500           2.969
  20545445.690      222176.368 7    173123.37822        22.750           2.094
 91  7  2  3 34 44.9990000  0  3G17G23G 3
  20176863.753    -2266670.780 7  -1766235.87824        24.500           3.750
  21289978.745    -8858715.103 7  -6902887.25423        20.500           2.875
  20547670.464      233867.456 7    182233.30922        23.250           2.031
 91  7  2  3 34 59.9990000  0  3G17G23G 3
  20175630.425    -2273147.090 7  -1771282.35324        24.000           3.844
  21281634.386    -8902577.256 7  -6937065.51023        21.250           2.750
  20549919.058      245684.361 7    191441.28022        23.250           2.094
 91  7  2  3 35 14.9990000  0  3G17G23G 3
  20174412.089    -2279548.688 7  -1776270.60924        24.000           3.813
  21273307.128    -8946342.039 7  -6971167.92323        21.250           2.719
  20552192.347      257625.099 7    200745.74922        23.250           2.125
 91  7  2  3 35 29.9990000  0  3G17G23G 3
  20173208.042    -2285877.148 7  -1781201.87224        24.250           3.781
  21264997.808    -8990010.674 7  -7005195.38723        21.750           2.719
  20554487.448      269688.272 7    210145.62022        23.000           2.125
 91  7  2  3 35 44.9990000  0  3G17G23G 3
  20172019.175    -2292121.323 7  -1786067.45824        24.500           3.625
  21256706.323    -9033572.146 7  -7039139.36623        21.250           2.813
  20556809.573      281884.934 7    219649.50822        23.000           2.094
 91  7  2  3 35 59.9990000  0  3G17G23G 3
  20170846.487    -2298286.654 7  -1790871.60524        24.500           3.750
  21248438.464    -9077031.460 7  -7073003.73023        22.000           2.719
  20559155.425      294209.573 7    229253.11622        22.750           2.000
 91  7  2  3 36 14.9990000  0  3G17G23G 3
  20169688.698    -2304374.779 7  -1795615.58924        25.000           3.656
  21240186.058    -9120390.379 7  -7106789.87923        21.250           2.688
  20561522.089      306660.797 7    238955.36122        22.250           2.094
 91  7  2  3 36 29.9990000  0  3G17G23G 3
  20168544.519    -2310384.693 7  -1800298.63824        24.750           3.719
  21231954.269    -9163647.364 7  -7140496.58123        21.750           2.938
  20563916.175      319239.833 7    248757.19622        22.250           2.000
 91  7  2  3 36 44.9990000  0  3G17G23G 3
  20167414.987    -2316316.321 7  -1804920.68124        25.000           3.719
  21223742.065    -9206802.322 7  -7174123.79823        21.000           2.906
  20566334.386      331946.546 7    258658.52522        22.250           1.875
 91  7  2  3 36 59.9990000  0  3G17G23G 3
  20166300.901    -2322168.981 7  -1809481.19824        24.750           3.688
  21215550.425    -9249854.548 7  -7207670.94223        22.500           2.844
  20568775.151      344781.626 7    268659.87722        22.000           1.969
 91  7  2  3 37 14.9990000  0  3G17G23G 3
  20165200.495    -2327949.890 7  -1813985.80224        25.000           3.625
  21207375.073    -9292810.967 7  -7241143.44923        21.750           2.875
  20571241.839      357738.012 7    278755.75922        22.000           1.906
 91  7  2  3 37 29.9990000  0  3G17G23G 3
  20164115.690    -2333654.971 7  -1818431.31924        24.500           3.781
  21199221.472    -9335667.426 7  -7274538.05623        22.750           2.969
  20573732.769      370819.806 7    288949.35622        22.000           2.000
 91  7  2  3 37 44.9990000  0  3G17G23G 3
  20163044.331    -2339281.474 7  -1822815.60424        24.750           3.688
  21191085.151    -9378420.865 7  -7307852.39223        22.000           2.844
  20576246.558      384029.752 7    299242.81922        22.250           1.938
 91  7  2  3 37 59.9990000  0  3G17G23G 3
  20161989.026    -2344833.818 7  -1827142.11024        25.000           3.688
  21182967.925    -9421075.740 7  -7341089.92623        22.250           2.969
  20578782.409      397363.212 7    309632.51322        22.000           1.969
 91  7  2  3 38 14.9990000  0  3G17G23G 3
  20160945.581    -2350312.578 7  -1831411.27424        24.750           3.594
  21174871.159    -9463632.155 7  -7374250.73623        22.250           2.875
  20581344.276      410820.072 7    320118.36722        22.000           1.969
 91  7  2  3 38 29.9990000  0  3G17G23G 3
  20159919.331    -2355717.307 7  -1835622.74724        25.250           3.688
  21166789.526    -9506089.625 7  -7407334.44623        21.750           2.750
  20583928.995      424400.649 7    330700.63322        22.000           1.906
 91  7  2  3 38 44.9990000  0  3G17G23G 3
  20158903.948    -2361047.751 7  -1839776.33824        25.000           3.625
  21158729.440    -9548447.827 7  -7440340.80223        22.000           2.781
  20586534.878      438105.341 7    341379.60222        22.250           1.969
 91  7  2  3 38 59.9990000  0  3G17G23G 3
  20157902.417    -2366300.863 7  -1843869.67124        24.750           3.625
  21150687.417    -9590703.742 7  -7473267.46423        21.750           2.875
  20589169.472      451936.935 7    352157.45522        22.500           1.938
 91  7  2  3 39 14.9990000  0  3G17G23G 3
  20156920.151    -2371478.547 7  -1847904.23224        25.000           3.594
  21142665.472    -9632858.944 7  -7506115.63923        21.500           2.813
  20591826.105      465893.751 7    363032.89022        22.250           1.906
 91  7  2  3 39 29.9990000  0  3G17G23G 3
  20155948.167    -2376581.983 7  -1851880.93724        25.000           3.688
  21134664.292    -9674914.278 7  -7538886.00423        21.750           2.844
  20594504.058      479974.788 7    374005.11622        22.500           1.938
 91  7  2  3 39 44.9990000  0  3G17G23G 3
  20154990.839    -2381611.227 7  -1855799.83224        25.250           3.625
  21126680.315    -9716869.720 7  -7571578.51823        22.000           2.781
  20597206.526      494180.082 7    385074.16622        22.000           1.844
 91  7  2  3 39 59.9990000  0  3G17G23G 3
  20154048.573    -2386562.706 7  -1859658.12024        24.750           3.625
  21118716.315    -9758721.764 7  -7604190.46723        22.000           2.781
  20599934.011      508512.706 7    396242.44222        22.250           1.813
 91  7  2  3 40 14.9990000  0  3G17G23G 3
  20153120.526    -2391440.163 7  -1863458.74324        25.000           3.656
  21110767.886    -9800473.686 7  -7636724.41023        21.250           2.781
  20602687.862      522969.522 7    407507.48622        22.500           1.781
 91  7  2  3 40 29.9990000  0  3G17G23G 3
  20152206.019    -2396241.551 7  -1867200.08024        25.000           3.594
  21102844.659    -9842123.592 7  -7669178.84623        22.250           2.969
  20605461.776      537552.335 7    418870.70422        22.500           1.813
 91  7  2  3 40 44.9990000  0  3G17G23G 3
  20151307.409    -2400964.854 7  -1870880.57424        24.750           3.719
  21094940.878    -9883669.208 7  -7701552.02823        22.500           2.938
  20608260.167      552263.073 7    430333.60522        22.750           1.781
 91  7  2  3 40 59.9990000  0  3G17G23G 3
  20150422.690    -2405610.536 7  -1874500.58424        25.000           3.531
  21087051.605    -9925110.417 7  -7733843.85123        21.250           2.875
  20611082.081      567102.021 7    441896.40722        22.500           1.781
 91  7  2  3 41 14.9990000  0  3G17G23G 3
  20149553.089    -2410176.730 7  -1878058.65124        24.750           3.594
  21079188.862    -9966445.720 7  -7766053.14423        22.250           3.000
  20613930.940      582070.326 7    453560.02222        22.500           1.719
 91  7  2  3 41 29.9990000  0  3G17G23G 3
  20148700.245    -2414665.467 7  -1881556.36224        25.000           3.563
  21071340.597   -10007676.823 7  -7798181.26323        21.250           3.000
  20616803.948      597166.204 7    465323.02222        22.750           1.875
 91  7  2  3 41 44.9990000  0  3G17G23G 3
  20147860.698    -2419085.736 7  -1885000.72624        25.000           3.594
  21063513.315   -10048812.644 7  -7830235.11423        21.500           3.063
  20619701.878      612380.524 7    477178.32622        23.000           1.719
 91  7  2  3 41 59.9990000  0  3G17G23G 3
  20147031.370    -2423429.814 7  -1888385.71724        24.500           3.563
  21055703.706   -10089845.237 7  -7862208.53423        21.500           3.219
  20622620.690      627721.000 7    489131.93022        23.000           1.844
 91  7  2  3 42 14.9990000  0  3G17G23G 3
  20146220.870    -2427691.520 7  -1891706.52424        24.750           3.656
  21047913.542   -10130768.532 7  -7894096.78823        20.750           3.063
  20625563.823      643193.848 7    501188.68522        23.250           1.750
 91  7  2  3 42 29.9990000  0  3G17G23G 3
  20145422.667    -2431885.039 7  -1894974.20024        24.500           3.656
  21040149.362   -10171596.346 7  -7925910.63323        22.250           3.156
  20628529.683      658785.087 7    513337.69622        23.000           1.750
 91  7  2  3 42 44.9990000  0  3G17G23G 3
  20144640.558    -2436005.502 7  -1898184.94324        25.000           3.656
  21032397.019   -10212323.551 7  -7957646.08723        21.250           3.250
  20631521.206      674499.621 7    525582.77222        22.750           1.750
 91  7  2  3 42 59.9990000  0  3G17G23G 3
  20143870.370    -2440048.805 7  -1901335.56824        24.500           3.625
  21024665.987   -10252945.825 7  -7989299.78823        21.000           3.031
  20634534.917      690341.644 7    537927.19222        23.000           1.844
 91  7  2  3 43 14.9990000  0  3G17G23G 3
  20143114.206    -2444020.022 7  -1904430.02024        24.250           3.531
  21016957.276   -10293468.248 7  -8020875.65323        22.250           3.156
  20637572.839      706306.009 7    550366.93722        22.750           1.813
 91  7  2  3 43 29.9990000  0  3G17G23G 3
  20142374.308    -2447918.586 7  -1907467.85724        25.000           3.625
  21009262.815   -10333890.261 7  -8052373.31223        21.000           3.188
  20640633.878      722393.006 7    562902.24722        22.750           1.844
 91  7  2  3 43 44.9990000  0  3G17G23G 3
  20141645.058    -2451737.455 7  -1910443.59424        24.250           3.688
  21001594.034   -10374204.666 7  -8083787.09423        22.500           3.281
  20643721.190      738609.913 7    575538.79222        22.500           1.781
 91  7  2  3 43 59.9990000  0  3G17G23G 3
  20140933.714    -2455481.075 7  -1913360.70024        24.750           3.563
  20993939.472   -10414415.437 7  -8115120.14323        21.500           3.281
  20646830.605      754952.497 7    588273.26022        22.750           1.875
 91  7  2  3 44 14.9990000  0  3G17G23G 3
  20140235.409    -2459148.625 7  -1916218.52624        24.500           3.656
  20986308.909   -10454521.733 7  -8146371.77023        21.750           3.250
  20649963.065      771421.440 7    601106.19022        22.500           1.844
 91  7  2  3 44 29.9990000  0  3G17G23G 3
  20139551.237    -2462738.824 7  -1919016.08524        24.500           3.656
  20978695.886   -10494522.232 7  -8177540.96923        20.750           3.219
  20653123.519      788018.058 7    614038.61122        23.000           1.813
 91  7  2  3 44 44.9990000  0  3G17G23G 3
  20138881.136    -2466254.095 7  -1921755.25624        24.250           3.625
  20971105.964   -10534419.369 7  -8208629.61523        22.250           3.313
  20656306.237      804739.827 7    627068.53522        22.750           1.844
 91  7  2  3 44 59.9990000  0  3G17G23G 3
  20138225.331    -2469699.272 7  -1924439.80524        24.500           3.656
  20963528.456   -10574217.762 7  -8239641.33823        20.000           3.219
  20659511.308      821581.862 7    640192.19122        23.250           1.844
 91  7  2  3 45 14.9990000  0  3G17G23G 3
  20137587.034    -2473071.300 7  -1927067.35724        24.500           3.688
  20955978.456   -10613913.866 7  -8270573.33423        22.250           3.219
  20662740.589      838547.752 7    653412.35422        22.250           1.844
 91  7  2  3 45 29.9990000  0  3G17G23G 3
  20136958.909    -2476369.742 7  -1929637.57424        24.500           3.625
  20948441.519   -10653507.227 7  -8301425.29023        21.000           3.188
  20665990.909      855637.641 7    666729.13622        22.750           1.813
 91  7  2  3 45 44.9990000  0  3G17G23G 3
  20136344.003    -2479592.038 7  -1932148.45224        24.500           3.688
  20940927.730   -10692995.422 7  -8332195.29123        21.250           3.094
  20669267.940      872853.784 7    680144.29122        22.750           1.875
 91  7  2  3 45 59.9990000  0  3G17G23G 3
  20135745.511    -2482738.791 7  -1934600.46224        24.250           3.531
  20933436.495   -10732378.945 7  -8362883.72523        22.500           3.188
  20672565.276      890195.655 7    693657.43422        22.000           1.844
 91  7  2  3 46 14.9990000  0  3G17G23G 3
  20135160.159    -2485814.435 7  -1936997.06324        24.250           3.625
  20925958.464   -10771662.070 7  -8393493.94323        21.750           3.281
  20675890.464      907658.779 7    707265.04522        22.750           1.938
 91  7  2  3 46 29.9990000  0  3G17G23G 3
  20134589.722    -2488813.405 7  -1939333.91924        24.250           3.531
  20918504.042   -10810838.896 7  -8424021.31423        22.250           3.250
  20679237.362      925248.991 7    720971.68622        22.250           1.906
 91  7  2  3 46 44.9990000  0  3G17G23G 3
  20134033.112    -2491731.885 7  -1941608.05324        24.000           3.688
  20911069.597   -10849905.362 7  -8454462.70323        22.500           3.281
  20682610.503      942970.083 7    734780.32422        22.500           1.781
 91  7  2  3 46 59.9990000  0  3G17G23G 3
  20133493.878    -2494577.356 7  -1943825.30024        24.250           3.594
  20903656.136   -10888869.172 7  -8484824.07923        22.750           3.406
  20686004.925      960814.261 7    748684.86722        22.000           1.844
 91  7  2  3 47 14.9990000  0  3G17G23G 3
  20132965.425    -2497349.482 7  -1945985.39224        24.250           3.563
  20896260.144   -10927729.738 7  -8515105.02923        22.250           3.313
  20689424.269      978782.117 7    762685.78322        22.250           1.813
 91  7  2  3 47 29.9990000  0  3G17G23G 3
  20132451.987    -2500047.430 7  -1948087.67924        24.250           3.531
  20888885.144   -10966485.920 7  -8545304.62023        22.500           3.344
  20692865.776      996874.405 7    776783.66122        22.250           1.813
 91  7  2  3 47 44.9990000  0  3G17G23G 3
  20131952.644    -2502672.461 7  -1950133.14924        24.500           3.625
  20881530.612   -11005138.973 7  -8575423.86523        22.500           3.250
  20696333.425     1015090.057 7    790977.66622        22.250           1.813
 91  7  2  3 47 59.9990000  0  3G17G23G 3
  20131468.276    -2505222.736 7  -1952120.36924        24.500           3.594
  20874194.511   -11043686.829 7  -8605461.12823        22.500           3.375
  20699824.128     1033430.726 7    805269.09722        22.250           1.906
 91  7  2  3 48 14.9990000  0  3G17G23G 3
  20130998.534    -2507699.872 7  -1954050.59324        24.750           3.594
  20866878.487   -11082131.066 7  -8635417.65323        22.250           3.219
  20703337.331     1051894.857 7    819656.72422        22.250           1.844
 91  7  2  3 48 29.9990000  0  3G17G23G 3
  20130538.495    -2510104.919 7  -1955924.64924        24.500           3.719
  20859582.737   -11120472.524 7  -8665294.08523        22.750           3.219
  20706874.136     1070481.448 7    834139.76922        21.750           1.781
 91  7  2  3 48 44.9990000  0  3G17G23G 3
  20130096.300    -2512432.877 7  -1957738.64324        25.000           3.781
  20852306.519   -11158706.159 7  -8695086.51223        22.250           3.344
  20710435.120     1089195.437 7    848722.09022        21.750           1.750
 91  7  2  3 48 59.9990000  0  3G17G23G 3
  20129666.823    -2514686.591 7  -1959494.78424        24.750           3.656
  20845051.690   -11196834.958 7  -8724797.23523        22.750           3.219
  20714020.565     1108033.860 7    863401.37022        22.000           1.750
 91  7  2  3 49 14.9990000  0  3G17G23G 3
  20129253.151    -2516868.354 7  -1961194.86224        24.750           3.719
  20837815.472   -11234860.754 7  -8754427.70223        23.000           3.188
  20717629.620     1126994.357 7    878175.77822        21.750           1.781
 91  7  2  3 49 29.9990000  0  3G17G23G 3
  20128849.659    -2518980.965 7  -1962841.05224        24.500           3.688
  20830597.980   -11272786.537 7  -8783980.24123        23.000           3.250
  20721258.784     1146074.305 7    893043.26422        21.750           1.719
 91  7  2  3 49 44.9990000  0  3G17G23G 3
  20128462.089    -2521021.375 7  -1964430.98324        24.500           3.656
  20823403.222   -11310608.995 7  -8813452.25323        23.500           3.219
  20724910.878     1165276.322 7    908005.86522        21.750           1.750
 91  7  2  3 49 59.9990000  0  3G17G23G 3
  20128087.862    -2522987.733 7  -1965963.20824        24.750           3.625
  20816224.761   -11348325.725 7  -8842841.89323        23.250           3.250
  20728590.128     1184602.949 7    923065.55122        22.250           1.813
 91  7  2  3 50 14.9990000  0  3G17G23G 3
  20127728.573    -2524875.073 7  -1967433.86224        24.750           3.688
  20809067.355   -11385932.039 7  -8872145.48623        23.000           3.219
  20732290.972     1204058.909 7    938226.03622        22.000           1.719
 91  7  2  3 50 29.9990000  0  3G17G23G 3
  20127383.573    -2526687.143 7  -1968845.86624        24.000           3.656
  20801929.776   -11423431.527 7  -8901365.84723        22.500           3.313
  20736021.308     1223640.158 7    953484.15422        22.750           1.719
 91  7  2  3 50 44.9990000  0  3G17G23G 3
  20127052.097    -2528423.686 7  -1970199.01424        24.250           3.594
  20794815.925   -11460823.755 7  -8930502.62523        23.500           3.344
  20739767.839     1243346.929 7    968840.07022        22.250           1.656
 91  7  2  3 50 59.9990000  0  3G17G23G 3
  20126734.667    -2530083.416 7  -1971492.30724        24.000           3.656
  20787721.401   -11498107.287 7  -8959554.70423        23.000           3.156
  20743543.659     1263180.696 7    984294.94522        22.500           1.750
 91  7  2  3 51 14.9990000  0  3G17G23G 3
  20126435.745    -2531663.056 7  -1972723.19124        24.250           3.594
  20780645.417   -11535278.842 7  -8988519.53023        22.500           3.188
  20747344.464     1283144.715 7    999851.31522        22.750           1.750
 91  7  2  3 51 29.9990000  0  3G17G23G 3
  20126148.714    -2533169.151 7  -1973896.77524        24.750           3.656
  20773591.276   -11572344.943 7  -9017402.18823        22.000           3.250
  20751162.667     1303232.156 7   1015503.84722        22.250           1.531
 91  7  2  3 51 44.9990000  0  3G17G23G 3
  20125874.550    -2534603.764 7  -1975014.66024        24.250           3.688
  20766560.081   -11609307.354 7  -9046204.04123        22.750           3.156
  20755009.065     1323441.155 7   1031251.11622        22.250           1.563
 91  7  2  3 51 59.9990000  0  3G17G23G 3
  20125615.558    -2535966.319 7  -1976076.39724        24.500           3.563
  20759546.151   -11646165.253 7  -9074924.45823        22.750           3.313
  20758877.737     1343772.299 7   1047093.55322        22.500           1.625
 91  7  2  3 52 14.9990000  0  3G17G23G 3
  20125372.425    -2537255.749 7  -1977081.14924        24.500           3.625
  20752552.589   -11682917.645 7  -9103562.66423        22.500           3.188
  20762771.120     1364226.576 7   1063031.94622        22.750           1.563
 91  7  2  3 52 29.9990000  0  3G17G23G 3
  20125139.753    -2538470.893 7  -1978028.02124        24.250           3.656
  20745579.714   -11719563.247 7  -9132117.65023        23.000           3.188
  20766689.128     1384805.237 7   1079067.25722        23.000           1.594
 91  7  2  3 52 44.9990000  0  3G17G23G 3
  20124924.261    -2539609.006 7  -1978914.86024        24.500           3.594
  20738625.597   -11756099.463 7  -9160587.41323        22.500           3.188
  20770628.644     1405510.658 7   1095201.34722        23.000           1.656
 91  7  2  3 52 59.9990000  0  3G17G23G 3
  20124724.480    -2540669.999 7  -1979741.60724        24.500           3.656
  20731693.230   -11792525.848 7  -9188971.58523        22.750           3.156
  20774593.894     1426342.992 7   1111434.32722        23.000           1.563
 91  7  2  3 53 14.9990000  0  3G17G23G 3
  20124534.628    -2541659.406 7  -1980512.57424        24.250           3.531
  20724783.323   -11828847.794 7  -9217274.38123        22.750           3.250
  20778580.019     1447296.845 7   1127761.99922        22.750           1.563
 91  7  2  3 53 29.9990000  0  3G17G23G 3
  20124360.362    -2542569.882 7  -1981222.03824        24.250           3.625
  20717893.940   -11865057.881 7  -9245490.01523        23.000           3.219
  20782592.159     1468379.521 7   1144190.05622        22.750           1.563
 91  7  2  3 53 44.9990000  0  3G17G23G 3
  20124200.136    -2543409.814 7  -1981876.53624        24.250           3.563
  20711020.980   -11901164.302 7  -9273624.86623        22.750           3.188
  20786626.440     1489582.605 7   1160711.93022        23.000           1.594
 91  7  2  3 53 59.9990000  0  3G17G23G 3
  20124057.058    -2544170.243 7  -1982469.08524        24.750           3.625
  20704170.175   -11937158.213 7  -9301672.04123        22.750           3.188
  20790684.136     1510914.804 7   1177334.40122        22.500           1.625
 91  7  2  3 54 14.9990000  0  3G17G23G 3
  20123925.105    -2544854.657 7  -1983002.39724        24.000           3.719
  20697341.862   -11973042.905 7  -9329634.11523        22.750           3.219
  20794769.480     1532372.628 7   1194054.78522        23.250           1.625
 91  7  2  3 54 29.9990000  0  3G17G23G 3
  20123811.862    -2545458.198 7  -1983472.68824        24.250           3.594
  20690537.855   -12008813.348 7  -9357507.15723        23.750           3.250
  20798877.964     1553961.055 7   1210876.93021        22.500           1.438
 91  7  2  3 54 44.9990000  0  3G17G23G 3
  20123708.526    -2545992.830 7  -1983889.28424        24.250           3.594
  20683749.003   -12044481.443 7  -9385300.44923        23.250           3.063
  20803007.956     1575667.965 7   1227791.39622        22.750           1.625
 91  7  2  3 54 59.9990000  0  3G17G23G 3
  20123621.269    -2546452.910 7  -1984247.78624        24.500           3.531
  20676980.964   -12080041.263 7  -9413009.37323        23.000           3.156
  20807161.159     1597499.041 7   1244802.61722        22.250           1.563
 91  7  2  3 55 14.9990000  0  3G17G23G 3
  20123551.315    -2546835.916 7  -1984546.23124        24.750           3.594
  20670235.394   -12115490.302 7  -9440631.96923        22.750           3.156
  20811340.987     1619456.960 7   1261912.67222        22.500           1.531
 91  7  2  3 55 29.9990000  0  3G17G23G 3
  20123490.480    -2547141.615 7  -1984784.44424        25.000           3.656
  20663510.190   -12150828.333 7  -9468168.07123        22.750           3.219
  20815543.480     1641541.795 7   1279121.63022        22.500           1.656
 91  7  2  3 55 44.9990000  0  3G17G23G 3
  20123449.839    -2547370.922 7  -1984963.12424        24.750           3.625
  20656808.776   -12186056.146 7  -9495618.28223        23.500           3.281
  20819767.995     1663752.416 7   1296428.59922        22.000           1.500
 91  7  2  3 55 59.9990000  0  3G17G23G 3
  20123416.636    -2547524.839 7                        24.750
  20650124.222   -12221174.367 7  -9522983.10223        23.000           3.250
  20824022.378     1686087.801 7   1313832.78422        22.000           1.594
 91  7  2  3 56 14.9990000  0  3G17G23G 3
  20123405.550    -2547607.233 7                        24.500
  20643461.097   -12256187.373 7  -9550265.93623        23.500           3.281
  20828293.167     1708543.889 7   1331331.02722        21.500           1.531
 91  7  2  3 56 29.9990000  0  3G17G23G 3
  20123399.222    -2547621.135 7                        24.500
  20636817.948   -12291097.755 7  -9577468.79923        23.500           3.250
  20832590.394     1731117.823 7   1348921.08821        21.500           1.469
 91  7  2  3 56 44.9990000  0  3G17G23G 3
  20123408.823    -2547563.417 7                        24.250
  20630196.128   -12325902.081 7  -9604589.03223        24.000           3.375
  20836907.870     1753812.836 7   1366605.51022        21.500           1.500
 91  7  2  3 56 59.9990000  0  3G17G23G 3
  20123437.308    -2547434.467 7                        24.500
  20623595.347   -12360600.925 7  -9631627.07523        24.500           3.250
  20841250.042     1776628.390 7   1384383.85722        21.250           1.531
 91  7  2  3 57 14.9990000  0  3G17G23G 3
  20123475.401    -2547228.001 7                        24.500
  20617010.925   -12395187.760 7  -9658577.83523        24.000           3.344
  20845616.315     1799570.569 7   1402260.86022        21.500           1.500
 91  7  2  3 57 29.9990000  0  3G17G23G 3
  20123526.230    -2546949.578 7                        24.500
  20610450.128   -12429668.070 7  -9685445.59223        24.500           3.281
  20850003.230     1822633.662 7   1420232.10321        20.750           1.469
 91  7  2  3 57 44.9990000  0  3G17G23G 3
  20123593.433    -2546600.045 7  -1984362.45624        24.500           3.594
  20603911.026   -12464042.696 7  -9712230.99423        24.250           3.219
  20854416.456     1845817.152 7   1438297.14622        20.750           1.625
 91  7  2  3 57 59.9990000  0  3G17G23G 3
  20123672.878    -2546173.183 7  -1984029.83224        24.250           3.594
  20597387.409   -12498305.145 7  -9738928.98423        24.000           3.313
  20858849.370     1869126.935 7   1456460.60022        20.500           1.500
 91  7  2  3 58 14.9990000  0  3G17G23G 3
  20123770.378    -2545678.327 7  -1983644.22924        24.500           3.656
  20590889.534   -12532464.866 7  -9765546.92723        24.500           3.219
  20863306.823     1892553.547 7   1474715.09222        20.250           1.594
 91  7  2  3 58 29.9990000  0  3G17G23G 3
  20123877.456    -2545116.961 7  -1983206.80224        24.500           3.594
  20584407.448   -12566523.222 7  -9792085.88123        23.750           3.094
  20867788.144     1916095.552 7   1493059.50022        20.250           1.563
 91  7  2  3 58 44.9990000  0  3G17G23G 3
  20123997.120    -2544482.006 7  -1982712.03224        24.500           3.531
  20577945.480   -12600473.108 7  -9818540.30623        24.000           3.188
  20872291.659     1939759.961 7   1511499.29322        20.250           1.563
 91  7  2  3 58 59.9990000  0  3G17G23G 3
  20124133.917    -2543768.378 7  -1982155.95824        24.500           3.594
  20571505.292   -12634309.066 7  -9844905.97323        23.750           3.281
  20876820.573     1963551.888 7   1530038.43922        20.500           1.594
 91  7  2  3 59 14.9990000  0  3G17G23G 3
  20124282.175    -2542981.071 7  -1981542.47024        24.250           3.688
  20565091.089   -12668035.923 7  -9871186.60823        24.500           3.219
  20881371.440     1987466.627 7   1548673.28621        20.500           1.438
 91  7  2  3 59 29.9990000  0  3G17G23G 3
  20124444.112    -2542123.382 7  -1980874.14124        24.250           3.625
  20558691.284   -12701657.477 7  -9897385.21423        24.000           3.250
  20885943.276     2011499.951 7   1567400.54122        20.250           1.531
 91  7  2  3 59 44.9990000  0  3G17G23G 3
  20124622.433    -2541190.005 7  -1980146.83024        24.250           3.625
  20552315.144   -12735168.106 7  -9923497.38023        24.500           3.406
  20890542.925     2035657.482 7   1586224.58622        20.250           1.563
 91  7  2  3 59 59.9990000  0  3G17G23G 3
  20124813.097    -2540182.806 7  -1979361.99724        24.250           3.656
  20545960.065   -12768569.476 7  -9949524.40123        24.500           3.344
  20895160.901     2059937.466 7   1605144.03721        20.000           1.469
 91  7  2  4  0 14.9990000  0  4G17G21G23G 3
  20125021.198    -2539102.812 7  -1978520.44124        24.500           3.594
  24127129.815          -0.59013                         5.750
  20539622.151   -12801862.462 7  -9975466.97323        24.000           3.250
  20899804.284     2084338.763 7   1624158.01722        20.250           1.531
 91  7  2  4  0 29.9990000  0  4G17G21G23G 3
  20125241.144    -2537947.114 7  -1977619.89624        24.250           3.719
  24115501.581      -61109.988 4                         7.000
  20533309.722   -12835044.297 7 -10001322.92123        24.500           3.375
  20904470.698     2108864.098 7   1643268.65622        20.000           1.531
 91  7  2  4  0 44.9990000  0  4G17G21G23G 3
  20125475.058    -2536715.125 7  -1976659.91024        24.250           3.594
  24103876.511     -122182.492 4                         6.250
  20527015.605   -12868114.176 7 -10027091.64123        24.750           3.188
  20909161.534     2133513.988 6   1662476.35022        19.750           1.500
 91  7  2  4  0 59.9980000  0  4G17G21G23G 3
  20125722.334    -2535407.251 7  -1975640.77724        24.000           3.688
  24092265.443     -183214.090 4                         6.750
  20520743.943   -12901070.183 7 -10052771.62423        24.500           3.188
  20913876.490     2158286.464 7   1681779.56322        20.250           1.531
 91  7  2  4  1 14.9980000  0  4G17G21G23G 3
  20125985.912    -2534027.884 7  -1974565.94424        24.250           3.750
  24080653.029     -244217.254 4                         7.000
  20514492.522   -12933920.985 7 -10078369.63823        24.250           3.250
  20918614.584     2183180.200 7   1701177.27022        20.500           1.500
 91  7  2  4  1 29.9980000  0  4G17G21G23G 3
  20126261.443    -2532575.345 7  -1973434.08924        24.000           3.594
  24069054.740     -305186.007 4        -0.21031         6.750           0.156
  20508262.959   -12966662.737 7 -10103882.67423        24.500           3.125
  20923376.740     2208195.367 7   1720669.60022        20.750           1.531
 91  7  2  4  1 44.9980000  0  4G17G21G23G 3
  20126553.701    -2531053.193 7  -1972247.99224        24.500           3.531
  24057460.053     -366123.757 4    -47484.11021         6.750           0.219
  20502050.053   -12999298.997 7 -10129313.51523        23.500           3.219
  20928156.662     2233328.093 7   1740253.52121        20.750           1.406
 91  7  2  4  1 59.9980000  0  4G17G21G23G 3
  20126853.506    -2529458.597 7  -1971005.44724        24.000           3.500
  24045868.022     -427027.416 4    -94941.43121         6.750           0.281
  20495863.428   -13031826.659 7 -10154659.73123        24.500           2.969
  20932962.037     2258581.204 7   1759931.26821        20.750           1.438
 91  7  2  4  2 14.9980000  0  4G17G21G23G 3
  20127172.865    -2527792.146 7  -1969706.90624        24.250           3.500
  24034284.264     -487897.176 4   -142372.31121         6.750           0.438
  20489691.998   -13064246.149 7 -10179921.65923        24.000           3.063
  20937790.334     2283954.217 7   1779702.43121        20.750           1.438
 91  7  2  4  2 29.9980000  0  4G17G21G23G 3
  20127502.225    -2526054.141 7  -1968352.61024        24.500           3.594
  24022706.022     -548733.492 3   -189777.15621         6.000           0.250
  20483542.311   -13096558.185 7 -10205099.85323        24.000           3.156
  20942640.709     2309446.397 7   1799566.46121        20.750           1.438
 91  7  2  4  2 44.9980000  0  4G17G21G23G 3
  20127847.873    -2524246.477 7  -1966944.03824        24.500           3.594
  24011136.756     -609537.998 4   -237157.16721         7.000           0.375
  20477415.897   -13128764.512 7 -10230195.67723        24.250           3.156
  20947516.193     2335055.864 7   1819521.87922        20.750           1.531
 91  7  2  4  2 59.9980000  0  4G17G21G23G 3
  20128205.967    -2522365.005 7  -1965477.95524        24.750           3.531
  23999573.475     -670306.187 4   -284508.89221         6.500           0.406
  20471308.201   -13160860.776 7 -10255205.73623        24.000           3.094
  20952411.959     2360786.800 7   1839571.94521        21.000           1.344
 91  7  2  4  3 14.9980000  0  4G17G21G23G 3
  20128576.459    -2520407.597 7  -1963952.70224        24.000           3.625
  23988012.545     -731035.758 4   -331830.55121         6.250           0.313
  20465222.943   -13192844.603 7 -10280128.18323        24.750           3.125
  20957329.834     2386641.267 7   1859718.26721        21.250           1.344
 91  7  2  4  3 29.9980000  0  4G17G21G23G 3
  20128964.373    -2518372.548 7  -1962366.94724        24.000           3.656
  23976469.928     -791724.605 4   -379120.49521         7.250           0.344
  20459159.201   -13224714.055 7 -10304961.50423        24.750           3.156
  20962274.889     2412621.019 7   1879962.22021        21.250           1.438
 91  7  2  4  3 44.9980000  0  4G17G21G23G 3
  20129366.217    -2516270.595 7  -1960729.06724        24.500           3.500
  23964923.061     -852383.565 4   -426387.07621         6.750           0.344
  20453113.342   -13256479.947 7 -10329714.13123        24.750           3.219
  20967238.568     2438715.148 7   1900295.29921        21.000           1.375
 91  7  2  4  3 59.9980000  0  4G17G21G23G 3
  20129780.592    -2514094.350 7  -1959033.28824        24.500           3.531
  23953388.240     -913005.019 4   -473624.47321         7.000           0.313
  20447089.420   -13288135.022 7 -10354380.40323        24.500           3.219
  20972230.412     2464930.746 7   1920723.02321        21.250           1.375
 91  7  2  4  4 14.9980000  0  4G17G21G23G 3
  20130207.225    -2511849.051 7  -1957283.70524        24.500           3.625
  23941858.717     -973594.179 5   -520836.69321         7.750           0.313
  20441084.904   -13319684.481 7 -10378964.37723        24.500           3.156
  20977238.522     2491262.605 7   1941241.34421        21.000           1.281
 91  7  2  4  4 29.9980000  0  4G17G21G23G 3
  20130649.982    -2509525.037 7  -1955472.79224        24.750           3.719
  23930335.053    -1034140.895 4   -568015.90321         7.250           0.250
  20435101.740   -13351118.272 7 -10403458.21023        24.250           3.219
  20982272.897     2517720.284 7   1961857.70721        21.000           1.375
 91  7  2  4  4 44.9980000  0  4G17G21G23G 3
  20131104.045    -2507127.855 7  -1953604.85924        24.750           3.625
  23918826.154    -1094650.572 5   -615166.20421         8.750           0.375
  20429140.428   -13382442.356 7 -10427866.56523        23.750           3.031
  20987332.693     2544297.989 7   1982567.60421        21.000           1.313
 91  7  2  4  4 59.9980000  0  4G17G21G23G 3
  20131574.272    -2504659.299 7  -1951681.31224        24.500           3.625
  23907313.264    -1155124.691 5   -662288.75421         8.250           0.375
  20423201.779   -13413658.042 7 -10452190.44623        24.000           3.063
  20992410.154     2570994.290 7   2003369.90721        20.500           1.281
 91  7  2  4  5 14.9980000  0  4G17G21G23G 3
  20132059.725    -2502116.763 7  -1949700.11924        25.000           3.656
  23895817.123    -1215560.552 5   -709381.56921         9.000           0.406
  20417281.779   -13444762.670 7 -10476427.80323        23.250           2.969
  20997515.264     2597811.602 7   2024266.50121        21.000           1.344
 91  7  2  4  5 29.9980000  0  4G17G21G23G 3
  20132557.264    -2499501.988 7  -1947662.63724        25.000           3.625
  23884320.826    -1275959.847 5   -756445.90921         9.250           0.469
  20411384.295   -13475758.189 7 -10500580.14323        23.750           3.063
  21002640.701     2624747.803 7   2045255.74021        20.750           1.344
 91  7  2  4  5 44.9980000  0  4G17G21G23G 3
  20133067.834    -2496815.918 7  -1945569.58724        25.250           3.688
  23872832.654    -1336323.322 4   -803482.27121         7.250           0.250
  20405505.795   -13506645.313 7 -10524648.02423        23.500           3.031
  21007792.295     2651801.891 7   2066336.83421        21.250           1.281
 91  7  2  4  5 59.9980000  0  4G17G21G23G 3
  20133591.459    -2494057.101 7  -1943419.85424        24.750           3.688
  23861357.209    -1396648.981 5   -850489.17121         8.750           0.250
  20399651.607   -13537422.321 7 -10548630.10023        24.250           2.969
  21012961.006     2678975.671 7   2087511.20021        21.000           1.313
 91  7  2  4  6 14.9980000  0  4G17G21G23G 3
  20134130.740    -2491222.908 7  -1941211.38324        24.250           3.688
  23849881.553    -1456934.272 5   -897464.64721         7.750           0.281
  20393815.498   -13568086.870 7 -10572524.54923        24.750           3.031
  21018155.193     2706271.133 7   2108780.37921        21.000           1.281
 91  7  2  4  6 29.9980000  0  4G17G21G23G 3
  20134684.639    -2488315.420 7  -1938945.80824        24.500           3.688
  23838417.920    -1517181.190 4   -944410.19021         7.250           0.281
  20388001.240   -13598640.988 7 -10596332.94323        24.250           3.031
  21023371.326     2733686.208 7   2130142.76221        20.750           1.188
 91  7  2  4  6 44.9980000  0  4G17G21G23G 3
  20135250.568    -2485340.611 7  -1936627.77124        24.500           3.688
  23826965.482    -1577395.402 5   -991330.23021         9.250           0.281
  20382206.576   -13629090.442 7 -10620059.77723        24.750           3.188
  21028609.272     2761214.903 7   2151593.68021        20.500           1.156
 91  7  2  4  6 59.9980000  0  4G17G21G23G 3
  20135829.436    -2482292.221 7  -1934252.40124        24.750           3.781
  23815509.912    -1637570.400 5  -1038219.77221         8.750           0.406
  20376432.061   -13659428.883 7 -10643700.10123        23.750           3.156
  21033870.357     2788863.522 7   2173138.04421        20.250           1.156
 91  7  2  4  7 14.9980000  0  4G17G21G23G 3
  20136425.842    -2479169.517 7  -1931819.12124        25.000           3.688
  23804064.998    -1697705.353 5  -1085078.08621         8.750           0.375
  20370682.178   -13689655.472 7 -10667253.25523        24.500           3.094
  21039156.193     2816632.641 7   2194776.30721        20.250           1.219
 91  7  2  4  7 29.9980000  0  4G17G21G23G 3
  20137032.404    -2475975.561 7  -1929330.31724        24.750           3.594
  23792631.537    -1757803.256 5  -1131907.50321         9.250           0.281
  20364947.373   -13719773.608 7 -10690721.89723        23.500           3.281
  21044461.139     2844518.766 7   2216505.73921        20.000           1.188
 91  7  2  4  7 44.9980000  0  4G17G21G23G 3
  20137653.092    -2472709.883 7  -1926785.63124        24.500           3.656
  23781202.170    -1817863.162 5  -1178707.35321         9.000           0.281
  20359238.873   -13749782.288 7 -10714105.24723        24.250           3.156
  21049791.131     2872522.548 7   2238326.84921        20.000           1.188
 91  7  2  4  7 59.9980000  0  4G17G21G23G 3
  20138290.209    -2469369.649 7  -1924182.85224        24.750           3.594
  23769780.545    -1877882.032 5  -1225475.19021         9.250           0.375
  20353551.592   -13779678.688 7 -10737401.11323        24.500           3.031
  21055143.311     2900646.905 7   2260241.92221        20.000           1.250
 91  7  2  4  8 14.9980000  0  4G17G21G23G 3
  20138938.482    -2465956.478 7  -1921523.23624        25.000           3.688
  23758363.217    -1937861.555 5  -1272212.41521         9.000           0.250
  20347882.482   -13809464.717 7 -10760610.99023        24.000           3.156
  21060519.186     2928889.829 7   2282249.37821        20.500           1.219
 91  7  2  4  8 29.9980000  0  4G17G21G23G 3
  20139603.053    -2462466.818 7  -1918804.02424        24.750           3.625
  23746957.389    -1997797.877 5  -1318915.91821         8.500           0.406
  20342236.803   -13839136.413 7 -10783731.77723        24.500           3.000
  21065917.514     2957254.787 7   2304351.92821        20.500           1.281
 91  7  2  4  8 44.9980000  0  4G17G21G23G 3
  20140280.818    -2458905.327 7  -1916028.83424        24.750           3.656
  23735561.311    -2057695.436 5  -1365589.23821         8.750           0.375
  20336610.842   -13868698.310 7 -10806767.00023        24.500           3.063
  21071336.076     2985737.168 7   2326545.96821        20.500           1.219
 91  7  2  4  8 59.9980000  0  4G17G21G23G 3
  20140971.084    -2455278.791 7  -1913202.95824        25.000           3.625
  23724168.811    -2117560.931 5  -1412237.56921         8.500           0.406
  20331004.857   -13898157.357 7 -10829722.08023        24.250           3.125
  21076776.678     3014330.042 7   2348826.11021        20.250           1.250
 91  7  2  4  9 14.9980000  0  4G17G21G23G 3
  20141674.670    -2451579.750 7  -1910320.58124        24.750           3.719
  23712781.850    -2177386.436 5  -1458854.77121         8.000           0.375
  20325421.678   -13927506.027 7 -10852591.15423        25.250           3.031
  21082239.865     3043040.821 7   2371198.13321        20.000           1.219
 91  7  2  4  9 29.9980000  0  4G17G21G23G 3
  20142394.248    -2447802.157 7  -1907376.99724        25.250           3.656
  23701406.857    -2237166.011 5  -1505436.14121         7.750           0.438
  20319855.100   -13956738.475 7 -10875369.67923        24.000           3.063
  21087725.475     3071875.195 6   2393666.45121        19.750           1.219
 91  7  2  4  9 44.9980000  0  4G17G21G23G 3
  20143126.381    -2443952.161 7  -1904376.99724        24.500           3.781
  23690039.100    -2296905.632 5  -1551986.39621         8.500           0.313
  20314316.061   -13985860.633 7 -10898062.24323        25.500           2.938
  21093237.647     3100826.919 6   2416226.22321        19.750           1.313
 91  7  2  4  9 59.9980000  0  4G17G21G23G 3
  20143873.639    -2440031.968 7  -1901322.29524        25.000           3.906
  23678679.873    -2356607.069 5  -1598506.93121         8.250           0.438
  20308793.990   -14014874.408 7 -10920670.36923        24.750           3.125
  21098766.162     3129893.897 6   2438875.79821        19.750           1.281
 91  7  2  4 10 14.9980000  0  4G17G21G23G 3
  20144629.943    -2436041.532 7  -1898212.85824        24.500           3.656
  23667328.568    -2416270.305 5  -1644997.65121         8.500           0.375
  20303295.272   -14043779.908 7 -10943194.12323        25.000           3.063
  21104320.990     3159075.918 7   2461615.00821        20.000           1.156
 91  7  2  4 10 29.9980000  0  4G17G21G23G 3
  20145405.045    -2431975.989 7  -1895044.89324        25.000           3.719
  23655981.053    -2475890.172 5  -1691454.59021         8.000           0.344
  20297814.272   -14072572.380 7 -10965629.80723        24.500           3.063
  21109896.381     3188377.661 7   2484447.51721        20.250           1.313
 91  7  2  4 10 44.9980000  0  4G17G21G23G 3
  20146192.123    -2427840.787 7  -1891822.65624        25.000           3.750
  23644638.537    -2535471.981 5  -1737881.88821         7.750           0.219
  20292355.561   -14101256.902 7 -10987981.37223        24.500           3.094
  21115493.920     3217793.704 7   2507369.08721        20.000           1.281
 91  7  2  4 10 59.9980000  0  4G17G21G23G 3
  20146995.076    -2423631.221 7  -1888542.47924        25.500           3.750
  23633310.365    -2595010.707 5  -1784275.59421         8.000           0.375
  20286917.357   -14129828.825 7 -11010245.20423        24.000           3.063
  21121114.076     3247328.761 7   2530383.39421        20.000           1.219
 91  7  2  4 11 14.9980000  0  4G17G21G23G 3
  20147807.693    -2419353.920 7  -1885209.52524        25.000           3.688
  23621982.982    -2654513.008 4  -1830640.92221         7.250           0.406
  20281502.498   -14158294.959 7 -11032426.59123        25.000           3.031
  21126754.529     3276975.818 7   2553484.98321        20.000           1.219
 91  7  2  4 11 29.9980000  0  4G17G21G23G 3
  20148634.951    -2415012.332 7  -1881826.47424        25.250           3.688
  23610670.654    -2713982.085 5  -1876980.32521         7.750           0.313
  20276103.990   -14186658.514 7 -11054528.04123        24.750           3.031
  21132420.162     3306731.501 7   2576671.19921        20.000           1.281
 91  7  2  4 11 44.9980000  0  4G17G21G23G 3
  20149477.326    -2410592.139 7  -1878382.16524        25.000           3.656
  23599366.381    -2773403.422 5  -1923282.58821         8.500           0.313
  20270729.623   -14214905.086 7 -11076538.32723        25.250           3.031
  21138105.389     3336609.752 6   2599952.93221        19.750           1.219
 91  7  2  4 11 59.9980000  0  4G17G21G23G 3
  20150330.670    -2406103.156 7  -1874884.26124        25.250           3.781
  23588066.701    -2832786.421 5  -1969554.93421         8.500           0.250
  20265374.459   -14243044.458 7 -11098465.08623        25.500           3.156
  21143809.678     3366600.923 6   2623322.66021        19.500           1.156
 91  7  2  4 12 14.9980000  0  4G17G21G23G 3
  20151197.420    -2401540.613 7  -1871329.02324        25.000           3.750
  23576770.803    -2892126.290 5  -2015793.72521         8.500           0.281
  20260042.842   -14271071.857 7 -11120304.59523        25.750           3.063
  21149540.592     3396709.617 6   2646783.95521        19.750           1.125
 91  7  2  4 12 29.9980000  0  4G17G21G23G 3
  20152078.365    -2396906.536 7  -1867718.05324        25.250           3.844
  23565485.982    -2951425.166 5  -2062000.52321         8.250           0.344
  20254727.397   -14298989.336 7 -11142058.46823        25.000           3.125
  21155293.514     3426933.522 7   2670335.02921        20.250           1.281
 91  7  2  4 12 44.9980000  0  4G17G21G23G 3
  20152972.061    -2392203.922 7  -1864053.68824        25.000           3.875
  23554210.342    -3010685.472 5  -2108177.28621         7.750           0.281
  20249437.787   -14326799.810 7 -11163728.94523        25.250           3.031
  21161066.467     3457269.670 7   2693973.56121        20.000           1.156
 91  7  2  4 12 59.9980000  0  4G17G21G23G 3
  20153881.647    -2387427.201 7  -1860331.57124        25.250           3.813
  23542942.756    -3069901.741 5  -2154319.72021         8.500           0.375
  20244166.490   -14354497.817 7 -11185311.79323        25.000           3.094
  21166860.115     3487723.339 7   2717703.67621        20.000           1.219
 91  7  2  4 13 14.9980000  0  4G17G21G23G 3
  20154807.342    -2382577.297 7  -1856552.41824        25.500           3.844
  23531681.537    -3129074.451 5  -2200428.22221         9.000           0.375
  20238916.389   -14382083.999 7 -11206807.50523        25.000           3.156
  21172678.279     3518293.677 6   2741524.69721        19.500           1.219
 91  7  2  4 13 29.9980000  0  4G17G21G23G 3
  20155743.912    -2377656.687 7  -1852718.17324        25.500           3.844
  23520426.990    -3188206.005 5  -2246504.68821         8.250           0.406
  20233687.998   -14409560.786 7 -11228217.97623        25.250           3.188
  21178515.936     3548977.965 6   2765434.50721        19.500           1.094
 91  7  2  4 13 44.9980000  0  4G17G21G23G 3
  20156692.850    -2372662.252 7  -1848826.40024        25.000           3.906
  23509186.701    -3247293.036 5  -2292546.42921         8.500           0.344
  20228478.381   -14436925.138 7 -11249540.83923        24.500           3.250
  21184378.186     3579779.369 6   2789435.58121        19.500           1.094
 91  7  2  4 13 59.9980000  0  4G17G21G23G 3
  20157655.639    -2367597.372 7  -1844879.73524        25.000           3.813
  23497950.357    -3306338.936 5  -2338556.12921         8.250           0.531
  20223294.381   -14464180.430 7 -11270778.71423        25.250           3.219
  21190261.232     3610693.970 6   2813524.86321        19.000           1.125
 91  7  2  4 14 14.9980000  0  4G17G21G23G 3
  20158633.037    -2362461.524 7  -1840877.77424        25.000           3.781
  23486723.334    -3365342.805 5  -2384533.08521         8.000           0.406
  20218128.545   -14491326.079 7 -11291931.15023        25.000           3.156
  21196165.678     3641722.500 6   2837702.92121        19.250           1.125
 91  7  2  4 14 29.9980000  0  4G17G21G23G 3
  20159623.397    -2357257.462 7  -1836822.66824        25.000           3.906
  23475501.490    -3424307.120 5  -2430479.18521         8.500           0.406
  20212984.100   -14518364.888 7 -11313000.34123        25.500           3.313
  21202091.670     3672862.086 6   2861967.50621        19.000           1.063
 91  7  2  4 14 44.9980000  0  4G17G21G23G 3
  20160625.701    -2351984.860 7  -1832714.14924        25.000           3.781
  23464288.287    -3483231.587 5  -2476394.25721         8.250           0.406
  20207858.959   -14545296.299 7 -11333985.85323        25.250           3.125
  21208037.928     3704112.931 6   2886318.79821        18.500           1.031
 91  7  2  4 14 59.9980000  0  4G17G21G23G 3
  20161645.232    -2346638.794 7  -1828548.37724        25.750           3.844
  23453084.647    -3542111.085 5  -2522274.30221         8.500           0.344
  20202754.045   -14572115.559 7 -11354883.96823        24.750           3.031
  21214008.209     3735479.614 6   2910760.35321        18.750           1.063
 91  7  2  4 15 14.9980000  0  4G17G21G23G 3
  20162674.647    -2341223.220 7  -1824328.45424        25.000           3.906
  23441885.811    -3600949.443 5  -2568122.29221         9.250           0.438
  20197671.811   -14598826.494 7 -11375697.66623        24.500           3.094
  21219999.022     3766958.076 6   2935288.99821        18.500           1.156
 91  7  2  4 15 29.9980000  0  4G17G21G23G 3
  20163721.623    -2335738.515 7  -1820054.66424        25.500           3.844
  23430696.936    -3659746.943 5  -2613938.43121         8.750           0.469
  20192609.170   -14625429.580 7 -11396427.32623        25.000           3.031
  21226010.889     3798547.801 6   2959904.35221        18.500           1.031
 91  7  2  4 15 44.9980000  0  4G17G21G23G 3
  20164776.209    -2330181.169 7  -1815724.26524        25.250           3.938
  23419517.709    -3718499.697 5  -2659719.68021         8.250           0.406
  20187565.772   -14651921.304 7 -11417070.21123        24.750           3.125
  21232043.443     3830252.258 6   2984609.10621        18.500           1.031
 91  7  2  4 15 59.9980000  0  4G17G21G23G 3
  20165847.795    -2324554.031 7  -1811339.49324        25.250           3.875
  23408344.631    -3777210.471 5  -2705468.21821         8.000           0.563
  20182548.639   -14678304.468 7 -11437628.49523        25.500           3.156
  21238096.764     3862068.219 6   3009400.74521        18.250           1.000
 91  7  2  4 16 14.9980000  0  4G17G21G23G 3
  20166932.412    -2318854.516 7  -1806898.31324        25.250           3.906
  23397182.061    -3835876.353 5  -2751181.78321         8.750           0.469
  20177546.639   -14704576.332 7 -11458100.06323        24.750           3.188
  21244174.732     3893998.445 6   3034281.42521        18.250           0.938
 91  7  2  4 16 29.9980000  0  4G17G21G23G 3
  20168030.584    -2313081.371 7  -1802399.73424        25.500           3.969
  23386025.904    -3894495.783 5  -2796859.19421         8.750           0.313
  20172570.170   -14730735.389 7 -11478483.71623        25.250           3.156
  21250273.662     3926044.072 6   3059252.00321        18.000           0.906
 91  7  2  4 16 44.9980000  0  4G17G21G23G 3
  20169141.045    -2307235.280 7  -1797844.34024        25.250           3.906
  23374880.647    -3953069.359 5  -2842500.86421         8.250           0.375
  20167613.490   -14756782.573 7 -11498780.21923        25.500           3.156
  21256391.764     3958204.230 6   3084311.84121        18.000           0.969
 91  7  2  4 16 59.9980000  0  4G17G21G23G 3
  20170267.365    -2301320.109 7  -1793235.11924        25.000           3.969
  23363741.295    -4011600.834 5  -2888109.71721         8.500           0.375
  20162676.990   -14782721.687 7 -11518992.50423        25.250           3.219
  21262532.303     3990474.757 6   3109457.67921        18.000           1.000
 91  7  2  4 17 14.9980000  0  4G17G21G23G 3
  20171408.545    -2295336.836 7  -1788572.84124        25.000           3.875
  23352612.467    -4070091.068 5  -2933686.42221         9.000           0.438
  20157763.123   -14808553.724 7 -11539121.34623        25.250           3.188
  21268693.225     4022854.491 6   3134688.62521        17.500           0.938
 91  7  2  4 17 29.9980000  0  4G17G21G23G 3
  20172559.873    -2289279.605 7  -1783852.92424        24.750           3.750
  23341486.607    -4128533.809 5  -2979226.13521         8.750           0.531
  20152865.373   -14834272.632 7 -11559162.04323        24.750           3.219
  21274874.928     4055349.501 6   3160009.37921        17.250           0.969
 91  7  2  4 17 44.9980000  0  4G17G21G23G 3
  20173726.982    -2283149.531 7  -1779076.24224        25.000           3.906
  23330376.756    -4186930.317 5  -3024729.80021         8.500           0.594
  20147995.982   -14859879.851 7 -11579115.70523        25.250           3.063
  21281083.662     4087958.289 6   3185418.80521        17.500           1.000
 91  7  2  4 17 59.9980000  0  4G17G21G23G 3
  20174906.311    -2276947.123 7  -1774243.19224        24.500           3.750
  23319276.350    -4245280.824 5  -3070197.62221         9.500           0.500
  20143143.428   -14885375.832 7 -11598982.69923        25.000           3.125
  21287308.959     4120680.109 6   3210916.30021        17.250           0.969
 91  7  2  4 18 14.9980000  0  4G17G21G23G 3
  20176099.584    -2270679.396 7  -1769359.25424        25.000           3.875
  23308176.600    -4303592.027 5  -3115634.85421         9.500           0.438
  20138309.818   -14910767.272 7 -11618768.23523        24.500           3.094
  21293556.576     4153507.916 6   3236496.38821        17.250           0.969
 91  7  2  4 18 29.9980000  0  4G17G21G23G 3
  20177304.381    -2264344.087 7  -1764422.65324        24.750           3.750
  23297088.795    -4361861.487 5  -3161039.54421         9.250           0.344
  20133501.014   -14936051.993 7 -11638470.60923        25.250           3.063
  21299822.834     4186443.795 6   3262160.67321        17.250           0.969
 91  7  2  4 18 44.9980000  0  4G17G21G23G 3
  20178523.428    -2257936.613 7  -1759429.82024        24.750           3.813
  23286009.209    -4420084.619 5  -3206408.10221         8.750           0.344
  20128708.318   -14961225.574 7 -11658086.38723        25.000           3.000
  21306113.264     4219492.277 6   3287912.71421        18.000           0.969
 91  7  2  4 18 59.9980000  0  4G17G21G23G 3
  20179758.436    -2251459.491 7  -1754382.70524        25.000           3.875
  23274938.943    -4478263.746 5  -3251742.38121         9.500           0.375
  20123939.561   -14986290.424 7 -11677617.41723        25.000           3.031
  21312420.498     4252650.441 6   3313750.22021        17.750           0.813
 91  7  2  4 19 14.9980000  0  4G17G21G23G 3
  20181002.943    -2244910.069 7  -1749279.26324        24.750           3.875
  23263878.615    -4536395.902 5  -3297040.09621        10.000           0.344
  20119192.826   -15011243.602 7 -11697061.44023        25.250           3.031
  21318753.967     4285921.194 6   3339675.46121        17.500           1.000
 91  7  2  4 19 29.9980000  0  4G17G21G23G 3
  20182264.287    -2238287.738 7  -1744119.00324        24.750           3.813
  23252823.654    -4594480.464 5  -3342300.68921         9.750           0.469
  20114462.920   -15036084.793 7 -11716418.22523        25.000           3.000
  21325107.225     4319304.719 6   3365688.57421        18.000           0.875
 91  7  2  4 19 44.9980000  0  4G17G21G23G 3
  20183536.139    -2231594.368 7  -1738903.38724        25.250           3.938
  23241780.170    -4652518.981 5  -3387525.42821         8.750           0.438
  20109759.576   -15060815.755 7 -11735689.10023        25.250           3.031
  21331479.936     4352798.949 6   3391787.95421        17.750           0.906
 91  7  2  4 19 59.9980000  0  4G17G21G23G 3
  20184825.342    -2224827.736 7  -1733630.68224        25.250           3.844
  23230741.498    -4710509.270 5  -3432712.58021         8.500           0.406
  20105074.303   -15085434.382 7 -11754872.43323        25.250           3.000
  21337877.342     4386405.963 6   3417975.21121        18.000           0.844
 91  7  2  4 20 14.9980000  0  4G17G21G23G 3
  20186125.951    -2217989.385 7  -1728302.09624        25.750           3.844
  23219716.186    -4768452.562 5  -3477863.11321         8.500           0.406
  20100408.326   -15109942.274 7 -11773969.46923        24.250           3.094
  21344292.623     4420124.124 6   3444249.07421        17.750           0.938
 91  7  2  4 20 29.9980000  0  4G17G21G23G 3
  20187440.420    -2211080.565 7  -1722918.59624        25.000           3.844
  23208700.428    -4826349.916 5  -3522977.82621         9.750           0.469
  20095766.936   -15134340.445 7 -11792980.99623        25.000           2.969
  21350728.787     4453952.055 6   3470608.47921        18.000           0.844
 91  7  2  4 20 44.9980000  0  4G17G21G23G 3
  20188767.193    -2204100.994 7  -1717479.96824        25.250           3.656
  23197693.545    -4884200.722 5  -3568056.31221        10.000           0.469
  20091143.709   -15158628.382 7 -11811906.64323        24.500           3.000
  21357187.451     4487890.029 6   3497053.62221        18.250           0.969
 91  7  2  4 20 59.9980000  0  4G17G21G23G 3
  20190111.732    -2197052.062 7  -1711987.28724        25.750           3.750
  23186693.061    -4942006.538 5  -3613099.70121         9.000           0.531
  20086543.600   -15182808.017 7 -11830747.90523        24.250           3.031
  21363665.568     4521936.116 6   3523583.00721        17.750           0.906
 91  7  2  4 21 14.9980000  0  4G17G21G23G 3
  20191463.881    -2189934.199 7  -1706440.90124        25.750           3.750
  23175699.061    -4999767.415 5  -3658108.06821         9.250           0.563
  20081962.615   -15206879.463 7 -11849504.87223        24.500           2.969
  21370163.264     4556089.980 6   3550196.38321        17.500           0.938
 91  7  2  4 21 29.9980000  0  4G17G21G23G 3
  20192831.647    -2182745.647 7  -1700839.42624        25.500           3.781
  23164717.037    -5057481.389 5  -3703079.92121         9.750           0.438
  20077403.514   -15230840.937 7 -11868176.15123        24.750           2.875
  21376680.584     4590353.240 6   3576895.00221        17.500           1.000
 91  7  2  4 21 44.9980000  0  4G17G21G23G 3
  20194214.748    -2175488.943 7  -1695184.85324        25.250           3.688
  23153742.365    -5115150.698 5  -3748016.95321         9.500           0.500
  20072862.873   -15254694.843 7 -11886763.61423        24.250           2.969
  21383225.904     4624723.185 6   3603676.75821        18.250           0.969
 91  7  2  4 21 59.9980000  0  4G17G21G23G 3
  20195607.857    -2168158.304 7  -1689472.66424        24.750           3.844
  23142778.318    -5172769.806 5  -3792914.86321         9.500           0.438
  20068346.701   -15278435.757 7 -11905263.02723        24.750           2.875
  21389787.107     4659205.173 6   3630545.81121        18.250           0.969
 91  7  2  4 22 14.9980000  0  4G17G21G23G 3
  20197015.404    -2160760.759 7  -1683708.36224        24.750           3.688
  23131821.936    -5230345.459 5  -3837778.93321        10.250           0.469
  20063848.482   -15302070.635 7 -11923679.80523        24.500           2.906
  21396369.545     4693792.133 6   3657496.65721        18.500           0.938
 91  7  2  4 22 29.9980000  0  4G17G21G23G 3
  20198436.514    -2153294.143 7  -1677890.22024        25.000           3.781
  23120871.842    -5287875.270 5  -3882607.27821        10.000           0.406
  20059372.022   -15325597.255 7 -11942012.21723        24.250           2.938
  21402969.639     4728486.098 6   3684530.88621        18.500           0.938
 91  7  2  4 22 44.9980000  0  4G17G21G23G 3
  20199871.256    -2145755.005 7  -1672015.56824        25.000           3.813
  23109935.482    -5345355.491 5  -3927396.97421         9.500           0.500
  20054915.373   -15349012.192 7 -11960257.59923        24.500           2.875
  21409594.201     4763290.372 6   3711651.06721        18.250           0.813
 91  7  2  4 22 59.9980000  0  4G17G21G23G 3
  20201320.225    -2138146.297 7  -1666086.71024        25.500           3.844
  23099005.107    -5402788.835 5  -3972150.12621         9.250           0.531
  20050481.318   -15372318.059 7 -11978417.98223        24.250           2.813
  21416238.092     4798202.083 6   3738854.97321        17.750           0.875
 91  7  2  4 23 14.9980000  0  4G17G21G23G 3
  20202779.717    -2130471.396 7  -1660106.27624        25.250           3.813
  23088087.889    -5460178.616 5  -4016869.35121        11.000           0.531
  20046064.779   -15395518.530 7 -11996496.23323        24.000           2.781
  21422897.873     4833217.356 6   3766139.56721        17.500           0.969
 91  7  2  4 23 29.9980000  0  4G17G21G23G 3
  20204256.232    -2122723.437 7  -1654068.90924        25.750           3.813
  23077177.779    -5517517.794 5  -4061549.13321         9.750           0.500
  20041671.615   -15418606.712 7 -12014486.98423        24.000           2.875
  21429584.795     4868343.129 6   3793510.26821        17.750           0.969
 91  7  2  4 23 44.9980000  0  4G17G21G23G 3
  20205741.943    -2114903.586 7  -1647975.52924        25.000           3.750
  23066270.412    -5574807.331 5  -4106190.25921         9.750           0.375
  20037299.561   -15441583.658 7 -12032391.06423        24.500           2.875
  21436289.248     4903577.956 6   3820965.96021        17.750           0.906
 91  7  2  4 23 59.9980000  0  4G17G21G23G 3
  20207244.404    -2107011.529 7  -1641825.87224        25.250           3.938
  23055382.561    -5632046.974 5  -4150792.49421        10.750           0.438
  20032947.764   -15464449.339 7 -12050208.45723        24.000           2.813
  21443015.092     4938921.681 6   3848506.49721        17.750           0.906
 91  7  2  4 24 14.9980000  0  4G17G21G23G 3
  20208757.842    -2099052.295 7  -1635623.88124        24.750           3.750
  23044498.389    -5689241.414 5  -4195359.49821        10.000           0.625
  20028618.732   -15487208.663 7 -12067942.99223        25.000           2.844
  21449761.037     4974369.315 6   3876127.99721        17.750           0.938
 91  7  2  4 24 29.9980000  0  4G17G21G23G 3
  20210285.951    -2091021.322 7  -1629365.97424        24.750           3.750
  23033622.772    -5746385.825 5  -4239887.52321        10.250           0.438
  20024307.756   -15509856.980 7 -12085591.04623        24.750           2.688
  21456525.178     5009925.662 6   3903834.21321        17.500           0.906
 91  7  2  4 24 44.9980000  0  4G17G21G23G 3
  20211827.717    -2082922.017 7  -1623054.83024        24.750           3.875
  23022756.022    -5803483.428 5  -4284379.09621        11.000           0.531
  20020018.342   -15532397.666 7 -12103155.23223        24.750           2.813
  21463311.772     5045586.606 6   3931621.93421        17.750           0.844
 91  7  2  4 24 59.9980000  0  4G17G21G23G 3
  20213383.600    -2074749.782 7  -1616686.85424        25.000           3.781
  23011901.553    -5860529.622 5  -4328830.56521        11.500           0.406
  20015749.920   -15554826.459 7 -12120632.21923        24.250           2.813
  21470119.709     5081356.575 6   3959494.61121        17.500           0.844
 91  7  2  4 25 14.9980000  0  4G17G21G23G 3
  20214954.045    -2066500.811 7  -1610259.07924        25.500           3.719
  23001055.334    -5917520.471 5  -4373238.95321        10.500           0.469
  20011502.420   -15577139.211 7 -12138018.78023        24.250           2.781
  21476946.522     5117239.330 6   3987455.17621        17.250           0.875
 91  7  2  4 25 29.9980000  0  4G17G21G23G 3
  20216536.139    -2058183.232 7  -1603777.85024        25.250           3.750
  22990219.170    -5974463.893 5  -4417610.36121        10.250           0.563
  20007277.795   -15599343.995 7 -12155321.20023        24.500           2.781
  21483795.756     5153226.834 6   4015497.35521        17.250           0.750
 91  7  2  4 25 44.9980000  0  4G17G21G23G 3
  20218132.943    -2049795.111 7  -1597241.65924        24.750           3.719
  22979393.287    -6031357.401 5  -4461942.88921        10.250           0.500
  20003074.522   -15621438.860 7 -12172537.97023        24.750           2.813
  21490667.092     5189320.809 6   4043622.50421        17.750           0.875
 91  7  2  4 25 59.9980000  0  4G17G21G23G 3
  20219742.475    -2041334.009 7  -1590648.59724        25.000           3.594
  22968577.061    -6088198.797 5  -4506234.79321        11.000           0.531
  19998891.584   -15643421.625 7 -12189667.38723        24.750           2.844
  21497552.842     5225523.232 6   4071832.15921        17.500           0.938
 91  7  2  4 26 14.9980000  0  4G17G21G23G 3
  20221364.920    -2032804.940 7  -1584002.56724        25.000           3.656
  22957769.326    -6144992.922 5  -4550489.89221        11.500           0.656
  19994727.631   -15665297.432 7 -12206713.45923        24.750           2.750
  21504460.459     5261828.954 6   4100122.30421        17.250           0.844
 91  7  2  4 26 29.9980000  0  4G17G21G23G 3
  20223001.967    -2024202.565 7  -1577299.42424        24.750           3.656
  22946970.147    -6201734.368 5  -4594703.91221        10.250           0.563
  19990586.123   -15687060.740 7 -12223671.86023        25.000           2.750
  21511391.514     5298242.982 6   4128496.85021        17.000           0.813
 91  7  2  4 26 44.9980000  0  4G17G21G23G 3
  20224652.834    -2015532.543 7  -1570543.57024        25.500           3.656
  22936180.287    -6258428.297 5  -4638880.92321        10.250           0.500
  19986465.178   -15708717.212 7 -12240547.02823        24.500           2.844
  21518339.365     5334759.822 6   4156951.49421        17.000           0.844
 91  7  2  4 26 59.9980000  0  4G17G21G23G 3
  20226314.826    -2006794.592 7  -1563734.77624        25.250           3.750
  22925403.475    -6315074.398 5  -4683020.67421        10.750           0.469
  19982365.279   -15730266.538 7 -12257338.69923        25.000           2.719
  21525311.990     5371379.321 6   4185486.14921        17.000           0.844
 91  7  2  4 27 14.9980000  0  4G17G21G23G 3
  20227990.287    -1997985.942 7  -1556870.89624        25.000           3.563
  22914633.467    -6371669.818 5  -4727120.92821        10.750           0.500
  19978284.779   -15751706.039 7 -12274044.79923        25.000           2.813
  21532296.936     5408104.339 6   4214103.02221        16.750           0.844
 91  7  2  4 27 29.9980000  0  4G17G21G23G 3
  20229678.756    -1989111.048 7  -1549955.39524        25.250           3.656
  22903874.725    -6428218.902 5  -4771185.08121        11.500           0.594
  19974225.428   -15773040.153 7 -12290668.77523        24.750           2.813
  21539304.295     5444929.945 6   4242798.26521        17.000           0.875
 91  7  2  4 27 44.9980000  0  4G17G21G23G 3
  20231382.256    -1980164.165 7  -1542983.80124        25.000           3.594
  22893123.904    -6484715.785 5  -4815208.54221        11.750           0.625
  19970186.232   -15794263.361 7 -12307206.34523        24.750           2.625
  21546333.522     5481861.722 6   4271576.24421        17.000           0.781
 91  7  2  4 27 59.9980000  0  4G17G21G23G 3
  20233097.772    -1971143.751 7  -1535954.90324        25.250           3.594
  22882381.475    -6541158.578 5  -4859189.86521        10.750           0.781
  19966169.412   -15815373.944 7 -12323656.14223        25.000           2.656
  21553380.061     5518901.104 6   4300438.06621        16.500           0.844
 91  7  2  4 28 14.9980000  0  4G17G21G23G 3
  20234831.147    -1962052.772 7  -1528871.02424        25.250           3.656
  22871649.459    -6597550.135 5  -4903131.24821        11.500           0.563
  19962174.404   -15836374.883 7 -12340020.50323        24.750           2.688
  21560449.240     5556045.009 6   4329381.34621        16.750           0.813
 91  7  2  4 28 29.9980000  0  4G17G21G23G 3
  20236572.107    -1952896.200 7  -1521736.02524        25.500           3.563
  22860927.998    -6653895.216 5  -4947036.44921        11.500           0.563
  19958196.881   -15857271.118 7 -12356303.26023        24.500           2.563
  21567535.717     5593288.391 6   4358402.13421        16.500           0.781
 91  7  2  4 28 44.9980000  0  4G17G21G23G 3
  20238327.514    -1943671.516 7  -1514547.96624        25.000           3.688
  22850213.147    -6710190.950 5  -4990903.18821        10.750           0.719
  19954239.428   -15878060.079 7 -12372502.43623        25.000           2.594
  21574643.670     5630633.549 6   4387502.22921        16.500           0.813
 91  7  2  4 28 59.9980000  0  4G17G21G23G 3
  20240094.678    -1934375.328 7  -1507304.18724        24.750           3.719
  22839513.256    -6766433.871 5  -5034728.75221        11.250           0.719
  19950306.100   -15898738.411 7 -12388615.40223        25.000           2.625
  21581771.436     5668083.470 6   4416683.95221        16.500           0.719
 91  7  2  4 29 14.9980000  0  4G17G21G23G 3
  20241878.389    -1925007.574 7  -1500004.63624        24.500           3.563
  22828823.232    -6822623.638 6  -5078512.90321        12.000           0.594
  19946391.561   -15919305.970 7 -12404642.04423        25.000           2.625
  21588915.709     5705638.278 6   4445947.41021        16.250           0.750
 91  7  2  4 29 29.9980000  0  4G17G21G23G 3
  20243673.975    -1915569.064 7  -1492649.95624        25.000           3.625
  22818135.428    -6878761.273 5  -5122256.45421        10.750           0.594
  19942497.717   -15939763.837 7 -12420583.22123        24.750           2.594
  21596082.522     5743296.791 6   4475291.68321        16.500           0.750
 91  7  2  4 29 44.9980000  0  4G17G21G23G 3
  20245482.990    -1906058.518 7  -1485239.13524        25.000           3.625
  22807464.592    -6934845.281 5  -5165958.19021        11.250           0.625
  19938626.232   -15960110.732 7 -12436437.92723        24.750           2.563
  21603267.131     5781060.072 6   4504717.58221        16.250           0.813
 91  7  2  4 29 59.9980000  0  4G17G21G23G 3
  20247307.490    -1896475.495 7  -1477771.84124        24.500           3.531
  22796802.607    -6990875.026 5  -5209617.65721        11.500           0.719
  19934775.475   -15980346.101 7 -12452205.73623        25.000           2.688
  21610477.186     5818928.463 6   4534225.38621        16.750           0.750
 91  7  2  4 30 14.9980000  0  4G17G21G23G 3
  20249144.647    -1886822.660 7  -1470250.15624        25.000           3.594
  22786148.092    -7046853.010 5  -5253236.79821        10.250           0.625
  19930946.381   -16000472.778 7 -12467888.85423        24.750           2.625
  21617700.568     5856898.904 6   4563812.70921        16.500           0.750
 91  7  2  4 30 29.9980000  0  4G17G21G23G 3
  20250995.295    -1877100.077 7  -1462674.12824        25.000           3.625
  22775511.061    -7102779.089 5  -5296815.48521        10.750           0.688
  19927134.732   -16020490.828 7 -12483487.34523        24.500           2.625
  21624945.256     5894971.333 6   4593479.50021        16.500           0.688
 91  7  2  4 30 44.9980000  0  4G17G21G23G 3
  20252859.482    -1867308.670 7  -1455044.46224        24.750           3.594
  22764875.811    -7158654.054 5  -5340354.34121        10.500           0.625
  19923346.631   -16040401.329 7 -12499002.02423        24.750           2.625
  21632210.240     5933144.350 6   4623224.67721        16.500           0.781
 91  7  2  4 30 59.9980000  0  4G17G21G23G 3
  20254734.693    -1857446.167 7  -1447359.39324        24.750           3.625
  22754252.326    -7214475.375 5  -5383851.41121        10.750           0.594
  19919581.100   -16060201.844 7 -12514430.99523        25.000           2.563
  21639494.631     5971420.475 6   4653050.18621        16.000           0.688
 91  7  2  4 31 14.9980000  0  4G17G21G23G 3
  20256626.678    -1847510.843 7  -1439617.57824        25.000           3.688
  22743639.732    -7270241.190 5  -5427305.22821        10.000           0.688
  19915833.147   -16079890.764 7 -12529773.01223        25.250           2.563
  21646798.209     6009801.007 6   4682957.05721        16.000           0.688
 91  7  2  4 31 29.9980000  0  4G17G21G23G 3
  20258530.357    -1837501.394 7  -1431817.99924        24.500           3.719
  22733034.529    -7325950.037 5  -5470714.64021        10.000           0.781
  19912108.365   -16099466.637 7 -12545026.95323        25.750           2.500
  21654123.709     6048287.195 6   4712946.26421        16.250           0.688
 91  7  2  4 31 44.9980000  0  4G17G21G23G 3
  20260451.225    -1827415.995 7  -1423959.24324        24.750           3.656
  22722448.584    -7381600.047 5  -5514078.20621        11.250           0.563
  19908404.068   -16118927.583 7 -12560191.33522        25.000           2.469
  21661462.217     6086880.506 6   4743018.95121        15.750           0.688
 91  7  2  4 31 59.9980000  0  4G17G21G23G 3
  20262382.959    -1817260.668 7  -1416046.00324        25.000           3.688
  22711869.607    -7437196.957 5  -5557400.43721        10.750           0.469
  19904722.584   -16138279.761 7 -12575270.94322        25.250           2.406
  21668829.131     6125574.798 6   4773170.30621        15.750           0.750
 91  7  2  4 32 14.9980000  0  4G17G21G23G 3
  20264327.889    -1807031.490 7  -1408075.21224        24.750           3.625
  22701303.287    -7492736.686 5  -5600678.06821        11.500           0.688
  19901062.014   -16157519.334 7 -12590262.80623        25.250           2.500
  21676211.334     6164373.723 6   4803403.19721        15.500           0.813
 91  7  2  4 32 29.9980000  0  4G17G21G23G 3
  20266290.139    -1796729.921 7  -1400048.01024        25.000           3.781
  22690744.670    -7548220.702 6  -5643912.29921        12.250           0.750
  19897421.647   -16176647.953 7 -12605168.21023        25.000           2.656
  21683615.311     6203275.547 6   4833716.26621        15.250           0.750
 91  7  2  4 32 44.9980000  0  4G17G21G23G 3
  20268262.475    -1786359.821 7  -1391967.41724        24.750           3.563
  22680195.068    -7603652.439 5  -5687105.81121        11.750           0.656
  19893802.397   -16195669.175 7 -12619989.92623        25.000           2.594
  21691035.186     6242276.412 6   4864106.52321        15.500           0.781
 91  7  2  4 32 59.9980000  0  4G17G21G23G 3
  20270246.420    -1775918.792 7  -1383831.55124        24.500           3.656
  22669657.209    -7659029.599 6  -5730256.77721        12.000           0.563
  19890203.647   -16214580.807 7 -12634726.23823        25.250           2.563
  21698477.717     6281378.543 6   4894575.68321        15.500           0.781
 91  7  2  4 33 14.9980000  0  4G17G21G23G 3
  20272248.506    -1765406.690 7  -1375640.28924        25.000           3.688
  22659129.412    -7714351.878 5  -5773364.99821        11.750           0.625
  19886624.318   -16233382.817 7 -12649377.13623        24.750           2.500
  21705935.201     6320581.579 6   4925123.46421        15.250           0.688
 91  7  2  4 33 29.9980000  0  4G17G21G23G 3
  20274262.459    -1754826.803 7  -1367396.21224        25.000           3.625
  22648611.662    -7769622.504 6  -5816432.94921        12.000           0.563
  19883067.318   -16252078.602 7 -12663945.26622        25.250           2.406
  21713414.529     6359882.085 6   4955747.19421        14.750           0.750
 91  7  2  4 33 44.9980000  0  4G17G21G23G 3
  20276289.584    -1744177.327 7  -1359097.91824        25.250           3.656
  22638104.186    -7824839.440 6  -5859459.07021        12.250           0.563
  19879529.998   -16270666.353 7 -12678429.22522        25.000           2.469
  21720916.045     6399281.678 6   4986448.14421        15.000           0.750
 91  7  2  4 33 59.9980000  0  4G17G21G23G 3
  20278329.951    -1733452.753 7  -1350741.10224        25.000           3.750
  22627606.357    -7879996.943 5  -5902438.89321        11.750           0.594
  19876014.334   -16289140.495 7 -12692824.66722        25.250           2.469
  21728430.240     6438785.605 6   5017230.38221        14.750           0.781
 91  7  2  4 34 14.9980000  0  4G17G21G23G 3
  20280383.623    -1722661.259 7  -1342332.16824        25.000           3.656
  22617120.201    -7935103.139 5  -5945378.71921        11.750           0.563
  19872518.123   -16307509.331 7 -12707138.05422        25.000           2.344
  21735968.639     6478385.543 6   5048087.42921        15.250           0.688
 91  7  2  4 34 29.9980000  0  4G17G21G23G 3
  20282450.764    -1711799.025 7  -1333868.10824        24.500           3.688
  22606645.131    -7990153.810 6  -5988275.28321        12.250           0.656
  19869044.897   -16325768.879 7 -12721366.27923        25.750           2.500
  21743521.701     6518085.311 6   5079022.28321        15.250           0.750
 91  7  2  4 34 44.9980000  0  4G17G21G23G 3
  20284530.217    -1700869.983 7  -1325351.95824        25.250           3.594
  22596176.279    -8045152.835 5  -6031131.58221        11.250           0.688
  19865589.709   -16343923.275 7 -12735512.57522        25.750           2.406
  21751093.818     6557880.624 6   5110031.57621        15.000           0.688
 91  7  2  4 34 59.9980000  0  4G17G21G23G 3
  20286623.850    -1689869.569 7  -1316780.21324        25.000           3.656
  22585722.936    -8100095.302 5  -6073943.83321        11.750           0.594
  19862157.123   -16361967.723 7 -12749573.19222        25.750           2.344
  21758686.522     6597776.042 6   5141118.88121        15.000           0.688
 91  7  2  4 35 14.9980000  0  4G17G21G23G 3
  20288732.639    -1678797.046 7  -1308152.25724        25.500           3.656
  22575278.162    -8154980.447 5  -6116711.45421        11.500           0.594
  19858743.553   -16379901.567 7 -12763547.61322        25.500           2.469
  21766296.568     6637771.849 6   5172284.39821        14.750           0.625
 91  7  2  4 35 29.9980000  0  4G17G21G23G 3
  20290851.834    -1667658.219 7  -1299472.64023        25.250           3.469
  22564844.490    -8209814.193 6  -6159438.97621        12.000           0.750
  19855351.350   -16397730.947 7 -12777440.62722        25.250           2.375
  21773925.412     6677861.899 6   5203523.35921        15.000           0.656
 91  7  2  4 35 44.9980000  0  4G17G21G23G 3
  20292982.990    -1656450.415 7  -1290739.28123        25.000           3.469
  22554419.123    -8264593.444 5  -6202124.04821        11.500           0.719
  19851977.811   -16415453.000 7 -12791250.00522        25.250           2.438
  21781569.795     6718048.969 6   5234837.91721        14.750           0.656
 91  7  2  4 35 59.9980000  0  4G17G21G23G 3
  20295129.568    -1645172.525 7  -1281951.31923        25.000           3.438
  22544007.561    -8319316.860 6  -6244765.60721        12.750           0.625
  19848626.420   -16433066.632 7 -12804974.89622        25.000           2.469
  21789236.428     6758334.054 6   5266228.85321        14.750           0.656
 91  7  2  4 36 14.9980000  0  4G17G21G23G 3
  20297288.139    -1633826.392 7  -1273110.18223        24.750           3.344
  22533605.303    -8373986.308 6  -6287365.12521        13.250           0.813
  19845295.920   -16450573.955 7 -12818616.95323        25.500           2.563
  21796923.037     6798714.618 6   5297694.19121        14.750           0.688
 91  7  2  4 36 29.9980000  0  4G17G21G23G 3
  20299459.201    -1622408.952 7  -1264213.46724        24.750           3.500
  22523211.709    -8428598.650 6  -6329920.13921        12.500           0.719
  19841983.139   -16467971.777 7 -12832173.68822        25.250           2.438
  21804628.084     6839193.831 6   5329236.39321        14.750           0.688
 91  7  2  4 36 44.9980000  0  4G17G21G23G 3
  20301646.881    -1610921.095 7  -1255261.87824        25.000           3.563
  22512826.615    -8483154.351 6  -6372431.01621        12.000           0.688
  19838695.232   -16485260.845 7 -12845645.67623        25.500           2.500
  21812344.475     6879770.687 6   5360854.69021        14.250           0.656
 91  7  2  4 36 59.9980000  0  4G17G21G23G 3
  20303847.139    -1599364.373 7  -1246256.64624        24.750           3.531
  22502458.748    -8537655.033 6  -6414899.05021        12.750           0.813
  19835424.443   -16502443.107 7 -12859034.44122        25.500           2.438
  21820089.014     6920443.122 6   5392547.45621        14.500           0.563
 91  7  2  4 37 14.9980000  0  4G17G21G23G 3
  20306057.693    -1587739.902 7  -1237198.61723        24.500           3.406
  22492099.404    -8592101.546 6  -6457324.84221        13.000           0.906
  19832175.053   -16519519.500 7 -12872340.71523        25.500           2.563
  21827847.662     6961209.969 6   5424313.78721        14.250           0.625
 91  7  2  4 37 29.9980000  0  4G17G21G23G 3
  20308283.428    -1576044.209 7  -1228085.08523        24.750           3.469
  22481749.475    -8646490.302 6  -6499705.64021        13.000           0.781
  19828947.303   -16536486.675 7 -12885561.87923        25.750           2.531
  21835618.881     7002074.426 6   5456156.18521        13.750           0.531
 91  7  2  4 37 44.9980000  0  4G17G21G23G 3
  20310524.420    -1564279.717 7  -1218917.95923        25.000           3.219
  22471408.154    -8700823.707 6  -6542043.31421        12.750           0.844
  19825737.107   -16553347.294 7 -12898699.99922        25.250           2.375
  21843415.889     7043033.732 6   5488072.49421        14.500           0.625
 91  7  2  4 37 59.9980000  0  4G17G21G23G 3
  20312776.764    -1552439.076 7  -1209691.48823        25.000           3.406
  22461082.022    -8755094.065 6  -6584331.83221        12.500           0.875
  19822550.889   -16570093.792 7 -12911749.21922        25.250           2.375
  21851231.553     7084095.188 6   5520068.40121        14.500           0.656
 91  7  2  4 38 14.9980000  0  4G17G21G23G 3
  20315042.162    -1540531.108 7  -1200412.54123        25.000           3.250
  22450764.256    -8809309.965 6  -6626577.93521        12.500           0.750
  19819384.178   -16586734.824 7 -12924716.25122        25.500           2.406
  21859061.615     7125249.954 6   5552137.02021        13.750           0.531
 91  7  2  4 38 29.9980000  0  4G17G21G23G 3
  20317321.889    -1528553.904 7  -1191079.66823        25.000           3.344
  22440459.045    -8863469.470 6  -6668780.10621        13.000           0.844
  19816237.748   -16603268.912 7 -12937599.96023        25.250           2.531
  21866906.795     7166499.328 6   5584279.34721        14.000           0.563
 91  7  2  4 38 44.9980000  0  4G17G21G23G 3
  20319613.318    -1516506.375 7  -1181692.00323        24.750           3.313
  22430160.451    -8917571.502 6  -6710937.48721        12.000           0.969
  19813112.467   -16619694.839 7 -12950399.37423        25.750           2.531
  21874777.131     7207844.359 6   5616496.21421        13.750           0.563
 91  7  2  4 38 59.9980000  0  4G17G21G23G 3
  20321918.357    -1504387.862 7  -1172249.02023        24.500           3.375
  22419878.662    -8971614.999 6  -6753049.22221        12.750           0.813
  19810006.842   -16636011.961 7 -12963114.00922        25.250           2.438
  21882664.232     7249285.402 6   5648787.89721        13.750           0.531
 91  7  2  4 39 14.9980000  0  4G17G21G23G 3
  20324238.600    -1492204.853 7  -1162755.77823        24.750           3.406
  22409603.647    -9025606.536 6  -6795120.51721        12.500           0.938
  19806921.787   -16652226.946 7 -12975749.05922        25.750           2.438
  21890573.443     7290815.798 6   5681149.21421        14.250           0.625
 91  7  2  4 39 29.9980000  0  4G17G21G23G 3
  20326569.303    -1479957.896 7  -1153212.69023        24.750           3.344
  22399339.170    -9079546.379 6  -6837151.50021        12.000           0.875
  19803855.162   -16668340.274 7 -12988304.88722        25.750           2.375
  21898485.529     7332434.797 6   5713579.56321        13.250           0.500
 91  7  2  4 39 44.9980000  0  4G17G21G23G 3
  20328912.272    -1467643.166 7  -1143616.80123        24.500           3.375
  22389085.334    -9133430.770 6  -6879139.28921        12.000           0.844
  19800808.615   -16684348.525 7 -13000778.83022        26.000           2.344
  21906427.490     7374145.908 6   5746081.68221        13.750           0.500
 91  7  2  4 39 59.9980000  0  4G17G21G23G 3
  20331270.061    -1455256.469 7  -1133964.83323        25.000           3.344
  22378842.615    -9187254.944 5  -6921080.15621        11.750           0.813
  19797783.639   -16700247.110 7 -13013167.31822        26.000           2.375
  21914378.904     7415953.213 6   5778658.77121        13.500           0.531
 91  7  2  4 40 14.9980000  0  4G17G21G23G 3
  20333638.709    -1442802.700 7  -1124260.60023        24.250           3.219
  22368608.803    -9241023.959 6  -6962978.01321        12.500           0.813
  19794779.272   -16716041.164 7 -13025474.35722        26.500           2.406
  21922351.576     7457851.455 6   5811306.71521        13.250           0.563
 91  7  2  4 40 29.9980000  0  4G17G21G23G 3
  20336021.451    -1430284.176 7  -1114505.89623        24.750           3.344
  22358389.506    -9294740.082 6  -7004834.69421        12.500           0.844
  19791791.897   -16731733.049 7 -13037701.79122        26.000           2.375
  21930344.568     7499838.173 6   5844023.59721        13.500           0.469
 91  7  2  4 40 44.9980000  0  4G17G21G23G 3
  20338415.225    -1417694.173 7  -1104695.50223        24.250           3.406
  22348179.717    -9348396.147 6  -7046644.55221        12.750           0.906
  19788827.350   -16747315.990 7 -13049844.34122        26.250           2.469
  21938352.686     7541920.002 6   5876814.59221        13.500           0.500
 91  7  2  4 40 59.9980000  0  4G17G21G23G 3
  20340825.186    -1405038.832 7  -1094834.19523        25.000           3.344
  22337978.975    -9401998.264 6  -7088412.38421        12.500           0.844
  19785880.467   -16762796.209 7 -13061906.86722        25.500           2.469
  21946375.342     7584090.485 6   5909674.67521        13.250           0.469
 91  7  2  4 41 14.9980000  0  4G17G21G23G 3
  20343247.850    -1392307.595 7  -1084913.75923        24.750           3.469
  22327791.678    -9455535.829 6  -7130129.92021        12.750           0.875
  19782956.897   -16778163.368 7 -13073881.28722        26.250           2.406
  21954415.482     7626359.817 6   5942611.79021        12.750           0.563
 91  7  2  4 41 29.9980000  0  4G17G21G23G 3
  20345682.756    -1379509.467 7  -1074941.21223        24.750           3.375
  22317614.654    -9509017.458 6  -7171803.84921        12.750           0.844
  19780050.889   -16793426.247 7 -13085774.44423        26.000           2.531
  21962482.662     7668719.021 6   5975618.92221        13.000           0.500
 91  7  2  4 41 44.9980000  0  4G17G21G23G 3
  20348132.225    -1366642.430 7  -1064914.97123        25.000           3.406
  22307449.865    -9562441.409 6  -7213432.84321        13.000           0.813
  19777167.678   -16808583.070 7 -13097584.95322        26.250           2.469
  21970556.420     7711169.607 6   6008697.27721        12.500           0.531
 91  7  2  4 41 59.9980000  0  4G17G21G23G 3
  20350591.412    -1353709.099 7  -1054837.06723        24.500           3.406
  22297290.186    -9615809.923 6  -7255018.64921        12.750           0.906
  19774303.678   -16823636.462 7 -13109314.86922        26.750           2.469
  21978652.615     7753708.755 6   6041844.62821        12.500           0.531
 91  7  2  4 42 14.9980000  0  4G17G21G23G 3
  20353067.709    -1340705.823 7  -1044704.63123        24.750           3.375
  22287144.951    -9669119.115 5  -7296558.21921        11.500           0.875
  19771458.959   -16838582.841 7 -13120961.38322        26.750           2.469
  21986765.186     7796340.027 6   6075063.76521        12.750           0.531
 91  7  2  4 42 29.9980000  0  4G17G21G23G 3
  20355554.803    -1327631.732 7  -1034517.04323        24.750           3.469
  22277013.826    -9722367.983 6  -7338050.79821        12.250           0.844
  19768636.529   -16853421.440 7 -13132523.91922        27.250           2.438
  21994896.232     7839064.016 6   6108355.15821        12.500           0.594
 91  7  2  4 42 44.9980000  0  4G17G21G23G 3
  20358056.865    -1314488.268 7  -1024275.38423        25.000           3.313
  22266894.029    -9775557.892 6  -7379497.42421        13.250           0.938
  19765830.912   -16868153.763 7 -13144003.62923        26.500           2.531
  22003042.154     7881878.956 6   6141717.41721        12.500           0.563
 91  7  2  4 42 59.9980000  0  4G17G21G23G 3
  20360569.178    -1301276.293 7  -1013980.33223        24.500           3.406
  22256783.522    -9828689.653 6  -7420898.72821        13.000           0.875
  19763049.318   -16882780.709 7 -13155401.23822        27.000           2.406
  22011207.881     7924783.647 6   6175149.60721        12.250           0.563
 91  7  2  4 43 14.9980000  0  4G17G21G23G 3
  20363096.998    -1287997.275 7  -1003633.05523        25.250           3.375
  22246682.311    -9881764.301 6  -7462255.56421        13.250           0.844
  19760283.529   -16897303.557 7 -13166717.73922        26.500           2.438
  22019386.498     7967776.772 6   6208650.71421        12.250           0.500
 91  7  2  4 43 29.9980000  0  4G17G21G23G 3
  20365636.451    -1274655.249 7   -993236.68123        25.250           3.281
  22236591.998    -9934786.040 6  -7503571.14021        12.250           0.906
  19757539.865   -16911726.889 7 -13177956.69022        26.750           2.344
  22027586.779     8010853.721 6   6242217.13321        12.500           0.531
 91  7  2  4 43 44.9980000  0  4G17G21G23G 3
  20368188.326    -1261245.634 7   -982787.64623        25.250           3.438
  22226513.287    -9987749.806 6  -7544841.55721        12.750           0.813
  19754816.404   -16926045.831 7 -13189114.29823        27.250           2.500
  22035799.350     8054019.125 6   6275852.47421        12.000           0.500
 91  7  2  4 43 59.9970000  0  4G17G21G23G 3
  20370754.321    -1247766.913 7   -972284.75823        25.500           3.438
  22216447.423   -10040649.581 6  -7586062.10721        13.500           0.938
  19752110.399   -16940256.995 7 -13200187.93322        26.500           2.469
  22044027.329     8097272.133 5   6309556.06621        11.750           0.469
 91  7  2  4 44 14.9970000  0  4G17G21G23G 3
  20373332.563    -1234216.248 7   -961725.79223        25.000           3.344
  22206392.407   -10093491.381 6  -7627237.48521        13.500           0.813
  19749426.134   -16954361.562 7 -13211178.51122        26.750           2.438
  22052280.899     8140619.221 6   6343332.98721        12.250           0.531
 91  7  2  4 44 29.9970000  0  4G17G21G23G 3
  20375923.290    -1220596.725 7   -951113.18323        25.000           3.438
  22196346.259   -10146273.778 6  -7668366.57121        13.250           0.875
  19746762.446   -16968360.583 7 -13222086.82922        27.000           2.469
  22060542.095     8184055.293 6   6377179.23821        12.000           0.594
 91  7  2  4 44 44.9970000  0  4G17G21G23G 3
  20378526.728    -1206907.484 7   -940446.25623        24.250           3.313
  22186314.774   -10198995.720 6  -7709448.54821        13.750           0.844
  19744120.243   -16982253.309 7 -13232912.31522        27.250           2.469
  22068826.595     8227580.834 6   6411095.19621        12.750           0.531
 91  7  2  4 44 59.9970000  0  4G17G21G23G 3
  20381146.165    -1193150.947 7   -929726.87723        24.750           3.313
  22176292.438   -10251659.635 6  -7750485.31721        13.250           0.844
  19741494.751   -16996042.434 7 -13243657.08422        27.000           2.469
  22077130.204     8271193.040 6   6445078.71121        12.750           0.500
 91  7  2  4 45 14.9970000  0  4G17G21G23G 3
  20383776.267    -1179334.326 7   -918960.66623        25.000           3.313
  22166279.142   -10304272.355 6  -7791482.19121        13.500           0.844
  19738890.188   -17009735.105 7 -13254326.68722        27.250           2.438
  22085434.978     8314884.712 5   6479124.13321        11.500           0.625
 91  7  2  4 45 29.9970000  0  4G17G21G23G 3
  20386419.743    -1165448.246 7   -908140.34523        24.750           3.250
  22156281.345   -10356824.470 6  -7832431.83021        13.500           0.781
  19736304.243   -17023321.857 7 -13264913.77522        27.250           2.406
  22093770.431     8358664.953 6   6513238.54121        12.000           0.500
 91  7  2  4 45 44.9970000  0  4G17G21G23G 3
  20389073.993    -1151491.725 7   -897265.14623        25.000           3.344
  22146291.212   -10409314.582 6  -7873333.16621        13.750           0.875
  19733738.134   -17036801.957 7 -13275417.74722        26.750           2.438
  22102115.767     8402534.478 5   6547422.56721        11.750           0.438
 91  7  2  4 45 59.9970000  0  4G17G21G23G 3
  20391743.962    -1137462.705 7   -886333.44723        24.500           3.375
  22136313.290   -10461740.535 6  -7914184.51321        13.500           0.906
  19731195.728   -17050173.249 7 -13285836.92522        27.500           2.438
  22110485.329     8446495.248 5   6581677.67421        11.750           0.531
 91  7  2  4 46 14.9970000  0  4G17G21G23G 3
  20394424.032    -1123371.045 7   -875352.95023        24.750           3.313
  22126348.759   -10514112.363 6  -7954993.66121        13.500           0.906
  19728668.821   -17063445.784 7 -13296179.15422        27.250           2.438
  22118865.860     8490536.872 6   6615995.79721        12.250           0.531
 91  7  2  4 46 29.9970000  0  4G17G21G23G 3
  20397119.673    -1109212.991 7   -864320.70223        24.750           3.344
  22116396.446   -10566426.080 6  -7995757.53721        14.250           0.938
  19726162.665   -17076615.774 7 -13306441.46622        27.000           2.438
  22127264.696     8534662.950 6   6650379.71621        12.250           0.438
 91  7  2  4 46 44.9970000  0  4G17G21G23G 3
  20399826.103    -1094986.821 7   -853235.39223        24.500           3.375
  22106449.509   -10618679.609 6  -8036474.53421        14.000           0.813
  19723675.962   -17089681.482 7 -13316622.52022        27.000           2.469
  22135677.665     8578875.361 6   6684830.91921        12.250           0.469
 91  7  2  4 46 59.9970000  0  4G17G21G23G 3
  20402545.759    -1080695.512 7   -842099.31823        24.250           3.281
  22096518.923   -10670875.946 6  -8077146.95821        14.000           0.906
  19721209.821   -17102645.975 7 -13326724.70322        27.000           2.469
  22144104.501     8623170.459 6   6719346.54721        12.000           0.500
 91  7  2  4 47 14.9970000  0  4G17G21G23G 3
  20405281.243    -1066329.940 7   -830905.36523        24.750           3.406
  22086600.634   -10723006.154 6  -8117767.83821        14.250           0.938
  19718763.204   -17115500.575 7 -13336741.25322        27.000           2.438
  22152551.704     8667557.028 5   6753933.44621        11.750           0.438
 91  7  2  4 47 29.9970000  0  4G17G21G23G 3
  20408026.407    -1051897.399 7   -819659.23523        24.500           3.438
  22076690.298   -10775077.075 6  -8158342.53221        15.000           0.781
  19716336.032   -17128252.463 7 -13346677.76323        26.750           2.500
  22161014.212     8712027.686 5   6788585.86121        11.250           0.500
 91  7  2  4 47 44.9970000  0  4G17G21G23G 3
  20410783.204    -1037399.880 7   -808362.46723        24.250           3.281
  22066792.743   -10827090.525 6  -8198872.45521        14.750           0.844
  19713930.556   -17140903.680 7 -13356535.84223        27.500           2.500
  22169492.907     8756580.063 5   6823301.97821        11.250           0.469
 91  7  2  4 47 59.9970000  0  4G17G21G23G 3
  20413556.673    -1022832.744 7   -797011.45223        24.250           3.375
  22056908.829   -10879041.735 6  -8239353.86821        14.750           0.875
  19711543.095   -17153449.625 7 -13366311.89623        27.500           2.563
  22177989.712     8801218.571 5   6858085.18321        11.750           0.563
 91  7  2  4 48 14.9970000  0  4G17G21G23G 3
  20416339.337    -1008202.675 7   -785611.39923        24.500           3.406
  22047029.751   -10930937.398 6  -8279791.99921        14.500           0.969
  19709173.126   -17165897.139 7 -13376011.26022        27.500           2.344
  22186493.970     8845936.394 5   6892930.20421        11.500           0.531
 91  7  2  4 48 29.9970000  0  4G17G21G23G 3
  20419140.837     -993504.938 7   -774158.60523        24.750           3.313
  22037166.970   -10982772.340 6  -8320182.80021        14.500           0.781
  19706824.032   -17178241.152 7 -13385629.96422        27.250           2.375
  22195021.454     8890738.332 5   6927840.76221        11.750           0.406
 91  7  2  4 48 44.9970000  0  4G17G21G23G 3
  20421949.431     -978738.812 7   -762652.53423        24.500           3.406
  22027315.962   -11034545.890 6  -8360525.78521        14.500           0.938
  19704494.884   -17190481.384 7 -13395167.79422        27.500           2.469
  22203565.790     8935624.526 5   6962816.98021        11.750           0.438
 91  7  2  4 48 59.9970000  0  4G17G21G23G 3
  20424770.923     -963901.039 7   -751090.63623        24.250           3.375
  22017475.360   -11086254.615 6  -8400818.25021        14.750           1.063
  19702185.978   -17202614.614 7 -13404622.24622        27.000           2.344
  22212121.876     8980597.921 6   6997861.14821        12.500           0.438
 91  7  2  4 49 14.9970000  0  4G17G21G23G 3
  20427606.595     -948998.548 7   -739478.31023        24.000           3.281
  22007645.399   -11137905.443 6  -8441065.58521        14.750           0.969
  19699897.196   -17214647.875 7 -13413998.81222        27.250           2.344
  22220695.087     9025651.592 6   7032967.86321        12.250           0.406
 91  7  2  4 49 29.9970000  0  4G17G21G23G 3
  20430455.642     -934031.413 7   -727815.60423        24.250           3.313
  21997827.173   -11189498.187 6  -8481267.67921        14.000           1.000
  19697624.220   -17226581.317 7 -13423297.59522        27.000           2.438
  22229282.079     9070784.941 5   7068136.66721        11.750           0.375
 91  7  2  4 49 44.9970000  0  4G17G21G23G 3
  20433316.892     -918991.651 7   -716096.31323        24.250           3.250
  21988020.993   -11241024.770 6  -8521418.20721        14.000           1.000
  19695374.454   -17238406.849 7 -13432512.28922        27.000           2.469
  22237888.704     9116005.754 5   7103373.62321        11.750           0.406
 91  7  2  4 49 59.9970000  0  4G17G21G23G 3
  20436192.142     -903883.030 7   -704323.37323        24.000           3.219
  21978228.251   -11292488.568 6  -8561519.82321        14.000           1.031
  19693146.563   -17250128.173 7 -13441645.78923        27.750           2.500
  22246509.681     9161310.290 6   7138675.83821        12.000           0.438
 91  7  2  4 50 14.9970000  0  4G17G21G23G 3
  20439077.438     -888706.504 7   -692497.51223        23.750           3.344
  21968447.079   -11343890.619 6  -8601573.31121        14.250           1.063
  19690932.978   -17261746.645 7 -13450699.12422        27.250           2.438
  22255146.618     9206697.172 5   7174042.20521        11.500           0.344
 91  7  2  4 50 29.9970000  0  4G17G21G23G 3
  20441981.313     -873462.416 7   -680618.99623        24.250           3.281
  21958679.063   -11395231.280 6  -8641578.97621        14.500           1.063
  19688741.532   -17273262.741 7 -13459672.68822        27.250           2.344
  22263802.860     9252165.504 6   7209472.02521        12.000           0.344
 91  7  2  4 50 44.9970000  0  4G17G21G23G 3
  20444894.056     -858150.473 7   -668687.60523        24.000           3.313
  21948921.587   -11446510.107 6  -8681536.44921        15.250           1.063
  19686570.415   -17284676.140 7 -13468566.25522        27.250           2.344
  22272462.720     9297715.562 5   7244965.55021        11.750           0.469
 91  7  2  4 50 59.9970000  0  4G17G21G23G 3
  20447822.228     -842769.960 7   -656702.78423        24.250           3.281
  21939176.938   -11497726.163 6  -8721445.02921        15.000           1.188
  19684418.610   -17295985.907 7 -13477379.07222        27.250           2.375
  22281155.923     9343347.869 6   7280523.14721        12.000           0.406
 91  7  2  4 51 14.9970000  0  4G17G21G23G 3
  20450761.462     -827322.924 7   -644666.13623        23.750           3.188
  21929439.478   -11548881.362 6  -8761306.15521        15.000           1.063
  19682284.665   -17307194.577 7 -13486113.09822        27.250           2.313
  22289852.556     9389060.207 6   7316143.09321        12.000           0.406
 91  7  2  4 51 29.9970000  0  4G17G21G23G 3
  20453714.501     -811809.039 7   -632577.40423        24.250           3.156
  21919717.501   -11599975.311 6  -8801119.57521        14.250           1.188
  19680172.337   -17318301.905 7 -13494768.14523        27.250           2.500
  22298565.649     9434852.403 6   7351825.28621        12.000           0.281
 91  7  2  4 51 44.9970000  0  4G17G21G23G 3
  20456676.313     -796228.752 7   -620436.92123        24.000           3.219
  21910006.392   -11651008.011 6  -8840885.26621        14.750           1.063
  19678077.431   -17329307.953 7 -13503344.29322        27.250           2.375
  22307294.251     9480724.186 5   7387569.50021        11.750           0.375
 91  7  2  4 51 59.9970000  0  4G17G21G23G 3
  20459655.649     -780575.880 7   -608239.87223        23.750           3.219
  21900304.688   -11701973.641 6  -8880598.68521        14.250           1.219
  19676003.563   -17340206.889 7 -13511836.96422        27.500           2.344
  22316040.438     9526680.909 6   7423379.87821        12.000           0.438
 91  7  2  4 52 14.9970000  0  4G17G21G23G 3
  20462648.376     -764859.930 7   -595993.67723        24.000           3.250
  21890618.704   -11752881.363 6  -8920266.98121        14.500           1.250
  19673947.751   -17351008.471 7 -13520253.77022        27.250           2.438
  22324799.353     9572712.951 6   7459248.96021        12.250           0.313
 91  7  2  4 52 29.9970000  0  4G17G21G23G 3
  20465650.923     -749073.660 7   -583692.67823        24.000           3.250
  21880946.899   -11803723.910 6  -8959884.50421        15.000           1.188
  19671912.157   -17361705.510 7 -13528589.11422        27.500           2.406
  22333570.618     9618827.275 5   7495182.17121        11.500           0.344
 91  7  2  4 52 44.9970000  0  4G17G21G23G 3
  20468668.493     -733220.182 7   -571339.31523        23.750           3.281
  21871280.431   -11854504.081 6  -8999453.41721        14.500           1.125
  19669895.931   -17372300.904 7 -13536845.25822        27.500           2.406
  22342362.556     9665020.807 5   7531177.08121        11.250           0.344
 91  7  2  4 52 59.9970000  0  4G17G21G23G 3
  20471697.149     -717299.779 7   -558933.80823        23.500           3.188
  21861629.165   -11905221.764 6  -9038973.64421        14.250           1.219
  19667898.587   -17382795.097 7 -13545022.54223        27.500           2.500
  22351168.290     9711293.032 5   7567233.31321        11.750           0.406
 91  7  2  4 53 14.9970000  0  4G17G21G23G 3
  20474739.407     -701315.394 7   -546478.44123        23.500           3.250
  21851987.688   -11955880.156 6  -9078447.65021        14.250           1.188
  19665919.251   -17393191.123 7 -13553123.33122        27.500           2.438
  22359986.759     9757640.514 5   7603348.19921        10.750           0.438
 91  7  2  4 53 29.9970000  0  4G17G21G23G 3
  20477792.751     -685265.213 7   -533971.80723        23.250           3.313
  21842358.603   -12006477.190 6  -9117873.87121        14.250           1.156
  19663961.173   -17403487.284 7 -13561146.30422        27.500           2.406
  22368824.290     9804064.869 5   7639522.96921        11.750           0.344
 91  7  2  4 53 44.9970000  0  4G17G21G23G 3
  20480859.259     -669148.178 7   -521413.08123        23.000           3.313
  21832741.892   -12057011.448 6  -9157251.16121        13.750           1.219
  19662019.853   -17413682.529 7 -13569090.63922        27.500           2.406
  22377671.142     9850566.978 5   7675758.35621        11.750           0.344
 91  7  2  4 53 59.9970000  0  4G17G21G23G 3
  20483937.548     -652965.432 7   -508803.15023        23.500           3.188
  21823140.188   -12107484.137 6  -9196580.47521        15.250           1.219
  19660099.688   -17423778.067 7 -13576957.27822        27.250           2.344
  22386536.056     9897145.420 5   7712053.20321        10.750           0.313
 91  7  2  4 54 14.9970000  0  4G17G21G23G 3
  20487033.017     -636713.392 7   -496139.20723        23.750           3.250
  21813548.790   -12157891.677 6  -9235859.03021        15.250           1.125
  19658197.853   -17433770.677 7 -13584743.72222        27.250           2.313
  22395413.759     9943803.512 5   7748410.10421        10.750           0.313
 91  7  2  4 54 29.9970000  0  4G17G21G23G 3
  20490139.321     -620393.589 7   -483422.48823        23.500           3.156
  21803967.220   -12208235.451 6  -9275087.89921        15.250           1.219
  19656315.907   -17443661.879 7 -13592451.15623        27.000           2.500
  22404305.563     9990539.272 5   7784827.55021        10.500           0.281
 91  7  2  4 54 44.9970000  0  4G17G21G23G 3
  20493257.524     -604006.360 7   -470653.22223        23.250           3.156
  21794400.493   -12258515.487 6  -9314267.08921        15.500           1.250
  19654452.407   -17453451.859 7 -13600079.70022        27.000           2.406
  22413215.978    10037352.349 5   7821305.24021        10.500           0.313
 91  7  2  4 54 59.9970000  0  4G17G21G23G 3
  20496386.329     -587553.331 7   -457832.67723        23.000           3.094
  21784844.868   -12308733.629 6  -9353398.06321        16.000           1.125
  19652608.813   -17463142.629 7 -13607630.94722        26.750           2.438
  22422137.485    10084240.638 5   7857841.50721        11.000           0.344
 91  7  2  4 55 14.9970000  0  4G17G21G23G 3
  20499532.774     -571034.019 7   -444960.48523        23.750           3.125
  21775298.681   -12358888.962 6  -9392480.09421        15.250           1.281
  19650782.649   -17472733.485 7 -13615104.33622        27.000           2.406
  22431078.056    10131204.609 5   7894436.75721        10.500           0.281
 91  7  2  4 55 29.9970000  0  4G17G21G23G 3
  20502689.985     -554443.445 7   -432032.76123        23.500           3.094
  21765768.767   -12408976.336 6  -9431509.16621        16.000           1.125
  19648979.821   -17482219.576 7 -13622496.09323        27.500           2.500
  22440027.095    10178249.050 5   7931094.72721        10.000           0.313
 91  7  2  4 55 44.9970000  0  4G17G21G23G 3
  20505858.509     -537785.020 7   -419052.15923        23.250           3.063
  21756248.821   -12458998.943 6  -9470487.77821        15.750           1.188
  19647193.907   -17491604.518 7 -13629809.01922        27.500           2.375
  22448994.774    10225370.078 5   7967812.37521        10.500           0.375
 91  7  2  4 55 59.9970000  0  4G17G21G23G 3
  20509036.063     -521065.853 7   -406024.22623        23.000           3.125
  21746742.431   -12508964.248 6  -9509421.72921        15.750           1.094
  19645424.892   -17500895.641 7 -13637048.83122        27.250           2.375
  22457976.649    10272560.089 5   8004583.76021        10.750           0.313
 91  7  2  4 56 14.9970000  0  4G17G21G23G 3
  20512233.392     -504284.222 7   -392947.62123        23.250           3.188
  21737244.134   -12558870.223 6  -9548309.45221        16.250           1.188
  19643675.251   -17510091.143 7 -13644214.13822        27.250           2.375
  22466969.610    10319820.710 5   8041410.18721        10.250           0.250
 91  7  2  4 56 29.9970000  0  4G17G21G23G 3
  20515440.329     -487433.029 7   -379816.82623        24.000           3.031
  21727757.556   -12608709.576 6  -9587145.26621        15.250           1.219
  19641944.962   -17519184.081 7 -13651299.54922        27.250           2.344
  22475982.392    10367158.819 5   8078296.97721        10.750           0.344
 91  7  2  4 56 44.9970000  0  4G17G21G23G 3
  20518659.501     -470513.021 7   -366632.40723        23.500           3.000
  21718287.048   -12658483.007 6  -9625929.70621        16.500           1.094
  19640231.978   -17528175.118 7 -13658305.56922        26.500           2.375
  22484998.423    10414573.640 5   8115243.57821        11.000           0.250
 91  7  2  4 56 59.9970000  0  4G17G21G23G 3
  20521891.688     -453525.566 7   -353395.43223        23.250           3.000
  21708829.970   -12708191.465 6  -9664663.53121        16.000           1.156
  19638540.853   -17537065.645 7 -13665233.23222        26.750           2.344
  22494041.009    10462063.328 5   8152248.48021        10.750           0.250
 91  7  2  4 57 14.9970000  0  4G17G21G23G 3
  20525139.759     -436469.872 7   -340105.26923        23.500           3.094
  21699382.993   -12757834.038 6  -9703346.00221        16.500           1.125
  19636868.767   -17545855.189 7 -13672082.22022        26.750           2.281
  22503089.813    10509628.457 5   8189312.16321        11.000           0.281
 91  7  2  4 57 29.9970000  0  4G17G21G23G 3
  20528394.493     -419353.684 7   -326767.98123        23.750           3.063
  21689945.157   -12807418.493 6  -9741983.20021        16.250           1.250
  19635214.782   -17554551.452 7 -13678858.51822        26.750           2.406
  22512153.048    10557261.020 5   8226428.41921        10.750           0.219
 91  7  2  4 57 44.9970000  0  4G17G21G23G 3
  20531664.063     -402172.238 7   -313379.83323        23.500           3.063
  21680522.720   -12856939.873 6  -9780571.23921        16.000           1.094
  19633578.345   -17563149.679 7 -13685558.42722        26.750           2.375
  22521233.024    10604965.564 5   8263600.74821        10.750           0.344
 91  7  2  4 57 59.9970000  0  4G17G21G23G 3
  20534944.423     -384926.994 7   -299941.98523        23.500           3.031
  21671109.962   -12906399.571 6  -9819111.22421        16.250           1.281
  19631961.142   -17571651.413 7 -13692183.17122        26.500           2.406
  22530322.478    10652740.310 5   8300827.77321        10.750           0.313
 91  7  2  4 58 14.9970000  0  4G17G21G23G 3
  20538243.001     -367614.503 7   -286451.73223        24.250           3.063
  21661709.899   -12955794.038 6  -9857600.38521        15.500           1.250
  19630361.071   -17580053.468 7 -13698730.22322        26.750           2.438
  22539425.595    10700588.257 5   8338111.84821        10.750           0.250
 91  7  2  4 58 29.9970000  0  4G17G21G23G 3
  20541548.524     -350232.557 7   -272907.36323        23.500           3.094
  21652323.938   -13005121.056 6  -9896036.96321        16.000           1.188
  19628782.415   -17588353.704 7 -13705197.92522        27.000           2.406
  22548547.056    10748511.510 5   8375454.60621        10.000           0.344
 91  7  2  4 58 44.9970000  0  4G17G21G23G 3
  20544869.829     -332780.603 7   -259308.43423        23.750           3.125
  21642952.634   -13054379.755 6  -9934420.33321        16.750           1.156
  19627221.071   -17596551.716 7 -13711585.96222        26.500           2.438
  22557684.056    10796510.410 5   8412856.26421        10.000           0.313
 91  7  2  4 58 59.9970000  0  4G17G21G23G 3
  20548203.063     -315268.593 7   -245662.71123        23.750           3.188
  21633589.540   -13103580.058 6  -9972758.18921        16.250           1.250
  19625679.548   -17604657.623 7 -13717902.25522        27.000           2.406
  22566832.079    10844574.659 5   8450308.87321        10.250           0.250
 91  7  2  4 59 14.9970000  0  4G17G21G23G 3
  20551546.993     -297690.042 7   -231965.13723        23.750           3.063
  21624239.571   -13152715.450 6 -10011045.46621        16.250           1.281
  19624155.431   -17612664.773 7 -13724141.57822        27.000           2.344
  22575988.501    10892710.450 5   8487817.21721         9.500           0.281
 91  7  2  4 59 29.9970000  0  4G17G21G23G 3
  20554903.829     -280041.866 7   -218213.31123        24.000           3.094
  21614901.337   -13201782.824 6 -10049279.73921        16.000           1.156
  19622649.610   -17620570.407 7 -13730301.79322        26.750           2.375
  22585156.587    10940920.449 5   8525383.40921         9.000           0.281
 91  7  2  4 59 44.9970000  0  4G17G21G23G 3
  20558276.243     -262330.936 7   -204412.57923        24.000           3.063
  21605573.712   -13250788.646 6 -10087466.05621        16.000           1.219
  19621165.415   -17628381.308 7 -13736388.19522        27.000           2.406
  22594349.063    10989197.906 5   8563002.16121        10.000           0.344
 91  7  2  4 59 59.9970000  0  4G17G21G23G 3
  20561659.454     -244549.973 7   -190557.28123        24.000           3.156
  21596263.415   -13299725.470 6 -10125598.60721        15.250           1.344
  19619697.798   -17636090.161 7 -13742395.10122        27.000           2.313
  22603550.056    11037549.645 5   8600678.78721         9.750           0.406
 91  7  2  5  0 14.9970000  0  4G17G21G23G 3
  20565059.142     -226694.608 7   -176644.01023        24.000           3.094
  21586965.954   -13348588.987 6 -10163674.01921        16.250           1.281
  19618250.985   -17643692.748 7 -13748319.19822        27.000           2.344
  22612771.923    11085979.659 5   8638416.40821         9.750           0.281
 91  7  2  5  0 29.9970000  0  4G17G21G23G 3
  20568465.423     -208770.189 7   -162676.91923        23.750           3.219
  21577677.954   -13397384.364 6 -10201696.36821        15.250           1.188
  19616823.173   -17651194.561 7 -13754164.76522        27.000           2.281
  22621990.212    11134482.632 5   8676210.88121         9.750           0.344
 91  7  2  5  0 44.9970000  0  4G17G21G23G 3
  20571887.321     -190779.771 7   -148658.40923        23.000           3.125
  21568402.970   -13446114.265 6 -10239667.67821        15.500           1.219
  19615414.876   -17658598.661 7 -13759934.17922        27.500           2.344
  22631235.306    11183055.035 5   8714059.46021         9.250           0.313
 91  7  2  5  0 59.9970000  0  4G17G21G23G 3
  20575325.970     -172727.984 7   -134592.08223        23.500           3.031
  21559145.368   -13494783.355 6 -10277591.61721        15.750           1.344
  19614024.392   -17665909.851 7 -13765631.19822        27.750           2.438
  22640491.306    11231692.080 5   8751958.42321         9.250           0.250
 91  7  2  5  1 14.9970000  0  4G17G21G23G 3
  20578772.345     -154610.143 7   -120474.29323        23.250           2.938
  21549894.134   -13543386.937 6 -10315464.49121        15.000           1.125
  19612651.040   -17673123.709 7 -13771252.37522        27.500           2.438
  22649762.563    11280398.071 5   8789911.11221         9.500           0.281
 91  7  2  5  1 29.9970000  0  4G17G21G23G 3
  20582234.243     -136422.239 7   -106301.91023        23.000           2.844
  21540661.017   -13591920.920 6 -10353283.15421        15.500           1.156
  19611297.845   -17680236.278 8 -13776794.62522        28.000           2.469
  22659045.126    11329176.596 5   8827920.30321         9.500           0.281
 91  7  2  5  1 44.9970000  0  4G17G21G23G 3
  20585707.493     -118167.147 7    -92077.16023        23.000           2.844
  21531438.321   -13640387.921 6 -10391049.60221        15.250           1.375
  19609961.665   -17687250.463 7 -13782260.20822        27.250           2.375
  22668333.282    11378024.635 5   8865983.64321         9.000           0.281
 91  7  2  5  1 59.9970000  0  4G17G21G23G 3
  20589196.563      -99851.920 7    -77805.54623        23.750           2.781
  21522225.532   -13688794.860 6 -10428769.24521        15.250           1.219
  19608645.048   -17694173.154 7 -13787654.49922        27.250           2.406
  22677646.017    11426934.981 5   8904095.55721         9.500           0.219
 91  7  2  5  2 14.9970000  0  4G17G21G23G 3
  20592690.603      -81466.518 7    -63479.25223        23.250           2.750
  21513027.259   -13737131.675 6 -10466434.27421        16.250           1.406
  19607348.063   -17700994.557 7 -13792969.87722        27.500           2.406
  22686965.813    11475917.421 5   8942263.66321         9.000           0.250
 91  7  2  5  2 29.9970000  0  4G17G21G23G 3
  20596203.313      -63012.210 7    -49099.28523        23.250           2.906
  21503841.165   -13785399.611 6 -10504045.63321        15.250           1.313
  19606068.501   -17707716.281 7 -13798207.56122        27.000           2.281
  22696301.610    11524970.257 5   8980486.59721         8.750           0.219
 91  7  2  5  2 44.9970000  0  4G17G21G23G 3
  20599725.626      -44493.559 7    -34669.16823        23.000           2.844
  21494667.446   -13833602.912 6 -10541606.59521        15.500           1.375
  19604806.821   -17714342.813 7 -13803371.06922        27.750           2.281
  22705649.485    11574088.658 5   9018760.62621         9.750           0.219
 91  7  2  5  2 59.9970000  0  4G17G21G23G 3
  20603265.399      -25911.395 7    -20189.56923        23.000           2.906
  21485510.462   -13881742.474 6 -10579117.91521        16.000           1.375
  19603564.017   -17720875.089 7 -13808461.14922        27.250           2.375
  22715007.353    11623271.370 5   9057084.80121         9.250           0.313
 91  7  2  5  3 14.9970000  0  4G17G21G23G 3
  20606814.892       -7262.215 7     -5657.75623        23.250           3.000
  21476360.407   -13929814.557 6 -10616576.65021        15.500           1.344
  19602338.642   -17727309.636 7 -13813475.07322        27.000           2.344
  22724383.642    11672521.863 5   9095461.75521         9.750           0.281
 91  7  2  5  3 29.9970000  0  4G17G21G23G 3
  20610377.353       11455.700 7      8927.61723        23.250           2.906
  21467225.665   -13977817.392 6 -10653981.42621        15.250           1.438
  19601134.243   -17733644.817 7 -13818411.55022        27.500           2.344
  22733766.267    11721841.656 5   9133892.71721        10.000           0.188
 91  7  2  5  3 44.9970000  0  4G17G21G23G 3
  20613947.790       30234.523 7     23560.47023        22.500           2.969
  21458104.993   -14025758.524 6 -10691338.11521        16.000           1.375
  19599945.532   -17739888.604 7 -13823276.82622        27.250           2.344
  22743164.157    11771222.547 5   9172371.29021         9.500           0.219
 91  7  2  5  3 59.9970000  0  4G17G21G23G 3
  20617535.665       49078.833 7     38244.34823        22.750           2.906
  21448994.899   -14073633.252 6 -10728643.07121        16.250           1.313
  19598776.368   -17746036.358 7 -13828067.29622        27.500           2.281
  22752566.095    11820668.987 5   9210900.92721         9.250           0.219
 91  7  2  5  4 14.9970000  0  4G17G21G23G 3
  20621133.446       67989.696 7     52980.07923        22.750           2.719
  21439895.454   -14121440.571 6 -10765895.50721        16.000           1.406
  19597623.556   -17752087.466 7 -13832782.45022        27.000           2.406
  22761994.337    11870181.380 5   9249481.96521        10.000           0.281
 91  7  2  5  4 29.9970000  0  4G17G21G23G 3
  20624746.040       86969.226 7     67769.32723        22.750           2.688
  21430808.899   -14169178.083 6 -10803093.54121        15.000           1.438
  19596491.884   -17758039.578 7 -13837420.45422        27.750           2.469
  22771431.001    11919761.895 5   9288116.10121        10.000           0.219
 91  7  2  5  4 44.9970000  0  4G17G21G23G 3
  20628370.532      106016.389 7     82611.26223        22.750           2.813
  21421739.298   -14216846.782 6 -10840237.94021        15.500           1.438
  19595378.149   -17763893.813 7 -13841982.18922        27.500           2.313
  22780875.220    11969409.253 5   9326802.31521         9.250           0.188
 91  7  2  5  4 59.9970000  0  4G17G21G23G 3
  20632006.399      125130.352 7     97505.25123        22.250           2.719
  21412681.298   -14264447.199 6 -10877329.15021        15.500           1.438
  19594281.845   -17769651.027 7 -13846468.31322        27.500           2.469
  22790336.126    12019122.427 5   9365539.79521         9.750           0.344
 91  7  2  5  5 14.9970000  0  4G17G21G23G 3
  20635657.024      144316.425 7    112455.42623        22.500           2.656
  21403636.454   -14311973.935 6 -10914362.93321        15.750           1.438
  19593206.821   -17775306.088 7 -13850874.84323        27.500           2.531
  22799808.532    12068906.363 5   9404332.42521         9.250           0.250
 91  7  2  5  5 29.9970000  0  4G17G21G23G 3
  20639318.470      163559.125 7    127449.72523        22.500           2.563
  21394603.251   -14359442.494 6 -10951351.39021        15.500           1.281
  19592146.860   -17780874.703 7 -13855214.04123        27.250           2.500
  22809295.188    12118745.182 5   9443167.81521         9.250           0.219
 91  7  2  5  5 44.9970000  0  4G17G21G23G 3
  20642993.509      182866.019 7    142494.05623        22.250           2.750
  21385583.970   -14406845.251 6 -10988288.57321        16.250           1.375
  19591104.868   -17786349.356 7 -13859480.00922        27.500           2.406
  22818787.126    12168646.018 5   9482051.52321         9.000           0.281
 91  7  2  5  5 59.9970000  0  4G17G21G23G 3
  20646683.126      202239.508 7    157590.27323        22.750           2.688
  21376578.626   -14454179.890 6 -11025172.67421        17.000           1.406
  19590082.024   -17791727.976 7 -13863671.12222        27.250           2.406
  22828301.938    12218611.076 5   9520985.27321         9.750           0.281
 91  7  2  5  6 14.9970000  0  4G17G21G23G 3
  20650380.446      221686.695 7    172743.92323        22.250           2.781
  21367584.720   -14501438.979 6 -11061997.90621        16.500           1.344
  19589077.735   -17797003.258 7 -13867781.73922        27.250           2.406
  22837817.759    12268647.184 5   9559974.39121         8.750           0.219
 91  7  2  5  6 29.9970000  0  4G17G21G23G 3
  20654095.110      241198.070 7    187947.58423        23.000           2.750
  21358601.134   -14548631.685 6 -11098771.43121        16.000           1.406
  19588091.188   -17802184.730 7 -13871819.24722        27.250           2.313
  22847356.376    12318744.857 5   9599011.50221         9.000           0.188
 91  7  2  5  6 44.9970000  0  4G17G21G23G 3
  20657815.228      260765.174 7    203194.66023        22.250           2.813
  21349634.321   -14595766.904 6 -11135500.13222        17.000           1.594
  19587121.493   -17807281.395 7 -13875790.64322        27.250           2.438
  22856899.251    12368894.728 5   9638089.27521         9.000           0.281
 91  7  2  5  6 59.9970000  0  5G17G21G23G 3G11
  20661552.071      280403.199 7    218497.00923        22.250           2.688
  21340677.274   -14642829.016 6 -11172171.88421        17.000           1.406
  19586169.032   -17812278.008 7 -13879684.10722        27.000           2.375
  22866451.649    12419112.098 5   9677219.63721         8.500           0.156
  23890236.048          -0.19614                         6.500
 91  7  2  5  7 14.9970000  0  5G17G21G23G 3G11
  20665303.665      300115.401 7    233857.15823        21.750           2.594
  21331736.056   -14689814.531 6 -11208783.94522        17.000           1.500
  19585239.478   -17817171.165 7 -13883496.95422        27.250           2.313
  22876024.329    12469400.426 5   9716405.25521         8.500           0.219
  23877960.040      -64506.085 5                         7.500
 91  7  2  5  7 29.9970000  0  5G17G21G23G 3G11
  20669068.610      319893.772 7    249268.87423        22.250           2.750
  21322809.126   -14736731.247 6 -11245342.40221        16.750           1.406
  19584326.735   -17821969.069 7 -13887235.57922        27.250           2.406
  22885601.524    12519750.773 5   9755639.26721         8.750           0.156
  23865690.626     -128997.747 5        -0.06831         7.500           0.313
 91  7  2  5  7 44.9970000  0  5G17G21G23G 3G11
  20672848.407      339734.572 7    264729.22723        22.750           2.563
  21313893.782   -14783582.767 6 -11281850.05821        16.500           1.344
  19583430.642   -17826675.351 7 -13890902.80422        26.750           2.406
  22895196.384    12570159.315 5   9794918.58221         8.500           0.156
  23853416.509     -193478.763 4    -50244.97821         7.250           0.188
 91  7  2  5  7 59.9970000  0  5G17G21G23G 3G11
  20676632.603      359637.843 7    280238.25923        22.000           2.594
  21304990.095   -14830369.105 6 -11318306.90621        17.250           1.438
  19582552.884   -17831290.340 7 -13894498.91722        27.250           2.406
  22904803.337    12620626.019 5   9834243.20921         8.500           0.219
  23841156.931     -257948.764 5   -100481.25021         9.250           0.219
 91  7  2  5  8 14.9970000  0  5G17G21G23G 3G11
  20680430.032      379607.339 7    295798.90023        22.000           2.625
  21296098.642   -14877086.410 6 -11354709.97622        17.250           1.500
  19581692.329   -17835810.379 7 -13898021.02723        26.750           2.594
  22914413.157    12671154.117 5   9873615.70221         8.500           0.281
  23828886.228     -322403.861 5   -150705.97821         9.000           0.313
 91  7  2  5  8 29.9970000  0  5G17G21G23G 3G11
  20684245.368      399645.443 7    311413.00923        22.250           2.625
  21287225.259   -14923732.198 6 -11391057.31321        18.250           1.406
  19580851.095   -17840233.029 7 -13901467.25522        26.250           2.375
  22924044.767    12721745.814 5   9913037.75221         8.500           0.219
  23816624.267     -386841.024 5   -200916.71121         8.250           0.344
 91  7  2  5  8 44.9970000  0  5G17G21G23G 3G11
  20688070.563      419749.385 7    327078.42023        22.000           2.719
  21278360.845   -14970309.193 6 -11427351.05622        18.500           1.500
  19580026.923   -17844561.329 7 -13904839.95722        26.500           2.438
  22933677.001    12772398.067 5   9952506.97521         8.750           0.156
  23804372.978     -451262.803 5   -251115.45221         9.000           0.406
 91  7  2  5  8 59.9970000  0  5G17G21G23G 3G11
  20691909.376      439914.459 7    342791.45923        22.750           2.750
  21269509.126   -15016821.883 6 -11463594.67522        18.000           1.563
  19579220.884   -17848799.933 7 -13908142.74022        26.500           2.438
  22943326.431    12823105.775 5   9992019.42021         8.750           0.250
  23792112.188     -515673.533 5   -301305.55421         8.500           0.344
 91  7  2  5  9 14.9970000  0  5G17G21G23G 3G11
  20695760.657      460148.055 7    358557.89823        22.750           2.719
  21260670.493   -15063262.882 6 -11499782.45122        17.750           1.594
  19578431.774   -17852941.902 7 -13911370.24622        26.000           2.438
  22952990.845    12873875.947 5  10031580.52521         9.000           0.156
  23779856.399     -580065.623 5   -351481.17021         9.250           0.313
 91  7  2  5  9 29.9970000  0  5G17G21G23G 3G11
  20699619.282      480445.518 7    374374.09723        22.000           2.813
  21251847.938   -15109636.573 6 -11535917.75721        18.000           1.469
  19577662.431   -17856991.769 7 -13914525.98722        26.500           2.438
  22962662.821    12924703.696 5  10071186.50721         8.500           0.188
  23767607.376     -644443.321 5   -401645.55121         8.750           0.313
 91  7  2  5  9 44.9970000  0  5G17G21G23G 3G11
  20703492.892      500807.313 7    390240.42723        21.750           2.719
  21243034.720   -15155942.395 6 -11572000.18922        18.000           1.531
  19576909.337   -17860949.182 7 -13917609.66522        26.750           2.313
  22972348.688    12975589.414 5  10110837.64221         8.500           0.250
  23755360.485     -708805.695 5   -451798.00621        10.000           0.344
 91  7  2  5  9 59.9970000  0  5G17G21G23G 3G11
  20707385.735      521234.706 7    406157.86623        22.500           2.531
  21234236.149   -15202178.837 6 -11608028.54321        17.750           1.406
  19576173.876   -17864812.655 7 -13920620.16222        26.500           2.281
  22982048.485    13026534.119 5  10150534.74021         8.500           0.094
  23743117.009     -773151.063 5   -501937.24021         8.750           0.438
 91  7  2  5 10 14.9970000  0  5G17G21G23G 3G11
  20711283.868      541726.456 7    422125.44623        22.250           2.563
  21225451.806   -15248347.063 6 -11644003.76422        18.500           1.500
  19575456.806   -17868583.727 7 -13923558.66422        26.500           2.313
  22991748.110    13077536.298 5  10190276.62921         8.750           0.125
  23730872.353     -837480.348 5   -552063.86821         9.250           0.344
 91  7  2  5 10 29.9970000  0  5G17G21G23G 3G11
  20715196.657      562284.589 7    438144.77122        22.750           2.469
  21216679.938   -15294445.026 6 -11679924.22521        18.250           1.469
  19574756.290   -17872260.492 7 -13926423.68322        26.250           2.219
  23001465.688    13128597.700 5  10230064.67821         8.500           0.219
  23718635.938     -901791.174 5   -602176.20821         8.000           0.250
 91  7  2  5 10 44.9970000  0  5G17G21G23G 3G11
  20719118.556      582905.727 7    454213.18822        22.500           2.469
  21207919.321   -15340476.237 6 -11715792.67521        17.500           1.438
  19574073.790   -17875846.580 7 -13929218.02322        26.500           2.344
  23011190.024    13179714.266 5  10269895.71821         8.250           0.156
  23706397.290     -966086.888 5   -652276.75021         9.250           0.281
 91  7  2  5 10 59.9970000  0  5G17G21G23G 3G11
  20723056.454      603591.145 7    470331.69123        23.000           2.500
  21199173.673   -15386438.985 6 -11751607.77021        18.250           1.469
  19573409.423   -17879340.738 7 -13931940.74022        26.250           2.313
  23020927.665    13230887.291 5  10309770.72221         8.500           0.188
  23694164.728    -1030365.478 5   -702363.94721         8.250           0.313
 91  7  2  5 11 14.9970000  0  5G17G21G23G 3G11
  20727003.892      624338.025 7    486498.08323        22.750           2.500
  21190438.735   -15432335.890 6 -11787371.56522        18.250           1.531
  19572760.228   -17882745.825 7 -13934594.05022        25.750           2.313
  23030677.704    13282113.815 5  10349687.40821         8.250           0.250
  23681942.321    -1094629.406 5   -752439.68321         9.000           0.313
 91  7  2  5 11 29.9970000  0  5G17G21G23G 3G11
  20730959.759      645147.973 7    502713.61822        22.250           2.438
  21181719.142   -15478165.485 6 -11823082.90922        18.750           1.625
  19572129.907   -17886060.290 7 -13937176.74922        25.750           2.375
  23040431.048    13333394.847 5  10389646.58221         7.750           0.219
  23669720.173    -1158876.743 5   -802502.56221        10.000           0.438
 91  7  2  5 11 44.9970000  0  5G17G21G23G 3G11
  20734935.056      666021.476 7    518978.68822        22.750           2.438
  21173011.220   -15523927.179 6 -11858741.34822        18.250           1.500
  19571516.517   -17889283.949 7 -13939688.69622        25.750           2.375
  23050204.524    13384730.858 5  10429648.59921         8.500           0.188
  23657493.470    -1223106.991 5   -852551.97421         9.000           0.281
 91  7  2  5 11 59.9970000  0  5G17G21G23G 3G11
  20738920.353      686960.867 7    535295.09123        22.750           2.531
  21164316.524   -15569618.507 6 -11894344.94122        19.000           1.594
  19570920.095   -17892414.467 7 -13942128.04922        25.500           2.375
  23059989.985    13436123.834 5  10469695.02621         8.250           0.094
  23645269.196    -1287317.143 5   -902585.86721         9.250           0.188
 91  7  2  5 12 14.9970000  0  5G17G21G23G 3G11
  20742918.017      707963.726 7    551660.95022        23.000           2.375
  21155632.501   -15615241.425 6 -11929895.23921        18.500           1.469
  19570342.446   -17895454.120 7 -13944496.59722        26.250           2.344
  23069774.751    13487571.130 5  10509783.74321         7.750           0.188
  23633050.345    -1351509.190 4   -952605.60421         7.250           0.375
 91  7  2  5 12 29.9970000  0  5G17G21G23G 3G11
  20746924.813      729026.825 7    568073.75022        22.500           2.469
  21146962.142   -15660799.318 6 -11965394.86322        18.000           1.656
  19569781.556   -17898406.370 7 -13946797.04222        26.500           2.375
  23079569.056    13539069.205 5  10549912.01021         7.750           0.219
  23620845.993    -1415686.001 5  -1002613.41821         9.500           0.281
 91  7  2  5 12 44.9970000  0  5G17G21G23G 3G11
  20750942.267      750149.199 7    584532.73522        22.500           2.438
  21138307.704   -15706293.163 6 -12000844.57822        18.500           1.563
  19569235.923   -17901272.384 7 -13949030.28022        26.500           2.281
  23089385.767    13590616.744 5  10590078.86721         7.500           0.125
  23608633.462    -1479848.435 5  -1052610.16021         8.000           0.281
 91  7  2  5 12 59.9970000  0  5G17G21G23G 3G11
  20754975.876      771335.072 7    601041.21322        23.000           2.438
  21129662.110   -15751718.599 6 -12036240.99422        17.750           1.531
  19568705.813   -17904048.228 7 -13951193.27422        26.000           2.375
  23099200.188    13642217.362 5  10630287.06921         7.500           0.125
  23596429.438    -1543992.056 5  -1102592.23821         9.250           0.500
 91  7  2  5 13 14.9970000  0  5G17G21G23G 3G11
  20759018.470      792588.459 7    617602.29722        22.000           2.469
  21121033.040   -15797071.325 6 -12071580.74222        18.250           1.656
  19568195.907   -17906729.827 7 -13953282.80322        26.250           2.313
  23109036.540    13693875.176 5  10670539.81421         7.750           0.188
  23584229.798    -1608112.004 5  -1152555.79321         9.000           0.281
 91  7  2  5 13 29.9970000  0  5G17G21G23G 3G11
  20763078.063      813909.659 7    634216.21822        22.750           2.438
  21112416.688   -15842351.126 6 -12106863.67122        18.250           1.563
  19567704.860   -17909316.952 7 -13955298.74422        26.250           2.250
  23118875.063    13745590.164 4  10710837.15321         7.250           0.156
  23572025.438    -1672207.855 4  -1202500.62121         7.250           0.250
 91  7  2  5 13 44.9970000  0  5G17G21G23G 3G11
  20767145.360      835293.823 7    650879.19622        22.500           2.375
  21103812.603   -15887562.619 6 -12142093.37822        18.500           1.656
  19567227.884   -17911814.344 7 -13957244.76522        25.750           2.344
  23128727.470    13797357.311 4  10751175.07121         6.750           0.219
  23559840.532    -1736283.796 5  -1252429.88321         9.750           0.531
 91  7  2  5 13 59.9970000  0  5G17G21G23G 3G11
  20771229.688      856745.664 7    667594.92322        22.500           2.375
  21095224.110   -15932701.163 6 -12177266.23822        19.000           1.531
  19566772.024   -17914217.760 7 -13959117.52922        25.250           2.406
  23138593.048    13849180.868 5  10791556.97721         7.750           0.125
  23547644.681    -1800335.042 4  -1302339.82921         7.250           0.313
 91  7  2  5 14 14.9970000  0  5G17G21G23G 3G11
  20775322.524      878262.968 7    684361.65922        22.000           2.375
  21086647.399   -15977768.844 6 -12212383.87822        18.750           1.719
  19566331.563   -17916529.332 7 -13960918.74222        25.250           2.406
  23148457.399    13901058.270 4  10831980.83921         7.000           0.094
  23535470.188    -1864363.497 5  -1352232.07021        11.250           0.250
 91  7  2  5 14 29.9970000  0  5G17G21G23G 3G11
  20779430.485      899843.995 7    701178.04422        22.250           2.344
  21078082.095   -16022767.097 6 -12247447.42022        18.500           1.625
  19565908.923   -17918750.820 7 -13962649.75622        25.500           2.375
  23158333.587    13952987.650 4  10872445.25421         6.750           0.188
  23523280.118    -1928370.346 5  -1402107.54521         7.750           0.438
 91  7  2  5 14 44.9970000  0  5G17G21G23G 3G11
  20783549.524      921489.667 7    718044.79622        22.250           2.250
  21069535.673   -16067694.779 6 -12282455.97122        19.250           1.625
  19565504.095   -17920881.459 7 -13964309.98522        25.500           2.438
  23168234.376    14004969.684 5  10912950.63921         7.750           0.188
  23511107.563    -1992354.371 5  -1451965.03021        10.250           0.344
 91  7  2  5 14 59.9970000  0  5G17G21G23G 3G11
  20787682.603      943201.484 7    734963.08722        22.250           2.344
  21061000.704   -16112550.534 6 -12317408.46622        19.500           1.625
  19565115.970   -17922919.870 7 -13965898.35322        25.250           2.438
  23178135.290    14057005.526 4  10953497.99121         7.000           0.188
  23498936.634    -2056313.660 5  -1501803.48321         9.750           0.219
 91  7  2  5 15 14.9970000  0  5G17G21G23G 3G11
  20791823.915      964975.946 7    751930.19422        22.000           2.250
  21052476.392   -16157337.593 6 -12352307.42822        19.250           1.719
  19564744.071   -17924869.646 7 -13967417.65523        25.500           2.563
  23188046.665    14109091.497 4  10994084.34421         6.500           0.188
  23486774.540    -2120251.374 5  -1551624.97521         9.250           0.500
 91  7  2  5 15 29.9970000  0  5G17G21G23G 3G11
  20795980.876      986808.848 7    768942.85222        22.250           2.375
  21043965.431   -16202059.968 6 -12387156.00122        18.750           1.781
  19564390.345   -17926735.162 7 -13968871.31623        25.500           2.531
  23197973.743    14161222.993 5  11034706.15621         7.750           0.250
  23474611.228    -2184171.119 5  -1601432.46221        10.750           0.313
 91  7  2  5 15 44.9970000  0  5G17G21G23G 3G11
  20800144.907     1008706.659 7    786006.07122        21.750           2.219
  21035467.040   -16246711.100 6 -12421949.05922        18.500           1.750
  19564052.548   -17928510.021 7 -13970254.32922        26.000           2.438
  23207897.001    14213406.275 5  11075368.39621         7.500           0.125
  23462444.892    -2248066.479 5  -1651221.11221         8.250           0.344
 91  7  2  5 15 59.9970000  0  5G17G21G23G 3G11
  20804323.478     1030668.686 7    803119.33522        21.250           2.344
  21026983.673   -16291291.546 6 -12456687.02622        18.250           1.594
  19563732.274   -17930194.988 7 -13971567.29822        25.750           2.438
  23217845.048    14265640.335 4  11116070.17621         7.250           0.156
  23450298.618    -2311937.385 5  -1700990.61021        11.500           0.531
 91  7  2  5 16 14.9970000  0  5G17G21G23G 3G11
  20808519.110     1052689.218 7    820278.20522        22.250           2.219
  21018514.040   -16335807.234 6 -12491374.54722        19.000           1.750
  19563425.384   -17931795.999 7 -13972814.82122        25.250           2.406
  23227779.712    14317919.129 4  11156806.79021         6.750           0.188
  23438143.946    -2375789.474 5  -1750745.40521         8.500           0.313
 91  7  2  5 16 29.9970000  0  5G17G21G23G 3G11
  20812718.063     1074776.567 7    837489.10622        21.500           2.344
  21010055.774   -16380249.454 6 -12526004.80622        18.500           1.813
  19563140.290   -17933304.693 7 -13973990.41222        25.250           2.438
  23237748.298    14370250.697 4  11197584.57021         7.250           0.125
  23426002.446    -2439613.817 5  -1800478.61321        11.500           0.344
 91  7  2  5 16 44.9970000  0  5G17G21G23G 3G11
  20816936.673     1096929.835 7    854751.39422        22.000           2.250
  21001613.376   -16424618.972 6 -12560578.42722        19.000           1.844
  19562870.798   -17934721.914 7 -13975094.74622        25.250           2.469
  23247711.040    14422634.106 4  11238402.68621         7.000           0.188
  23413857.392    -2503410.844 5  -1850190.57321         9.250           0.469
 91  7  2  5 16 59.9970000  0  5G17G21G23G 3G11
  20821160.501     1119145.602 7    872062.36622        21.250           2.188
  20993182.392   -16468919.435 6 -12595098.23622        18.500           1.813
  19562617.868   -17936051.583 7 -13976130.86122        25.250           2.438
  23257696.126    14475065.242 5  11279258.01721         8.000           0.219
  23401727.399    -2567184.164 5  -1899883.94521        11.500           0.219
 91  7  2  5 17 14.9970000  0  4G17G21G23G11
  20825401.079     1141421.073 7    889419.88422        21.500           2.094
  20984764.759   -16513153.431 6 -12629566.24022        18.750           1.875
  19562379.642   -17937296.357 7 -13977100.81423        25.250           2.625
  23389588.571    -2630935.847 5  -1949560.64521        10.750           0.500
 91  7  2  5 17 29.9970000  0  4G17G21G23G11
  20829651.798     1163759.464 7    906826.41222        21.500           2.094
  20976361.993   -16557317.372 6 -12663979.66722        19.250           1.875
  19562160.563   -17938453.127 7 -13978002.20322        25.500           2.406
  23377464.329    -2694662.389 5  -1999217.61421        10.750           0.531
 91  7  2  5 17 44.9970000  0  4G17G21G23G11
  20833914.181     1186158.967 7    924280.56422        21.500           2.281
  20967969.524   -16601413.143 6 -12698339.96322        18.750           1.813
  19561956.813   -17939523.943 7 -13978836.59523        25.500           2.531
  23365342.399    -2758365.140 5  -2048856.11821        11.000           0.438
 91  7  2  5 17 59.9970000  0  4G17G21G23G11
  20838189.142     1208621.195 7    941783.58922        21.500           2.188
  20959591.696   -16645438.877 6 -12732645.69122        19.250           1.875
  19561770.423   -17940507.174 7 -13979602.74423        25.250           2.625
  23353219.962    -2822042.103 5  -2098474.52121        10.000           0.500
 91  7  2  5 18 14.9970000  0  4G17G21G23G11
  20842473.657     1231147.045 7    959336.18222        21.250           2.125
  20951228.478   -16689393.890 6 -12766896.31322        19.000           1.813
  19561597.821   -17941402.059 7 -13980300.04122        25.250           2.469
  23341106.821    -2885691.896 5  -2148071.74921        11.000           0.563
 91  7  2  5 18 29.9970000  0  4G17G21G23G11
  20846768.360     1253733.726 7    976936.18722        21.000           2.156
  20942877.353   -16733280.749 7 -12801093.81722        20.000           1.813
  19561445.735   -17942211.459 7 -13980930.70123        25.500           2.563
  23329004.024    -2949317.156 5  -2197649.87721        10.500           0.406
 91  7  2  5 18 44.9970000  0  4G17G21G23G11
  20851081.196     1276377.239 7    994580.47422        20.750           2.125
  20934536.853   -16777103.345 7 -12835241.25422        20.000           1.750
  19561304.681   -17942939.541 7 -13981498.01323        25.250           2.531
  23316905.478    -3012921.316 5  -2247211.57921        11.500           0.531
 91  7  2  5 18 59.9970000  0  4G17G21G23G11
  20855402.563     1299087.341 7   1012276.65722        20.750           2.156
  20926213.704   -16820851.609 7 -12869330.77322        20.250           1.875
  19561186.618   -17943576.748 7 -13981994.53923        25.000           2.656
  23304811.079    -3076494.222 5  -2296748.86721        11.500           0.344
 91  7  2  5 19 14.9970000  0  4G17G21G23G11
  20859737.884     1321865.851 7   1030026.15222        21.250           2.094
  20917903.470   -16864523.850 7 -12903361.04122        20.000           1.813
  19561081.728   -17944121.294 7 -13982418.84623        25.250           2.563
  23292714.188    -3140033.700 5  -2346260.15121         9.750           0.438
 91  7  2  5 19 29.9970000  0  4G17G21G23G11
  20864084.048     1344711.332 7   1047827.82022        21.000           2.156
  20909604.970   -16908121.327 6 -12937333.06122        19.750           1.938
  19560997.243   -17944574.788 7 -13982772.21423        25.500           2.625
  23280628.235    -3203540.939 5  -2395746.31721        10.750           0.469
 91  7  2  5 19 44.9970000  0  4G17G21G23G11
  20868444.649     1367617.844 7   1065677.04822        21.250           2.125
  20901324.884   -16951649.909 7 -12971251.40522        20.500           1.938
  19560927.563   -17944943.214 7 -13983059.31123        25.000           2.625
  23268552.181    -3267021.276 5  -2445211.51821        10.000           0.438
 91  7  2  5 19 59.9970000  0  4G17G21G23G11
  20872816.642     1390587.995 7   1083575.87222        20.750           2.125
  20893055.110   -16995106.799 7 -13005113.87422        20.750           1.906
  19560869.329   -17945223.829 7 -13983277.97223        24.500           2.500
  23256473.962    -3330471.971 5  -2494653.53621        10.750           0.500
 91  7  2  5 20 14.9970000  0  4G17G21G23G11
  20877199.024     1413625.377 7   1101527.08222        21.500           2.156
  20884797.376   -17038488.183 6 -13038917.51522        19.750           1.906
  19560835.032   -17945413.232 7                        25.500
  23244403.462    -3393888.665 5  -2544069.14921        10.250           0.438
 91  7  2  5 20 29.9970000  0  4G17G21G23G11
  20881592.806     1436727.391 7   1119528.64722        21.000           2.125
  20876555.079   -17081796.766 6 -13072664.41622        19.750           2.031
  19560817.095   -17945514.175 7                        25.500
  23232337.321    -3457273.867 5  -2593460.15721        10.000           0.500
 91  7  2  5 20 44.9970000  0  4G17G21G23G11
  20886005.407     1459890.764 7   1137578.02822        21.500           2.125
  20868328.149   -17125035.522 6 -13106356.90622        19.500           1.938
  19560813.329   -17945529.877 7                        24.750
  23220290.407    -3520630.195 5  -2642828.69321        11.000           0.344
 91  7  2  5 20 59.9970000  0  4G17G21G23G11
  20890422.188     1483119.118 7   1155678.03122        21.000           2.063
  20860113.478   -17168200.883 6 -13139992.21122        19.750           2.000
  19560827.384   -17945457.065 7                        25.250
  23208239.829    -3583953.912 5  -2692171.81521        10.250           0.406
 91  7  2  5 21 14.9970000  0  4G17G21G23G11
  20894856.603     1506411.801 7   1173828.16222        21.500           2.094
  20851913.431   -17211293.223 7 -13173570.61922        20.250           1.938
  19560858.454   -17945296.301 7                        25.000
  23196190.524    -3647244.970 5  -2741489.47721        11.000           0.563
 91  7  2  5 21 29.9970000  0  4G17G21G23G11
  20899301.509     1529769.508 7   1192028.96322        21.750           2.125
  20843727.103   -17254311.865 7 -13207091.60922        20.000           1.875
  19560903.579   -17945047.135 7                        25.250
  23184152.759    -3710502.599 5  -2790781.08821         9.250           0.500
 91  7  2  5 21 44.9970000  0  4G17G21G23G11
  20903758.438     1553193.420 7   1210281.36022        21.500           2.000
  20835555.681   -17297255.476 7 -13240554.12322        20.250           1.875
  19560971.509   -17944708.617 7 -13982876.45423        25.000           2.594
  23172126.353    -3773725.107 5  -2840045.35221        11.500           0.344
 91  7  2  5 21 59.9970000  0  4G17G21G23G11
  20908225.860     1576674.993 7   1228578.66522        21.250           2.000
  20827396.899   -17340132.452 7 -13273964.71122        20.250           1.906
  19561049.259   -17944289.232 7 -13982549.63123        25.250           2.563
  23160090.618    -3836920.643 5  -2889288.61221         8.500           0.500
 91  7  2  5 22 14.9970000  0  4G17G21G23G11
  20912707.720     1600223.953 7   1246928.48922        21.250           2.031
  20819251.962   -17382932.801 7 -13307315.58822        20.000           2.031
  19561148.774   -17943779.369 7 -13982152.32123        24.750           2.719
  23148082.228    -3900078.839 5  -2938502.72421        11.250           0.313
 91  7  2  5 22 29.9970000  0  4G17G21G23G11
  20917199.782     1623834.769 7   1265326.50822        21.000           1.844
  20811121.649   -17425662.149 7 -13340611.14722        20.250           1.906
  19561260.868   -17943184.748 7 -13981688.98023        25.250           2.813
  23136067.267    -3963205.215 5  -2987692.12721         9.500           0.594
 91  7  2  5 22 44.9970000  0  4G17G21G23G11
  20921707.485     1647505.751 7   1283771.41922        21.500           1.938
  20803001.798   -17468322.326 7 -13373852.80822        20.000           1.906
  19561386.313   -17942507.099 7 -13981160.94223        24.750           2.594
  23124062.313    -4026301.197 5  -3036857.70221        11.750           0.500
 91  7  2  5 22 59.9970000  0  4G17G21G23G11
  20926218.899     1671235.835 7   1302262.38022        21.250           1.969
  20794898.438   -17510914.132 6 -13407041.18122        19.750           1.906
  19561531.532   -17941747.631 7 -13980569.17323        25.000           2.656
  23112058.157    -4089367.360 5  -3086000.15821        10.250           0.469
 91  7  2  5 23 14.9970000  0  4G17G21G23G11
  20930745.634     1695028.231 7   1320801.89722        21.000           1.938
  20786806.110   -17553434.303 6 -13440173.73622        19.500           1.906
  19561694.407   -17940903.154 7 -13979911.12523        24.750           2.656
  23100070.267    -4152399.982 5  -3135116.46021        11.500           0.625
 91  7  2  5 23 29.9970000  0  4G17G21G23G11
  20935285.649     1718880.326 7   1339387.93622        21.500           2.000
  20778726.368   -17595885.343 6 -13473252.42922        19.000           1.906
  19561869.095   -17939976.379 7 -13979188.93623        24.750           2.625
  23088078.938    -4215401.290 5  -3184208.33721        11.000           0.438
 91  7  2  5 23 44.9970000  0  4G17G21G23G11
  20939836.876     1742796.006 7   1358023.52022        21.250           2.000
  20770665.048   -17638263.071 7 -13506273.98822        20.250           1.969
  19562063.774   -17938963.461 7 -13978399.64623        24.750           2.625
  23076089.384    -4278366.942 5  -3233272.49721        10.500           0.406
 91  7  2  5 23 59.9970000  0  4G17G21G23G11
  20944404.157     1766782.164 7   1376714.02622        21.500           2.031
  20762614.368   -17680560.540 6 -13539233.01722        19.500           1.969
  19562272.556   -17937857.754 7 -13977538.05123        25.000           2.656
  23064121.329    -4341289.464 5  -3282303.04321        11.000           0.531
 91  7  2  5 24 14.9970000  0  4G17G21G23G11
  20948979.837     1790836.561 7   1395457.69422        21.250           1.938
  20754581.103   -17722779.837 6 -13572131.12222        19.500           2.125
  19562501.774   -17936661.680 7 -13976606.03223        25.250           2.625
  23052152.829    -4404170.913 5  -3331301.47221        10.750           0.375
 91  7  2  5 24 29.9970000  0  4G17G21G23G11
  20953569.079     1814954.600 7   1414250.97322        21.250           2.031
  20746560.470   -17764925.633 6 -13604971.95722        19.750           2.000
  19562744.556   -17935379.916 7 -13975607.25123        25.000           2.719
  23040196.798    -4467015.489 6  -3380271.28321        12.000           0.406
 91  7  2  5 24 44.9970000  0  4G17G21G23G11
  20958171.423     1839135.910 7   1433093.54122        21.000           2.063
  20738553.978   -17806998.293 6 -13637755.80522        19.750           2.031
  19563004.001   -17934012.902 7 -13974542.03323        25.250           2.688
  23028239.470    -4529823.247 5  -3429212.37721        10.250           0.500
 91  7  2  5 24 59.9970000  0  4G17G21G23G11
  20962785.907     1863382.443 7   1451986.93022        21.000           2.063
  20730563.540   -17848995.508 6 -13670480.86322        19.750           2.031
  19563281.673   -17932558.714 7 -13973408.87623        25.000           2.656
  23016298.782    -4592591.699 6  -3478122.79121        12.000           0.375
 91  7  2  5 25 14.9970000  0  4G17G21G23G11
  20967410.017     1887689.810 7   1470927.72822        21.250           1.875
  20722584.853   -17890921.692 6 -13703150.57622        19.750           2.094
  19563572.517   -17931021.713 7 -13972211.20223        24.750           2.719
  23004360.626    -4655324.864 5  -3527005.86521        10.750           0.438
 91  7  2  5 25 29.9970000  0  4G17G21G23G11
  20972048.321     1912061.329 7   1489918.51422        21.000           1.938
  20714618.548   -17932773.319 6 -13735762.19522        19.750           2.031
  19563882.798   -17929398.892 7 -13970946.63723        25.250           2.688
  22992433.290    -4718019.047 6  -3575858.43421        12.250           0.469
 91  7  2  5 25 44.9970000  0  4G17G21G23G11
  20976694.509     1936489.548 7   1508953.48022        20.750           1.969
  20706669.399   -17974557.669 7 -13768321.40822        20.000           2.125
  19564205.103   -17927697.737 7 -13969621.05723        24.750           2.688
  22980501.821    -4780681.221 5  -3624686.10521        11.250           0.469
 91  7  2  5 25 59.9970000  0  4G17G21G23G11
  20981356.407     1960981.397 7   1528038.02522        20.750           1.906
  20698730.868   -18016267.867 6 -13800822.83522        19.000           2.000
  19564545.524   -17925911.392 7 -13968229.08223        24.750           2.750
  22968588.618    -4843304.098 5  -3673483.16721        11.500           0.406
 91  7  2  5 26 14.9970000  0  4G17G21G23G11
  20986033.353     1985543.278 7   1547177.13722        20.500           1.813
  20690808.774   -18057897.225 6 -13833261.25622        18.750           2.031
  19564903.954   -17924033.269 7 -13966765.56123        25.000           2.688
  22956679.157    -4905880.648 6  -3722244.07421        12.000           0.438
 91  7  2  5 26 29.9970000  0  4G17G21G23G11
  20990714.587     2010167.817 7   1566365.08222        20.250           1.844
  20682902.634   -18099453.164 6 -13865642.46522        19.500           2.031
  19565277.071   -17922071.403 7 -13965236.80523        25.250           2.813
  22944783.759    -4968418.220 5  -3770974.60121        11.500           0.375
 91  7  2  5 26 44.9970000  0  4G17G21G23G11
  20995415.610     2034854.799 7   1585601.68722        20.250           1.781
  20675008.821   -18140935.934 6 -13897966.64822        19.250           1.938
  19565665.298   -17920026.203 7 -13963643.13323        24.750           2.813
  22932889.243    -5030916.648 6  -3819674.66421        12.750           0.625
 91  7  2  5 26 59.9970000  0  4G17G21G23G11
  21000125.524     2059602.374 7   1604885.50322        20.250           1.813
  20667127.829   -18182346.836 6 -13930234.81922        19.500           2.000
  19566072.938   -17917899.073 7 -13961985.64823        25.250           2.750
  22920997.563    -5093376.870 5  -3868344.93721        11.250           0.500
 91  7  2  5 27 14.9970000  0  4G17G21G23G11
  21004847.220     2084412.515 7   1624218.06722        20.250           1.906
  20659260.485   -18223684.199 6 -13962445.70722        18.750           2.125
  19566490.095   -17915688.410 7 -13960263.09823        24.750           2.750
  22909126.360    -5155796.865 6  -3916983.86221        13.000           0.375
 91  7  2  5 27 29.9970000  0  4G17G21G23G11
  21009579.571     2109283.740 7   1643598.23222        20.250           1.719
  20651409.462   -18264949.257 6 -13994600.25322        19.500           2.063
  19566925.540   -17913395.706 7 -13958476.62123        24.750           2.656
  22897248.728    -5218177.501 5  -3965592.17321        10.500           0.563
 91  7  2  5 27 44.9970000  0  4G17G21G23G11
  21014322.095     2134212.248 7   1663023.04122        20.000           1.813
  20643569.079   -18306145.777 6 -14026701.38622        19.500           1.969
  19567377.353   -17911024.899 7 -13956629.25123        24.750           2.813
  22885385.821    -5280522.386 6  -4014172.48521        12.000           0.531
 91  7  2  5 27 59.9960000  0  4G17G21G23G11
  21019078.231     2159215.060 7   1682505.73222        20.000           1.781
  20635748.043   -18347252.419 6 -14058732.49822        19.750           2.031
  19567849.387   -17908557.725 7 -13954706.78923        25.250           2.844
  22873532.949    -5342808.280 5  -4062706.97721        10.750           0.563
 91  7  2  5 28 14.9960000  0  4G17G21G23G11
  21023848.973     2184274.999 7   1702032.95622        20.000           1.813
  20627937.723   -18388295.053 6 -14090713.75522        19.500           2.125
  19568330.801   -17906014.534 7 -13952725.09923        24.750           2.813
  22861694.465    -5405063.661 6  -4111217.60021        12.250           0.563
 91  7  2  5 28 29.9960000  0  4G17G21G23G11
  21028626.785     2209399.208 6   1721610.24722        19.500           1.813
  20620140.856   -18429261.866 6 -14122635.95222        19.500           2.156
  19568832.191   -17903386.580 7 -13950677.32723        25.250           2.781
  22849850.262    -5467274.966 5  -4159693.93321        11.500           0.469
 91  7  2  5 28 44.9960000  0  4G17G21G23G11
  21033424.668     2234590.966 7   1741240.18622        20.000           1.656
  20612359.527   -18470149.252 6 -14154496.22122        19.000           2.125
  19569350.965   -17900670.656 7 -13948560.99123        25.500           2.844
  22838018.137    -5529438.542 5  -4208133.07721        11.750           0.625
 91  7  2  5 28 59.9960000  0  4G17G21G23G11
  21038229.731     2259849.648 6   1760922.26422        19.500           1.781
  20604595.066   -18510957.860 6 -14186295.06822        19.250           2.031
  19569882.613   -17897867.597 7 -13946376.79423        25.250           2.906
  22826197.191    -5591554.611 5  -4256535.21021        11.500           0.563
 91  7  2  5 29 14.9960000  0  4G17G21G23G11
  21043046.645     2285163.695 6   1780647.48822        19.250           1.719
  20596842.684   -18551699.202 6 -14218041.53222        19.250           2.094
  19570431.926   -17894988.835 7 -13944133.62723        25.500           2.875
  22814386.121    -5653634.133 5  -4304908.77421        11.250           0.469
 91  7  2  5 29 29.9960000  0  4G17G21G23G11
  21047876.856     2310533.983 6   1800416.54022        19.250           1.844
  20589102.848   -18592372.259 6 -14249734.80422        19.500           2.125
  19570992.191   -17892033.537 7 -13941830.79623        25.000           2.875
  22802580.332    -5715675.678 6  -4353252.81221        12.250           0.531
 91  7  2  5 29 44.9960000  0  4G17G21G23G11
  21052713.191     2335965.188 6   1820233.05722        19.250           1.813
  20581374.934   -18632972.397 6 -14281371.24522        19.250           2.031
  19571570.434   -17888997.508 7 -13939465.05223        25.750           2.906
  22790784.496    -5777674.590 5  -4401563.58121        11.000           0.563
 91  7  2  5 29 59.9960000  0  4G17G21G23G11
  21057566.051     2361460.825 6   1840099.77422        18.750           1.781
  20573663.731   -18673495.960 6 -14312948.01222        19.500           2.094
  19572163.699   -17885877.287 7 -13937033.71123        25.250           2.844
  22778998.465    -5839627.015 6  -4449838.14221        13.000           0.469
 91  7  2  5 30 14.9960000  0  4G17G21G23G11
  21062430.035     2387019.717 6   1860015.78522        18.750           1.719
  20565968.223   -18713944.067 7 -14344465.97922        20.000           2.063
  19572777.418   -17882674.078 7 -13934537.70723        26.000           2.906
  22767215.934    -5901533.553 5  -4498076.99421        10.750           0.500
 91  7  2  5 30 29.9960000  0  4G17G21G23G11
  21067306.652     2412644.254 6   1879982.95422        18.500           1.688
  20558285.871   -18754314.044 6 -14375923.09922        19.750           2.125
  19573400.012   -17879385.569 7 -13931975.23023        25.500           2.938
  22755440.996    -5963391.102 6  -4546277.56821        12.750           0.656
 91  7  2  5 30 44.9960000  0  4G17G21G23G11
  21072193.066     2438327.195 6   1899995.62422        18.750           1.688
  20550614.137   -18794613.116 6 -14407324.98522        19.250           2.094
  19574039.785   -17876019.065 7 -13929351.97123        25.500           3.031
  22743679.137    -6025206.646 5  -4594445.48721        10.750           0.406
 91  7  2  5 30 59.9960000  0  4G17G21G23G11
  21077092.082     2464071.263 6   1920055.92422        18.250           1.688
  20542962.129   -18834838.259 6 -14438669.19422        19.750           2.188
  19574697.074   -17872571.648 7 -13926665.67323        25.500           2.938
  22731924.113    -6086977.065 6  -4642578.20121        12.750           0.688
 91  7  2  5 31 14.9960000  0  4G17G21G23G11
  21081997.840     2489880.278 6   1940166.83422        17.750           1.656
  20535323.910   -18874986.091 7 -14469953.18322        20.500           2.156
  19575368.879   -17869040.044 7 -13923913.78523        25.500           2.969
  22720181.301    -6148698.281 5  -4690672.58221        11.500           0.594
 91  7  2  5 31 29.9960000  0  4G17G21G23G11
  21086924.949     2515757.391 6   1960330.81622        18.250           1.625
  20527696.871   -18915053.135 7 -14501174.24722        20.500           2.188
  19576056.848   -17865421.184 7 -13921093.89523        25.000           2.969
  22708450.098    -6210366.834 6  -4738725.92921        12.750           0.469
 91  7  2  5 31 44.9960000  0  4G17G21G23G11
  21091860.012     2541690.544 6   1980538.44422        18.250           1.594
  20520085.152   -18955051.038 7 -14532341.41822        20.500           2.250
  19576761.496   -17861727.036 7 -13918215.35023        25.000           2.969
  22696716.488    -6271994.101 6  -4786747.19221        12.000           0.594
 91  7  2  5 31 59.9960000  0  4G17G21G23G11
  21096806.176     2567679.510 6   2000789.56922        18.500           1.563
  20512487.801   -18994980.031 7 -14563454.89422        20.750           2.250
  19577477.309   -17857958.030 7 -13915278.47523        24.750           2.906
  22685000.348    -6333579.822 6  -4834735.96721        12.750           0.531
 91  7  2  5 32 14.9960000  0  4G17G21G23G11
  21101766.488     2593730.179 6   2021088.78822        18.500           1.563
  20504903.801   -19034834.192 7 -14594510.05622        20.250           2.188
  19578209.981   -17854108.462 7 -13912278.80323        24.750           2.969
  22673290.887    -6395117.724 6  -4882687.58821        13.500           0.531
 91  7  2  5 32 29.9960000  0  4G17G21G23G11
  21106736.121     2619843.729 6   2041436.99122        18.750           1.500
  20497334.809   -19074611.975 7 -14625505.68922        20.750           2.156
  19578957.059   -17850176.998 7 -13909215.30423        24.500           2.969
  22661586.848    -6456606.092 6  -4930600.58821        12.750           0.688
 91  7  2  5 32 44.9960000  0  4G17G21G23G11
  21111718.824     2646024.811 6   2061837.82421        18.750           1.406
  20489781.918   -19114309.312 7 -14656438.65822        21.000           2.281
  19579721.441   -17846159.518 7 -13906084.78023        24.250           3.000
  22649901.301    -6518040.268 6  -4978471.36721        13.500           0.563
 91  7  2  5 32 59.9960000  0  4G17G21G23G11
  21116712.629     2672268.828 6   2082287.69322        18.750           1.531
  20482242.691   -19153930.367 7 -14687312.16422        21.250           2.219
  19580503.285   -17842060.458 7 -13902890.70923        24.750           2.969
  22638217.277    -6579424.254 6  -5026303.05621        12.750           0.625
 91  7  2  5 33 14.9960000  0  4G17G21G23G11
  21121716.918     2698571.340 6   2102783.14622        18.750           1.500
  20474714.910   -19193479.499 7 -14718129.61922        20.750           2.250
  19581298.418   -17837884.305 7 -13899636.53523        24.750           3.000
  22626546.387    -6640762.176 6  -5074098.81421        13.500           0.563
 91  7  2  5 33 29.9960000  0  4G17G21G23G11
  21126731.488     2724927.574 6   2123320.45021        18.500           1.469
  20467203.035   -19232961.091 7 -14748894.46722        21.250           2.250
  19582104.481   -17833635.799 7 -13896326.03723        24.250           3.031
  22614884.496    -6702058.000 6  -5121861.79621        13.000           0.375
 91  7  2  5 33 44.9960000  0  4G17G21G23G11
  21131762.684     2751346.784 6   2143906.83621        19.250           1.438
  20459703.887   -19272365.885 7 -14779599.47122        20.750           2.313
  19582930.371   -17829305.724 7 -13892951.99323        24.750           3.063
  22603219.129    -6763302.000 6  -5169584.40821        13.000           0.656
 91  7  2  5 33 59.9960000  0  4G17G21G23G11
  21136799.207     2777825.032 6   2164539.22822        18.750           1.531
  20452220.715   -19311697.846 7 -14810247.74622        21.250           2.188
  19583767.504   -17824898.195 7 -13889517.55723        24.250           3.063
  22591582.848    -6824497.742 6  -5217269.38521        13.500           0.594
 91  7  2  5 34 14.9960000  0  4G17G21G23G11
  21141845.590     2804355.591 6   2185212.37422        18.250           1.531
  20444746.066   -19350963.516 7 -14840844.40722        21.250           2.125
  19584620.606   -17820420.165 7 -13886028.18823        24.750           3.031
  22579943.309    -6885651.631 6  -5264921.72121        13.250           0.563
 91  7  2  5 34 29.9960000  0  4G17G21G23G11
  21146906.418     2830951.253 6   2205936.25822        18.500           1.563
  20437291.723   -19390150.116 7 -14871379.41522        21.500           2.281
  19585488.356   -17815859.075 7 -13882474.08523        24.250           3.063
  22568316.723    -6946750.540 6  -5312531.24821        13.500           0.688
 91  7  2  5 34 44.9960000  0  4G17G21G23G11
  21151978.902     2857607.662 6   2226707.47521        18.750           1.438
  20429846.996   -19429261.992 7 -14901856.14822        21.000           2.250
  19586372.449   -17811219.334 7 -13878858.71723        24.250           3.063
  22556694.426    -7007798.326 6  -5360100.88821        13.500           0.656
 91  7  2  5 34 59.9960000  0  4G17G21G23G11
  21157063.410     2884322.397 6   2247524.14322        18.500           1.594
  20422417.731   -19468301.433 7 -14932276.46622        20.500           2.156
  19587268.481   -17806503.390 7 -13875183.95623        24.500           3.094
  22545092.012    -7068797.038 6  -5407632.35621        14.250           0.594
 91  7  2  5 35 14.9960000  0  4G17G21G23G11
  21162153.832     2911094.733 6   2268385.68822        18.250           1.531
  20415002.738   -19507268.965 7 -14962640.76222        21.750           2.250
  19588181.176   -17801712.113 7 -13871450.50723        23.750           3.125
  22533492.598    -7129746.850 6  -5455125.71021        13.250           0.688
 91  7  2  5 35 29.9960000  0  4G17G21G23G11
  21167263.559     2937927.952 6   2289294.67822        18.750           1.500
  20407600.113   -19546161.417 7 -14992946.56522        20.750           2.344
  19589106.949   -17796842.404 7 -13867655.93623        24.000           3.250
  22521903.965    -7190644.208 6  -5502578.15021        14.000           0.656
 91  7  2  5 35 44.9960000  0  4G17G21G23G11
  21172384.613     2964824.197 6   2310252.78022        19.000           1.656
  20400216.121   -19584976.293 7 -15023191.85822        21.750           2.250
  19590049.848   -17791892.168 7 -13863798.61223        24.000           3.063
  22510326.895    -7251486.345 6  -5549987.60521        13.250           0.594
 91  7  2  5 35 59.9960000  0  4G17G21G23G11
  21177511.566     2991780.564 6   2331257.72822        18.750           1.625
  20392840.527   -19623716.456 7 -15053378.97222        20.750           2.313
  19591007.035   -17786864.282 7 -13859880.76923        24.000           3.000
  22498760.316    -7312275.778 6  -5597355.95521        14.250           0.688
 91  7  2  5 36 14.9960000  0  4G17G21G23G11
  21182653.535     3018795.909 6   2352308.63222        19.500           1.594
  20385484.762   -19662382.919 7 -15083508.62822        21.750           2.281
  19591977.356   -17781759.846 7 -13855903.29623        23.750           3.094
  22487201.168    -7373013.082 6  -5644683.72721        13.250           0.594
 91  7  2  5 36 29.9960000  0  4G17G21G23G11
  21187804.465     3045870.693 6   2373405.85822        19.250           1.594
  20378139.066   -19700974.950 7 -15113580.33122        20.750           2.406
  19592963.309   -17776578.457 7 -13851865.83523        24.000           3.125
  22475650.426    -7433697.246 6  -5691970.07321        13.000           0.625
 91  7  2  5 36 44.9960000  0  4G17G21G23G11
  21192972.934     3073006.598 6   2394550.70922        19.500           1.500
  20370812.621   -19739491.048 7 -15143592.86322        21.500           2.313
  19593963.902   -17771318.905 7 -13847767.48923        23.500           2.969
  22464112.527    -7494326.478 6  -5739213.54921        14.000           0.625
 91  7  2  5 36 59.9960000  0  4G17G21G23G11
  21198146.316     3100215.882 6   2415752.73622        19.000           1.625
  20363498.199   -19777918.962 7 -15173536.66522        20.750           2.375
  19594981.926   -17765969.115 7 -13843598.82623        23.500           3.000
  22452596.590    -7554888.475 6  -5786404.63021        14.750           0.656
 91  7  2  5 37 14.9960000  0  4G17G21G23G11
  21203337.043     3127494.432 6   2437008.73922        18.750           1.625
  20356203.465   -19816262.362 7 -15203414.60322        21.500           2.375
  19596017.199   -17760533.065 7 -13839362.92823        23.500           3.063
  22441078.301    -7615386.342 6  -5833545.76621        14.250           0.625
 91  7  2  5 37 29.9960000  0  4G17G21G23G11
  21208539.262     3154825.361 6   2458305.55022        18.750           1.563
  20348920.449   -19854538.070 7 -15233239.80722        21.750           2.313
  19597064.152   -17755027.524 7 -13835072.88223        23.500           2.938
  22429571.356    -7675836.342 6  -5880649.58121        13.000           0.594
 91  7  2  5 37 44.9960000  0  4G17G21G23G11
  21213747.129     3182204.736 6   2479640.11522        18.500           1.531
  20341648.504   -19892750.258 7 -15263015.50222        22.000           2.281
  19598123.590   -17749456.949 7 -13830732.17223        23.000           3.031
  22418078.856    -7736242.456 6  -5927719.18721        14.500           0.750
 91  7  2  5 37 59.9960000  0  4G17G21G23G11
  21218968.527     3209641.486 6   2501019.38222        18.750           1.531
  20334389.371   -19930889.664 7 -15292734.48022        21.500           2.344
  19599198.395   -17743812.201 7 -13826333.65523        23.250           3.094
  22406593.137    -7796595.091 6  -5974747.18021        13.500           0.750
 91  7  2  5 38 14.9960000  0  4G17G21G23G11
  21224200.785     3237139.204 6   2522446.16222        18.250           1.563
  20327146.871   -19968952.770 7 -15322394.02922        21.750           2.313
  19600287.871   -17738089.817 7 -13821874.64123        23.250           2.969
  22395123.918    -7856890.421 6  -6021730.52421        14.250           0.688
 91  7  2  5 38 29.9960000  0  4G17G21G23G11
  21229450.840     3264700.294 6   2543922.32922        18.750           1.594
  20319919.082   -20006936.899 7 -15351992.00322        21.500           2.313
  19601391.582   -17732287.570 7 -13817353.40623        23.500           3.063
  22383658.981    -7917125.553 6  -6068667.00521        14.000           0.594
 91  7  2  5 38 44.9960000  0  4G17G21G23G11
  21234703.293     3292322.749 6   2565446.30122        18.000           1.563
  20312705.770   -20044844.207 7 -15381530.11922        21.750           2.406
  19602510.801   -17726407.686 7 -13812771.66123        23.250           3.156
  22372207.996    -7977302.056 6  -6115557.77621        15.250           0.875
 91  7  2  5 38 59.9960000  0  4G17G21G23G11
  21239971.387     3320007.194 6   2587018.58322        17.750           1.531
  20305507.113   -20082673.850 7 -15411007.76322        21.500           2.250
  19603644.402   -17720449.669 7 -13808129.05823        23.750           3.031
  22360769.316    -8037418.785 6  -6162401.98421        14.750           0.719
 91  7  2  5 39 14.9960000  0  4G17G21G23G11
  21245255.129     3347752.980 6   2608638.66222        18.750           1.563
  20298323.574   -20120426.013 7 -15440424.99422        21.750           2.406
  19604792.098   -17714413.836 7 -13803425.80723        23.500           3.031
  22349339.691    -8097475.767 6  -6209199.64221        14.250           0.688
 91  7  2  5 39 29.9960000  0  4G17G21G23G11
  21250542.965     3375555.349 6   2630302.83522        18.250           1.625
  20291151.777   -20158105.733 7 -15469785.78622        21.750           2.313
  19605956.465   -17708305.305 7 -13798665.90323        23.500           3.031
  22337919.512    -8157477.383 6  -6255954.13521        14.250           0.750
 91  7  2  5 39 44.9960000  0  4G17G21G23G11
  21255844.137     3403428.702 6   2652022.31722        18.000           1.500
  20283999.426   -20195698.554 7 -15499078.87722        21.500           2.438
  19607133.957   -17702109.800 7 -13793838.24523        23.500           3.031
  22326519.059    -8217408.854 6  -6302653.90921        15.250           0.719
 91  7  2  5 39 59.9960000  0  4G17G21G23G11
  21261161.762     3431362.104 6   2673788.58721        18.250           1.469
  20276859.707   -20233215.054 7 -15528312.48822        22.250           2.344
  19608327.449   -17695838.202 7 -13788951.28123        23.000           2.938
  22315122.801    -8277280.692 6  -6349307.23321        14.500           0.625
 91  7  2  5 40 14.9960000  0  4G17G21G23G11
  21266488.207     3459346.929 6   2695594.93121        18.000           1.375
  20269731.379   -20270663.766 7 -15557493.26522        21.500           2.406
  19609532.941   -17689499.283 7 -13784011.85423        23.000           2.938
  22303740.762    -8337101.041 6  -6395920.47421        15.000           0.844
 91  7  2  5 40 29.9960000  0  4G17G21G23G11
  21271824.731     3487392.802 6   2717448.84421        18.250           1.469
  20262619.973   -20308035.024 7 -15586613.70423        21.500           2.500
  19610755.996   -17683083.553 7 -13779012.57823        23.250           3.000
  22292368.043    -8396859.821 6  -6442485.73121        14.750           0.750
 91  7  2  5 40 44.9960000  0  4G17G21G23G11
  21277175.488     3515492.266 6   2739344.52422        18.500           1.531
  20255522.527   -20345336.320 7 -15615679.62922        21.750           2.438
  19611989.402   -17676598.657 7 -13773959.41723        22.750           3.094
  22281008.332    -8456564.004 6  -6489008.44321        15.250           0.719
 91  7  2  5 40 59.9960000  0  4G17G21G23G11
  21282529.340     3543650.353 6   2761285.86422        18.000           1.500
  20248439.699   -20382562.530 7 -15644687.04723        22.000           2.500
  19613237.613   -17670039.573 7 -13768848.43423        23.000           3.031
  22269657.527    -8516208.252 6  -6535484.43221        14.750           0.813
 91  7  2  5 41 14.9960000  0  4G17G21G23G11
  21287899.848     3571869.662 6   2783274.92522        17.500           1.531
  20241369.832   -20419710.990 7 -15673633.85923        22.250           2.500
  19614499.270   -17663403.972 7 -13763677.83923        23.000           2.938
  22258320.934    -8575789.617 6  -6581911.41621        15.000           0.750
 91  7  2  5 41 29.9960000  0  4G17G21G23G11
  21293281.387     3600147.392 6   2805309.50321        17.500           1.469
  20234315.246   -20456784.192 7 -15702522.05023        21.750           2.500
  19615776.762   -17656694.540 7 -13758449.71023        23.000           3.031
  22246994.106    -8635310.257 6  -6628291.06721        15.000           0.813
 91  7  2  5 41 44.9960000  0  4G17G21G23G11
  21298674.270     3628488.746 6   2827393.66021        17.250           1.344
  20227275.395   -20493776.831 7 -15731347.46823        22.250           2.500
  19617068.379   -17649906.101 7 -13753160.00423        23.250           2.969
  22235679.090    -8694764.433 6  -6674618.98921        14.750           0.750
 91  7  2  5 41 59.9960000  0  4G17G21G23G11
  21304075.785     3656891.305 6   2849525.50921        16.750           1.375
  20220251.707   -20530691.358 7 -15760112.00423        22.000           2.563
  19618373.473   -17643041.300 7 -13747810.81023        23.000           2.813
  22224378.840    -8754154.140 6  -6720896.65021        15.500           0.719
 91  7  2  5 42 14.9960000  0  4G17G21G23G11
  21309496.449     3685353.033 6   2871703.46121        17.500           1.313
  20213240.027   -20567529.791 7 -15788817.26422        21.750           2.344
  19619694.746   -17636102.160 7 -13742403.67923        23.250           3.000
  22213089.949    -8813481.114 6  -6767125.45821        15.750           0.750
 91  7  2  5 42 29.9960000  0  4G17G21G23G11
  21314919.457     3713873.504 6   2893927.19121        17.250           1.313
  20206244.621   -20604292.327 7 -15817463.36023        22.250           2.500
  19621029.645   -17629089.262 7 -13736939.06423        23.000           2.906
  22201810.582    -8872745.126 6  -6813305.17121        15.500           0.781
 91  7  2  5 42 44.9960000  0  4G17G21G23G11
  21320361.988     3742452.148 6   2916196.24621        17.500           1.313
  20199262.645   -20640979.460 7 -15846050.70922        21.500           2.438
  19622377.004   -17622003.193 7 -13731417.43623        23.250           3.000
  22190544.371    -8931946.330 6  -6859435.89921        15.500           0.813
 91  7  2  5 42 59.9960000  0  4G17G21G23G11
  21325811.145     3771091.705 6   2938512.76621        17.000           1.344
  20192297.582   -20677588.204 7 -15874576.97922        22.500           2.469
  19623740.762   -17614841.276 7 -13725836.71323        23.000           3.031
  22179292.106    -8991081.569 6  -6905515.25021        15.500           0.906
 91  7  2  5 43 14.9960000  0  4G17G21G23G11
  21331270.645     3799789.601 6   2960874.75221        17.000           1.344
  20185344.965   -20714121.388 7 -15903044.38922        22.250           2.469
  19625116.895   -17607606.316 7 -13720199.07723        22.750           3.000
  22168053.098    -9050153.086 6  -6951544.93921        16.000           0.813
 91  7  2  5 43 29.9960000  0  4G17G21G23G11
  21336745.113     3828545.237 6   2983281.72321        17.250           1.313
  20178406.918   -20750579.142 7 -15931452.99322        22.000           2.469
  19626509.379   -17600298.836 7 -13714504.93623        23.250           2.969
  22156820.395    -9109160.735 6  -6997524.86621        15.500           0.781
 91  7  2  5 43 44.9960000  0  4G17G21G23G11
  21342230.012     3857360.151 6   3005734.88821        17.750           1.375
  20171486.356   -20786959.825 7 -15959801.53022        22.500           2.438
  19627911.832   -17592917.548 7 -13708753.26323        22.750           3.000
  22145609.184    -9168102.732 6  -7043453.64021        15.750           0.781
 91  7  2  5 43 59.9960000  0  4G17G21G23G11
  21347722.301     3886235.036 6   3028234.78821        17.250           1.375
  20164575.106   -20823263.116 7 -15988089.77222        21.500           2.406
  19629330.848   -17585462.097 7 -13702943.82723        23.250           3.000
  22134400.504    -9226978.197 6  -7089330.60221        15.500           0.719
 91  7  2  5 44 14.9960000  0  4G17G21G23G11
  21353226.363     3915165.386 6   3050777.90121        16.750           1.250
  20157684.098   -20859493.122 7 -16016320.92623        22.500           2.531
  19630764.309   -17577936.718 7 -13697079.90823        23.250           3.000
  22123213.582    -9285790.710 6  -7135158.50621        15.750           0.875
 91  7  2  5 44 29.9960000  0  4G17G21G23G11
  21358744.606     3944154.844 6   3073367.07821        17.000           1.313
  20150799.941   -20895646.090 7 -16044492.05223        21.000           2.500
  19632209.207   -17570337.890 7 -13691158.76523        23.500           2.906
  22112031.434    -9344536.292 6  -7180934.25521        16.000           0.906
 91  7  2  5 44 44.9960000  0  4G17G21G23G11
  21364271.215     3973198.800 6   3095998.71721        17.250           1.250
  20143936.707   -20931726.718 7 -16072606.81423        22.000           2.531
  19633668.113   -17562670.278 7 -13685183.99023        23.000           2.969
  22100864.262    -9403219.275 6  -7226661.19021        16.250           0.781
 91  7  2  5 44 59.9960000  0  4G17G21G23G11
  21369809.488     4002297.849 6   3118673.28621        17.250           1.250
  20137084.613   -20967734.141 7 -16100664.53523        21.750           2.531
  19635138.934   -17554933.498 7 -13679155.29923        23.000           3.219
  22089710.434    -9461838.478 6  -7272338.46521        15.750           0.813
 91  7  2  5 45 14.9960000  0  4G17G21G23G11
  21375359.395     4031450.940 6   3141389.96721        16.750           1.188
  20130245.676   -21003669.309 7 -16128665.95222        21.750           2.406
  19636626.293   -17547128.599 7 -13673073.55823        23.750           3.000
  22078566.707    -9520394.538 6  -7317966.51421        16.000           0.969
 91  7  2  5 45 29.9960000  0  4G17G21G23G11
  21380916.285     4060665.163 6   3164154.28121        16.750           1.188
  20123421.902   -21039524.952 7 -16156605.38523        21.500           2.594
  19638126.410   -17539248.590 7 -13666933.28323        24.000           3.094
  22067437.637    -9578879.827 6  -7363539.43021        16.250           0.906
 91  7  2  5 45 44.9960000  0  4G17G21G23G11
  21386483.004     4089939.898 6   3186965.74721        16.500           1.219
  20116612.840   -21075301.788 7 -16184483.42022        21.500           2.438
  19639639.160   -17531294.421 7 -13660735.23823        24.250           3.031
  22056322.098    -9637294.643 6  -7409057.44921        16.000           0.844
 91  7  2  5 45 59.9960000  0  4G17G21G23G11
  21392069.395     4119274.971 6   3209824.23521        16.750           1.313
  20109821.059   -21110999.886 7 -16212300.10523        21.750           2.500
  19641165.762   -17523266.032 7 -13654479.33123        24.250           3.031
  22045219.035    -9695638.569 6  -7454520.24021        15.500           0.844
 91  7  2  5 46 14.9960000  0  4G17G21G23G11
  21397662.293     4148670.620 6   3232729.92421        16.500           1.219
  20103043.371   -21146618.793 7 -16240055.08522        21.750           2.406
  19642708.293   -17515163.330 7 -13648165.51523        24.250           3.063
  22034130.746    -9753910.877 6  -7499927.18621        16.000           1.000
 91  7  2  5 46 29.9960000  0  4G17G21G23G11
  21403268.566     4178125.891 6   3255682.06121        16.750           1.188
  20096280.535   -21182159.472 7 -16267749.10323        22.000           2.500
  19644263.660   -17506987.516 7 -13641794.75123        24.500           3.156
  22023054.402    -9812112.238 6  -7545278.86021        15.500           0.875
 91  7  2  5 46 44.9960000  0  4G17G21G23G11
  21408880.770     4207639.711 6   3278679.82621        16.000           1.250
  20089532.324   -21217623.001 7 -16295383.00323        22.250           2.531
  19645834.059   -17498739.803 7 -13635367.96523        24.750           3.094
  22011991.129    -9870243.122 6  -7590575.59621        15.750           0.938
 91  7  2  5 46 59.9960000  0  4G17G21G23G11
  21414513.832     4237216.197 6   3301726.41921        16.500           1.219
  20082799.629   -21253005.231 7 -16322953.56922        22.250           2.406
  19647416.270   -17490416.090 7 -13628881.95623        24.000           3.188
  22000942.379    -9928299.036 6  -7635813.92421        15.500           0.938
 91  7  2  5 47 14.9960000  0  4G17G21G23G11
  21420155.098     4266849.229 6   3324817.07821        17.000           1.125
  20076080.504   -21288311.690 7 -16350465.09323        22.000           2.500
  19649015.840   -17482022.200 7 -13622341.26023        24.250           3.219
  21989912.395    -9986285.407 6  -7680998.03221        15.750           0.875
 91  7  2  5 47 29.9960000  0  4G17G21G23G11
  21425799.223     4296545.973 6   3347957.38021        16.500           1.094
  20069378.707   -21323535.432 7 -16377912.12722        22.500           2.375
  19650626.465   -17473551.625 7 -13615740.79023        24.500           3.219
  21978888.316   -10044194.803 6  -7726122.17721        14.750           0.875
 91  7  2  5 47 44.9960000  0  4G17G21G23G11
  21431464.137     4326302.354 6   3371144.15721        16.750           1.156
  20062690.277   -21358680.417 7 -16405297.79823        22.000           2.500
  19652252.613   -17465008.317 7 -13609083.66823        24.500           3.156
  21967886.082   -10102030.951 6  -7771189.22921        15.500           0.813
 91  7  2  5 47 59.9960000  0  4G17G21G23G11
  21437138.262     4356113.334 6   3394373.48521        16.500           1.281
  20056018.457   -21393751.580 7 -16432625.96022        23.000           2.469
  19653890.973   -17456397.192 7 -13602373.70923        24.500           3.156
  21956888.332   -10159798.249 6  -7816202.67021        14.500           1.000
 91  7  2  5 48 14.9960000  0  4G17G21G23G11
  21442822.285     4385983.458 6   3417648.88121        16.750           1.219
  20049356.363   -21428744.106 7 -16459892.85223        21.750           2.563
  19655543.238   -17447713.803 7 -13595607.44423        25.000           3.156
  21945913.012   -10217491.461 6  -7861158.32721        15.500           0.938
 91  7  2  5 48 29.9960000  0  4G17G21G23G11
  21448517.848     4415909.042 6   3440967.50721        16.750           1.281
  20042712.590   -21463661.628 7 -16487101.27523        22.500           2.531
  19657208.645   -17438961.988 7 -13588787.86123        24.250           3.156
  21934947.684   -10275113.845 6  -7906058.78621        15.250           1.031
 91  7  2  5 48 44.9960000  0  4G17G21G23G11
  21454222.082     4445893.195 6   3464331.76321        16.750           1.188
  20036082.410   -21498501.116 7 -16514248.89923        22.000           2.594
  19658888.223   -17430138.763 7 -13581912.61023        24.500           3.125
  21923998.223   -10332662.090 6  -7950901.47821        15.000           1.063
 91  7  2  5 48 59.9960000  0  4G17G21G23G11
  21459936.613     4475933.426 6   3487739.71821        16.250           1.188
  20029467.160   -21533264.757 7 -16541337.42923        21.750           2.594
  19660580.637   -17421246.502 7 -13574983.56823        24.750           3.313
  21913062.348   -10390138.054 6  -7995687.85721        15.250           1.000
 91  7  2  5 49 14.9960000  0  4G17G21G23G11
  21465664.777     4506032.378 6   3511193.43021        16.000           1.125
  20022869.340   -21567950.024 7 -16568364.88223        23.250           2.531
  19662285.887   -17412283.034 7 -13567999.04423        24.750           3.219
  21902134.543   -10447538.896 6  -8040415.69721        14.750           0.969
 91  7  2  5 49 29.9960000  0  4G17G21G23G11
  21471404.113     4536189.566 6   3534692.51921        16.000           1.281
  20016280.871   -21602557.324 7 -16595331.60223        21.500           2.531
  19664006.856   -17403248.775 7 -13560959.35523        25.250           3.281
  21891226.488   -10504864.598 6  -8085084.99321        15.250           0.938
 91  7  2  5 49 44.9960000  0  4G17G21G23G11
  21477155.379     4566405.298 6   3558237.23121        16.000           1.188
  20009713.106   -21637086.144 7 -16622237.15323        23.000           2.531
  19665737.777   -17394143.549 7 -13553864.37523        25.500           3.188
  21880332.934   -10562114.352 6  -8129695.14621        14.750           1.031
 91  7  2  5 49 59.9960000  0  4G17G21G23G11
  21482914.465     4596679.608 6   3581827.58221        16.000           1.156
  20003153.754   -21671536.417 7 -16649081.50323        21.500           2.563
  19667483.652   -17384967.156 7 -13546713.92823        25.500           3.313
  21869454.981   -10619287.636 6  -8174245.69521        15.750           1.125
 91  7  2  5 50 14.9960000  0  4G17G21G23G11
  21488688.613     4627014.596 6   3605465.21621        15.750           1.250
  19996613.473   -21705906.123 7 -16675863.07723        21.500           2.531
  19669243.285   -17375718.025 7 -13539506.79523        25.250           3.219
  21858587.637   -10676382.114 6  -8218734.89821        15.500           1.094
 91  7  2  5 50 29.9960000  0  4G17G21G23G11
  21494471.059     4657406.794 6   3629147.42821        15.500           1.219
  19990087.504   -21740198.510 7 -16702584.40323        21.500           2.531
  19671016.934   -17366399.402 7 -13532245.52023        25.500           3.313
  21847737.301   -10733400.507 6  -8263164.83521        14.750           1.031
 91  7  2  5 50 44.9960000  0  4G17G21G23G11
  21500265.059     4687858.250 6   3652875.81821        15.750           1.219
  19983579.215   -21774411.242 7 -16729243.65923        21.500           2.563
  19672803.106   -17357009.244 7 -13524928.53223        25.250           3.281
  21836901.895   -10790340.072 6  -8307533.30521        15.500           1.063
 91  7  2  5 50 59.9960000  0  4G17G21G23G11
  21506073.043     4718371.438 6   3676652.30521        15.250           1.281
  19977083.543   -21808541.735 7 -16755838.82122        21.750           2.375
  19674605.051   -17347545.216 7 -13517553.95223        25.250           3.125
  21826083.371   -10847197.955 6  -8351838.10721        15.250           0.969
 91  7  2  5 51 14.9960000  0  4G17G21G23G11
  21511893.895     4748940.276 6   3700472.15021        15.750           1.219
  19970604.106   -21842595.965 7 -16782374.56423        21.750           2.500
  19676417.957   -17338013.338 7 -13510126.50823        25.500           3.313
  21815276.762   -10903979.817 6  -8396083.67821        15.500           1.031
 91  7  2  5 51 29.9960000  0  4G17G21G23G11
  21517717.129     4779564.138 6   3724334.88221        15.500           1.281
  19964136.402   -21876574.530 7 -16808851.36223        21.000           2.563
  19678244.410   -17328414.585 7 -13502646.93924        25.750           3.500
  21804488.090   -10960685.826 6  -8440270.11721        15.500           1.000
 91  7  2  5 51 44.9960000  0  4G17G21G23G11
  21523554.340     4810243.587 6   3748240.92921        15.000           1.156
  19957686.621   -21910476.918 7 -16835268.79522        21.750           2.469
  19680085.535   -17318748.451 7 -13495114.88323        25.500           3.406
  21793707.684   -11017315.042 6  -8484396.72121        16.000           1.063
 91  7  2  5 51 59.9960000  0  4G17G21G23G11
  21529404.637     4840983.298 6   3772193.92921        15.250           1.188
  19951249.574   -21944298.153 7 -16861622.98623        21.250           2.594
  19681937.754   -17309010.061 7 -13487526.53623        25.500           3.375
  21782948.441   -11073862.294 6  -8528459.48921        16.250           1.063
 91  7  2  5 52 14.9960000  0  4G17G21G23G11
  21535264.973     4871781.878 6   3796192.79921        15.250           1.250
  19944832.473   -21978039.540 7 -16887914.92223        22.250           2.625
  19683805.793   -17299201.018 7 -13479883.12023        25.500           3.344
  21772205.426   -11130328.322 6  -8572458.95921        16.500           1.063
 91  7  2  5 52 29.9960000  0  4G17G21G23G11
  21541137.309     4902636.055 6   3820234.98521        15.750           1.156
  19938420.738   -22011704.393 7 -16914147.26123        21.000           2.531
  19685684.535   -17289324.626 7 -13472187.25023        25.750           3.469
  21761474.520   -11186716.003 6  -8616397.36021        17.000           1.156
 91  7  2  5 52 44.9960000  0  4G17G21G23G11
  21547019.059     4933548.720 6   3844322.75621        15.250           1.156
  19932031.910   -22045289.881 7 -16940317.76223        22.000           2.594
  19687577.629   -17279378.333 7 -13464436.88223        25.750           3.406
  21750759.949   -11243022.219 6  -8660272.29521        16.250           1.094
 91  7  2  5 52 59.9960000  0  4G17G21G23G11
  21552909.363     4964519.853 6   3868456.08321        15.000           1.156
  19925653.496   -22078795.699 7 -16966426.17022        21.000           2.438
  19689482.449   -17269362.139 7 -13456632.04323        26.000           3.375
  21740061.121   -11299246.284 6  -8704083.18821        16.750           1.063
 91  7  2  5 53 14.9960000  0  4G17G21G23G11
  21558816.168     4995544.404 6   3892631.03821        15.000           1.219
  19919293.793   -22112226.940 7 -16992476.44923        21.500           2.563
  19691401.707   -17259281.150 7 -13448776.70723        26.000           3.406
  21729375.606   -11355392.848 6  -8747833.73421        16.750           1.031
 91  7  2  5 53 29.9960000  0  4G17G21G23G11
  21564732.559     5026628.904 6   3916852.70521        15.250           1.188
  19912948.176   -22145576.983 7 -17018463.47623        21.500           2.625
  19693333.762   -17249128.923 7 -13440865.86323        26.000           3.375
  21718709.559   -11411455.038 6  -8791518.52921        17.000           1.031
 91  7  2  5 53 44.9960000  0  4G17G21G23G11
  21570655.871     5057769.268 6   3941117.89721        14.750           1.156
  19906615.543   -22178849.687 7 -17044390.23623        22.000           2.688
  19695277.840   -17238909.505 7 -13432902.68423        25.500           3.469
  21708054.949   -11467436.352 6  -8835140.31421        17.250           1.031
 91  7  2  5 53 59.9960000  0  4G17G21G23G11
  21576593.902     5088963.089 6   3965424.74621        14.500           1.063
  19900300.301   -22212047.203 7 -17070258.40723        21.750           2.563
  19697235.879   -17228625.445 7 -13424889.12223        26.000           3.344
  21697418.574   -11523338.617 6  -8878700.49321        17.000           1.063
 91  7  2  5 54 14.9960000  0  4G17G21G23G11
  21582537.551     5120213.077 6   3989775.36721        14.500           1.063
  19893996.051   -22245167.012 7 -17096066.03723        21.750           2.813
  19699205.348   -17218274.115 7 -13416823.13923        25.750           3.344
  21686794.777   -11579158.721 6  -8922196.65421        17.250           1.063
 91  7  2  5 54 29.9960000  0  4G17G21G23G11
  21588497.988     5151517.227 6   4014168.19021        14.750           1.063
  19887710.293   -22278210.814 7 -17121814.42223        22.750           2.719
  19701188.434   -17207857.524 7 -13408706.31823        25.750           3.375
  21676187.848   -11634898.016 6  -8965629.80521        16.750           1.094
 91  7  2  5 54 44.9960000  0  4G17G21G23G11
  21594467.098     5182881.068 6   4038607.52421        15.000           1.125
  19881434.731   -22311173.025 7 -17147499.24623        21.250           2.656
  19703181.941   -17197370.337 7 -13400534.47823        25.500           3.344
  21665598.699   -11690550.782 6  -9008995.56121        17.250           1.063
 91  7  2  5 54 59.9960000  0  4G17G21G23G11
  21600443.199     5214298.523 6   4063088.62921        14.750           1.063
  19875178.020   -22344059.823 7 -17173125.31123        22.250           2.625
  19705190.965   -17186818.800 7 -13392312.49823        25.000           3.406
  21655025.441   -11746122.542 6  -9052298.18921        18.000           1.156
 91  7  2  5 55 14.9960000  0  4G17G21G23G11
  21606436.762     5245773.704 6   4087614.71721        15.250           1.031
  19868934.606   -22376866.844 7 -17198689.20623        22.250           2.688
  19707210.621   -17176198.854 7 -13384037.22923        25.000           3.375
  21644465.871   -11801608.628 6  -9095534.08421        17.250           1.125
 91  7  2  5 55 29.9960000  0  4G17G21G23G11
  21612433.129     5277308.468 6   4112187.23921        15.000           1.094
  19862705.824   -22409592.266 7 -17224189.52723        21.250           2.688
  19709245.207   -17165508.519 7 -13375707.10523        25.250           3.344
  21633922.410   -11857006.828 6  -9138701.49021        17.750           1.156
 91  7  2  5 55 44.9960000  0  4G17G21G23G11
  21618446.184     5308899.308 6   4136803.44621        15.000           1.031
  19856496.707   -22442239.432 7 -17249628.85123        23.000           2.750
  19711292.238   -17154751.370 7 -13367324.90623        25.000           3.313
  21623396.020   -11912320.129 6  -9181802.69821        17.500           1.125
 91  7  2  5 55 59.9960000  0  4G17G21G23G11
  21624468.434     5340548.436 6   4161465.08421        15.000           1.000
  19850298.168   -22474805.870 7 -17275005.26823        21.750           2.688
  19713354.027   -17143925.439 7 -13358889.10323        25.250           3.313
  21612885.957   -11967545.745 6  -9224835.59821        17.500           1.156
 91  7  2  5 56 14.9960000  0  4G17G21G23G11
  21630500.246     5372254.132 6   4186170.79521        14.750           1.125
  19844115.059   -22507293.356 7 -17300320.17123        22.000           2.750
  19715425.668   -17133032.498 7 -13350401.09923        25.250           3.313
  21602396.816   -12022684.992 6  -9267801.19921        17.750           1.094
 91  7  2  5 56 29.9960000  0  4G17G21G23G11
  21636546.332     5404012.898 6   4210917.85321        15.000           1.031
  19837947.652   -22539705.413 7 -17325576.29723        22.500           2.719
  19717511.465   -17122076.190 7 -13341863.72123        25.250           3.281
  21591917.207   -12077740.992 6  -9310701.94321        17.750           1.156
 91  7  2  5 56 44.9960000  0  4G17G21G23G11
  21642599.902     5435825.082 6   4235706.54521        15.000           1.000
  19831792.285   -22572041.369 7 -17350773.14423        21.250           2.688
  19719607.770   -17111055.974 7 -13333276.54023        25.250           3.375
  21581459.074   -12132712.700 6  -9353536.99521        18.500           1.188
 91  7  2  5 56 59.9960000  0  4G17G21G23G11
  21648659.488     5467689.237 6   4260535.73721        14.500           1.000
  19825656.309   -22604302.839 7 -17375911.91823        23.000           2.844
  19721716.074   -17099973.492 7 -13324640.84823        25.000           3.219
  21571010.098   -12187601.350 6  -9396307.36621        17.000           1.031
 91  7  2  5 57 14.9960000  0  4G17G21G23G11
  21654737.606     5499614.811 6   4285412.78821        14.750           0.906
  19819531.715   -22636479.933 7 -17400984.95523        23.000           2.750
  19723839.371   -17088819.401 7 -13315949.32823        25.250           3.344
  21560583.699   -12242396.785 6  -9439005.09321        17.000           1.188
 91  7  2  5 57 29.9960000  0  4G17G21G23G11
  21660826.902     5531596.478 6   4310333.54321        15.000           1.063
  19813421.059   -22668578.231 7 -17425996.61423        22.000           2.750
  19725974.660   -17077599.039 7 -13307206.18523        25.000           3.313
  21550176.223   -12297103.960 6  -9481634.02421        17.750           1.219
 91  7  2  5 57 44.9960000  0  4G17G21G23G11
  21666919.184     5563634.319 6   4335298.07121        14.250           0.906
  19807328.957   -22700597.505 7 -17450946.68323        23.250           2.875
  19728122.590   -17066312.655 7 -13298411.59523        25.250           3.313
  21539780.660   -12351722.462 6  -9524193.84421        17.000           1.156
 91  7  2  5 57 59.9960000  0  4G17G21G23G11
  21673025.082     5595720.238 6   4360300.05821        14.000           0.875
  19801251.840   -22732545.389 7 -17475841.12923        23.500           2.813
  19730279.996   -17054967.990 7 -13289571.59623        24.500           3.156
  21529405.535   -12406259.423 6  -9566690.13121        17.750           1.125
 91  7  2  5 58 14.9960000  0  4G17G21G23G11
  21679144.441     5627862.016 6   4385345.58621        14.000           1.000
  19795184.793   -22764414.316 7 -17500674.05723        22.750           2.906
  19732452.270   -17043557.397 7 -13280680.23023        25.250           3.344
  21519041.926   -12460706.884 6  -9609116.67121        17.000           1.063
 91  7  2  5 58 29.9960000  0  4G17G21G23G11
  21685271.363     5660058.733 6   4410433.91421        14.250           0.844
  19789137.301   -22796204.951 7 -17525445.96223        24.500           2.875
  19734636.184   -17032081.906 7 -13271738.29023        24.750           3.313
  21508697.441   -12515065.068 6  -9651473.63721        17.000           1.125
 91  7  2  5 58 44.9960000  0  4G17G21G23G11
  21691411.926     5692311.353 6   4435565.80021        14.750           0.781
  19783104.340   -22827916.101 7 -17550155.94523        24.250           2.844
  19736832.066   -17020540.602 7 -13262745.06423        25.500           3.156
  21498369.035   -12569332.494 6  -9693759.87321        16.750           1.063
 91  7  2  5 58 59.9960000  0  4G17G21G23G11
  21697554.879     5724618.113 6   4460739.88421        14.750           0.938
  19777083.691   -22859549.649 7 -17574805.44023        24.000           2.781
  19739040.606   -17008935.313 7 -13253701.97123        25.500           3.094
  21488061.262   -12623510.736 6  -9735976.59421        17.250           1.188
 91  7  2  5 59 14.9960000  0  4G17G21G23G11
  21703714.098     5756983.956 6   4485960.00321        14.500           0.875
  19771078.207   -22891100.574 7 -17599390.54823        23.750           2.750
  19741261.902   -16997261.368 7 -13244605.39823        25.000           3.250
  21477770.988   -12677594.423 6  -9778119.66121        18.250           1.125
 91  7  2  5 59 29.9960000  0  4G17G21G23G11
  21709884.902     5789405.745 6   4511223.71121        14.500           0.938
  19765089.301   -22922571.881 7 -17623913.62823        23.750           2.750
  19743495.051   -16985521.917 7 -13235457.77523        25.000           3.125
  21467495.387   -12731586.164 6  -9820191.08921        17.750           1.125
 91  7  2  5 59 44.9960000  0  4G17G21G23G11
  21716064.887     5821877.936 6   4536526.68721        14.500           0.969
  19759115.949   -22953969.198 7 -17648379.05223        24.000           2.844
  19745741.332   -16973722.675 7 -13226263.54223        25.000           3.094
  21457236.199   -12785491.014 6  -9862194.80621        17.500           1.094
 91  7  2  5 59 59.9960000  0  4G17G21G23G11
  21722254.762     5854404.512 6   4561872.05321        15.000           0.938
  19753156.770   -22985287.905 7 -17672783.21723        24.500           2.813
  19747997.981   -16961859.240 7 -13217019.29823        24.500           3.125
  21446995.293   -12839304.161 6  -9904127.08621        17.500           1.250
 91  7  2  6  0 14.9960000  0  4G17G21G23G11
  21728452.090     5886989.267 6   4587262.75121        14.750           0.844
  19747211.715   -23016524.508 7 -17697123.41423        23.250           2.719
  19750268.738   -16949928.160 7 -13207722.34823        25.000           3.188
  21436775.215   -12893021.689 6  -9945984.90921        17.500           1.031
 91  7  2  6  0 29.9960000  0  4G17G21G23G11
  21734666.301     5919628.470 6   4612695.87321        14.500           0.938
  19741283.348   -23047682.621 7 -17721402.45023        24.500           2.781
  19752550.363   -16937933.321 7 -13198375.69323        24.500           3.250
  21426570.996   -12946646.856 6  -9987770.74621        17.750           1.125
 91  7  2  6  0 44.9960000  0  4G17G21G23G11
  21740884.746     5952328.325 6   4638176.26521        13.500           0.906
  19735369.871   -23078755.960 7 -17745615.42523        24.250           2.781
  19754846.949   -16925868.752 7 -13188974.72123        24.750           3.125
  21416383.871   -13000172.874 6 -10029479.31621        17.750           1.063
 91  7  2  6  0 59.9960000  0  4G17G21G23G11
  21747119.754     5985085.893 6   4663701.60921        13.750           0.875
  19729471.715   -23109747.405 7 -17769764.60423        23.750           2.750
  19757157.309   -16913737.185 7 -13179521.53923        25.000           3.125
  21406215.481   -13053602.161 6 -10071112.50621        18.250           1.188
 91  7  2  6  1 14.9960000  0  4G17G21G23G11
  21753365.652     6017899.096 6   4689270.33321        13.500           0.844
  19723589.863   -23140658.841 7 -17793851.42023        24.500           2.875
  19759476.879   -16901540.705 7 -13170017.77523        25.000           3.281
  21396067.043   -13106936.169 6 -10112671.45021        17.750           1.156
 91  7  2  6  1 29.9960000  0  4G17G21G23G11
  21759621.074     6050765.611 6   4714880.58421        13.500           0.906
  19717723.652   -23171492.628 7 -17817877.74323        24.000           2.875
  19761808.293   -16889281.823 7 -13160465.38323        24.750           3.031
  21385936.574   -13160177.004 6 -10154157.77221        18.750           1.219
 91  7  2  6  1 44.9960000  0  4G17G21G23G11
  21765883.887     6083693.324 6   4740538.52021        13.250           0.938
  19711871.184   -23202240.766 7 -17841837.30023        24.000           2.906
  19764155.988   -16876952.692 7 -13150858.24423        24.750           3.031
  21375827.566   -13213316.216 6 -10195564.92821        18.750           1.125
 91  7  2  6  1 59.9960000  0  4G17G21G23G11
  21772162.637     6116679.722 6   4766242.18021        13.500           0.875
  19706036.254   -23232905.461 7 -17865731.84323        24.250           2.844
  19766513.981   -16864555.850 7 -13141198.35523        24.500           3.156
  21365730.918   -13266355.649 6 -10236894.32721        18.250           1.094
 91  7  2  6  2 14.9960000  0  4G17G21G23G11
  21778447.418     6149722.831 6   4791990.03821        13.000           0.875
  19700216.582   -23263488.760 7 -17889562.98023        24.000           2.938
  19768886.293   -16852093.355 7 -13131487.32023        25.250           3.063
  21355655.723   -13319296.945 6 -10278147.26821        18.000           1.156
 91  7  2  6  2 29.9960000  0  4G17G21G23G11
  21784745.629     6182822.929 6   4817782.30621        13.250           0.875
  19694411.465   -23293990.248 7 -17913330.35623        24.250           2.938
  19771269.215   -16839564.922 7 -13121724.87923        25.000           3.156
  21345598.582   -13372139.375 6 -10319323.16321        18.000           1.156
 91  7  2  6  2 44.9960000  0  4G17G21G23G11
  21791057.707     6215976.918 6   4843616.55621        13.500           0.969
  19688623.465   -23324413.007 7 -17937036.37523        24.000           2.875
  19773666.301   -16826973.976 7 -13111913.75423        25.000           3.094
  21335564.809   -13424885.677 6 -10360424.16221        17.750           1.219
 91  7  2  6  2 59.9960000  0  4G17G21G23G11
  21797372.246     6249181.248 6   4869490.03121        12.750           0.875
  19682847.731   -23354760.226 7 -17960683.55023        23.500           2.813
  19776074.184   -16814323.818 7 -13102056.50523        25.250           3.125
  21325543.785   -13477538.585 6 -10401452.35221        18.250           1.188
 91  7  2  6  3 14.9960000  0  4G17G21G23G11
  21803706.113     6282437.823 6   4895404.21021        13.000           0.875
  19677089.316   -23385029.918 7 -17984270.30123        24.000           2.875
  19778492.668   -16801612.460 7 -13092151.54923        25.250           3.188
  21315544.738   -13530095.707 6 -10442405.95221        19.000           1.219
 91  7  2  6  3 29.9960000  0  4G17G21G23G11
  21810046.887     6315746.219 6   4921358.78721        13.500           0.875
  19671341.371   -23415222.763 7 -18007797.16423        24.000           2.844
  19780921.004   -16788841.052 7 -13082199.80423        24.750           3.125
  21305563.324   -13582557.341 6 -10483285.14221        19.250           1.156
 91  7  2  6  3 44.9960000  0  4G17G21G23G11
  21816394.465     6349112.063 6   4947358.12521        13.500           0.906
  19665610.027   -23445332.672 7 -18031259.42223        23.500           2.750
  19783367.676   -16776003.337 7 -13072196.39223        25.500           3.156
  21295594.574   -13634916.977 6 -10524084.85421        18.500           1.156
 91  7  2  6  3 59.9960000  0  4G17G21G23G11
  21822757.488     6382534.985 6   4973401.93221        13.250           0.813
  19659897.238   -23475360.114 7 -18054657.40523        23.750           2.750
  19785822.691   -16763099.952 7 -13062141.77423        25.500           3.031
  21285652.559   -13687174.769 6 -10564805.19521        18.250           1.125
 91  7  2  6  4 14.9960000  0  4G17G21G23G11
  21829124.145     6416011.966 6   4999487.87021        12.500           0.813
  19654200.012   -23505308.200 7 -18077993.57423        24.250           2.875
  19788288.441   -16750134.086 7 -13052038.50123        25.250           3.063
  21275728.402   -13739333.236 6 -10605448.12721        19.000           1.188
 91  7  2  6  4 29.9960000  0  4G17G21G23G11
  21835502.684     6449536.245 6   5025610.64921        12.750           0.688
  19648513.301   -23535183.489 7 -18101273.00523        23.500           2.688
  19790765.879   -16737112.872 7 -13041892.10323        25.250           3.156
  21265820.473   -13791398.787 6 -10646018.64621        18.750           1.156
 91  7  2  6  4 44.9960000  0  4G17G21G23G11
  21841893.441     6483118.815 6   5051778.86621        12.750           0.781
  19642845.910   -23564974.630 7 -18124486.87623        23.500           2.813
  19793256.316   -16724024.914 7 -13031693.68823        25.500           3.156
  21255933.231   -13843359.636 6 -10686507.55321        19.000           1.250
 91  7  2  6  4 59.9960000  0  4G17G21G23G11
  21848292.449     6516744.013 6   5077980.29421        12.500           0.875
  19637189.574   -23594697.335 7 -18147647.41123        24.000           2.750
  19795756.574   -16710885.892 7 -13021455.48623        25.000           3.125
  21246063.309   -13895231.119 6 -10726926.82921        19.250           1.156
 91  7  2  6  5 14.9960000  0  4G17G21G23G11
  21854701.840     6550425.023 6   5104225.20921        12.750           0.844
  19631548.871   -23624338.183 7 -18170744.15523        24.250           2.750
  19798270.543   -16697682.626 7 -13011167.23523        25.750           3.188
  21236207.285   -13946999.473 6 -10767265.77521        18.000           1.281
 91  7  2  6  5 29.9960000  0  4G17G21G23G11
  21861119.707     6584156.711 6   5130509.60821        12.500           0.813
  19625920.207   -23653902.313 7 -18193781.12123        23.250           2.844
  19800792.543   -16684420.560 7 -13000833.15723        25.500           3.250
  21226376.691   -13998669.466 6 -10807528.08221        18.250           1.281
 91  7  2  6  5 44.9960000  0  4G17G21G23G11
  21867548.309     6617938.544 6   5156833.09121        12.250           0.875
  19620311.668   -23683390.224 7 -18216758.69923        24.000           2.844
  19803327.277   -16671100.152 7 -12990453.62723        25.500           3.219
  21216561.871   -14050240.973 6 -10847713.65421        18.500           1.219
 91  7  2  6  5 59.9960000  0  4G17G21G23G11
  21873988.887     6651777.253 6   5183200.88821        12.250           0.813
  19614715.793   -23712795.069 7 -18239671.54923        23.500           2.813
  19805876.184   -16657714.787 7 -12980023.46523        25.750           3.156
  21206770.324   -14101706.821 6 -10887816.89721        18.500           1.188
 91  7  2  6  6 14.9960000  0  4G17G21G23G11
  21880436.504     6685670.528 6   5209611.18621        12.000           0.844
  19609136.285   -23742118.940 7 -18262521.29823        24.000           2.875
  19808435.426   -16644266.685 7 -12969544.39823        25.500           3.094
  21196997.215   -14153068.771 6 -10927839.16721        18.500           1.406
 91  7  2  6  6 29.9960000  0  4G17G21G23G11
  21886890.488     6719615.684 6   5236061.93421        12.250           0.813
  19603570.629   -23771364.659 7 -18285310.16623        24.000           2.813
  19811005.129   -16630758.966 7 -12959018.88723        25.750           3.125
  21187240.918   -14204329.307 6 -10967782.39621        18.250           1.406
 91  7  2  6  6 44.9960000  0  4G17G21G23G11
  21893366.934     6753610.768 6   5262551.57221        12.250           0.813
  19598019.957   -23800533.862 7 -18308039.41423        23.750           2.781
  19813587.746   -16617193.279 7 -12948448.23723        25.750           3.281
  21177506.363   -14255489.632 6 -11007647.54921        18.250           1.313
 91  7  2  6  6 59.9960000  0  4G17G21G23G11
  21899845.551     6787655.839 6   5289080.17021        12.000           0.750
  19592482.832   -23829626.602 7 -18330709.08923        23.500           2.938
  19816178.496   -16603569.741 7 -12937832.51623        25.750           3.250
  21167790.496   -14306549.302 6 -11047434.29321        18.750           1.375
 91  7  2  6  7 14.9960000  0  4G17G21G23G11
  21906336.231     6821760.177 6   5315654.94621        12.250           0.844
  19586962.098   -23858633.427 7 -18353311.79823        23.000           2.906
  19818784.957   -16589879.144 7 -12927164.54723        25.750           3.188
  21158093.285   -14357498.544 6 -11087134.95721        18.500           1.344
 91  7  2  6  7 29.9960000  0  4G17G21G23G11
  21912840.707     6855923.386 6   5342275.58721        13.000           0.719
  19581459.168   -23887554.429 7 -18375847.62323        23.500           2.844
  19821402.590   -16576121.666 7 -12916444.43123        25.500           3.188
  21148417.902   -14408337.153 6 -11126749.42321        17.750           1.281
 91  7  2  6  7 44.9960000  0  4G17G21G23G11
  21919341.488     6890130.116 6   5368930.15221        12.250           0.781
  19575968.613   -23916404.900 7 -18398328.49423        23.250           2.938
  19824030.770   -16562312.936 7 -12905684.35423        25.750           3.250
  21138764.527   -14459079.973 6 -11166289.26021        18.000           1.344
 91  7  2  6  7 59.9960000  0  4G17G21G23G11
  21925866.090     6924388.874 6   5395625.26821        12.250           0.750
  19570494.606   -23945176.403 7 -18420747.82923        22.750           2.813
  19826669.457   -16548444.618 7 -12894877.83323        25.250           3.188
  21129131.270   -14509718.139 6 -11205747.52821        19.000           1.469
 91  7  2  6  8 14.9960000  0  4G17G21G23G11
  21932396.324     6958700.482 6   5422361.54621        12.250           0.656
  19565032.981   -23973867.731 7 -18443104.69423        23.000           2.813
  19829320.231   -16534515.587 7 -12884024.02623        25.750           3.156
  21119511.887   -14560250.180 6 -11245123.11821        18.500           1.375
 91  7  2  6  8 29.9960000  0  4G17G21G23G11
  21938934.512     6993060.794 6   5449135.77621        12.250           0.719
  19559589.770   -24002483.232 7 -18465402.46423        23.250           2.844
  19831980.387   -16520530.218 7 -12873126.32323        25.250           3.094
  21109914.106   -14610679.873 6 -11284418.94721        18.000           1.344
 91  7  2  6  8 44.9960000  0  4G17G21G23G11
  21945481.559     7027472.326 6   5475949.93421        12.000           0.781
  19554158.441   -24031020.388 7 -18487639.16823        23.250           2.813
  19834654.027   -16506486.378 7 -12862183.05423        25.500           3.219
  21100336.848   -14661004.346 6 -11323632.77821        18.250           1.313
 91  7  2  6  8 59.9960000  0  4G17G21G23G11
  21952039.387     7061933.378 6   5502802.67121        12.000           0.781
  19548742.606   -24059480.336 7 -18509815.72923        23.500           2.906
  19837336.348   -16492385.365 7 -12851195.26823        25.500           3.156
  21090782.473   -14711224.551 6 -11362765.37621        18.500           1.438
 91  7  2  6  9 14.9960000  0  4G17G21G23G11
  21958604.504     7096446.811 5   5529696.22221        11.500           0.844
  19543343.191   -24087860.313 7 -18531929.99123        23.250           2.750
  19840030.207   -16478224.332 7 -12840160.69323        25.500           3.344
  21081245.598   -14761337.227 6 -11401814.19121        19.000           1.469
 91  7  2  6  9 29.9960000  0  4G17G21G23G11
  21965184.551     7131006.166 5   5556625.55121        11.500           0.813
  19537957.262   -24116167.085 7 -18553987.20623        23.750           2.656
  19842734.988   -16464010.246 7 -12829084.77323        25.250           3.406
  21071730.043   -14811348.626 6 -11440784.08521        19.250           1.438
 91  7  2  6  9 44.9960000  0  4G17G21G23G11
  21971772.238     7165618.025 5   5583595.78721        11.500           0.750
  19532584.879   -24144393.642 7 -18575981.89623        23.750           2.781
  19845452.356   -16449736.257 7 -12817962.17623        25.250           3.313
  21062232.059   -14861251.414 6 -11479669.36221        19.000           1.438
 91  7  2  6  9 59.9960000  0  4G17G21G23G11
  21978366.231     7200283.730 5   5610607.99821        11.500           0.781
  19527226.926   -24172538.458 7 -18597912.91123        22.750           2.813
  19848179.918   -16435401.035 7 -12806791.90423        25.250           3.250
  21052757.785   -14911043.614 7 -11518468.44322        20.000           1.563
 91  7  2  6 10 14.9960000  0  4G17G21G23G11
  21984969.520     7234999.006 5   5637658.82721        11.500           0.688
  19521888.184   -24200605.690 7 -18619783.44623        23.500           2.750
  19850920.035   -16421008.869 7 -12795577.24423        25.250           3.406
  21043302.020   -14960729.102 6 -11557184.39422        19.750           1.563
 91  7  2  6 10 29.9960000  0  4G17G21G23G11
  21991587.387     7269761.570 5   5664746.51121        11.750           0.688
  19516562.637   -24228597.769 7 -18641595.42623        23.750           2.781
  19853667.957   -16406562.309 7 -12784320.20423        24.500           3.281
  21033867.691   -15010309.793 6 -11595818.68321        19.750           1.344
 91  7  2  6 10 44.9960000  0  4G17G21G23G11
  21998214.387     7304576.550 5   5691875.03521        11.750           0.656
  19511249.191   -24256509.338 7 -18663344.68223        23.000           2.781
  19856429.871   -16392056.289 7 -12773016.82423        24.500           3.281
  21024452.981   -15059780.071 7 -11634366.93621        20.500           1.438
 91  7  2  6 10 59.9960000  0  4G17G21G23G11
  22004851.356     7339445.621 5   5719045.70521        11.750           0.750
  19505954.043   -24284338.579 7 -18685029.79523        23.000           2.750
  19859198.543   -16377488.915 7 -12761665.63223        24.000           3.313
  21015062.152   -15109137.615 7 -11672827.33321        21.000           1.469
 91  7  2  6 11 14.9960000  0  4G17G21G23G11
  22011494.520     7374363.354 5   5746254.29421        11.500           0.781
  19500674.387   -24312090.899 7 -18706654.97123        23.750           2.813
  19861984.137   -16362865.785 7 -12750271.01823        24.750           3.469
  21005687.254   -15158387.470 7 -11711203.82421        20.250           1.438
 91  7  2  6 11 29.9960000  0  4G17G21G23G11
  22018147.027     7409331.069 5   5773501.82721        11.750           0.719
  19495403.457   -24339764.753 7 -18728219.01623        22.250           2.781
  19864776.879   -16348185.481 7 -12738831.84523        24.500           3.313
  20996338.606   -15207527.726 7 -11749494.91221        20.750           1.344
 91  7  2  6 11 44.9960000  0  4G17G21G23G11
  22024808.895     7444350.890 5   5800789.97921        11.250           0.625
  19490154.754   -24367358.149 7 -18749720.37623        23.000           2.781
  19867581.543   -16333446.070 7 -12727346.60023        24.250           3.250
  20987007.598   -15256556.028 7 -11787698.76422        20.500           1.500
 91  7  2  6 11 59.9960000  0  4G17G21G23G11
  22031482.707     7479418.293 5   5828115.19421        11.250           0.781
  19484919.629   -24394875.399 7 -18771162.37323        23.250           2.750
  19870395.731   -16318652.244 7 -12715818.96123        24.000           3.344
  20977700.652   -15305476.356 7 -11825818.48621        20.750           1.469
 91  7  2  6 12 14.9960000  0  4G17G21G23G11
  22038164.598     7514537.117 5   5855480.48021        11.000           0.750
  19479697.902   -24422312.363 7 -18792541.79123        23.000           2.844
  19873223.020   -16303800.026 7 -12704245.83423        24.500           3.250
  20968411.051   -15354284.183 7 -11863850.54321        20.500           1.469
 91  7  2  6 12 29.9960000  0  4G17G21G23G11
  22044864.176     7549711.281 5   5882888.89221        11.250           0.625
  19474494.488   -24449665.156 7 -18813855.64723        23.250           2.719
  19876061.223   -16288885.556 7 -12692624.15723        23.750           3.188
  20959146.238   -15402975.125 7 -11901791.52421        21.250           1.406
 91  7  2  6 12 44.9960000  0  4G17G21G23G11
  22051559.840     7584931.161 5   5910332.91321        11.250           0.750
  19469302.090   -24476943.428 7 -18835111.45223        23.500           2.813
  19878908.918   -16273918.506 7 -12680961.55923        24.000           3.125
  20949899.152   -15451558.411 7 -11939648.62221        20.750           1.469
 91  7  2  6 12 59.9960000  0  4G17G21G23G11
  22058277.441     7620202.176 5   5937816.79121        11.500           0.594
  19464127.348   -24504141.688 7 -18856304.88423        23.750           2.656
  19881767.738   -16258893.674 7 -12669253.89223        23.750           3.156
  20940676.465   -15500028.140 7 -11977417.22222        21.000           1.500
 91  7  2  6 13 14.9950000  0  4G17G21G23G11
  22064992.413     7655517.631 5   5965335.30821        11.250           0.594
  19458965.343   -24531262.173 7 -18877437.72323        23.250           2.750
  19884636.890   -16243816.138 7 -12657505.19023        24.000           3.094
  20931474.194   -15548384.805 7 -12015097.72021        20.750           1.438
 91  7  2  6 13 29.9950000  0  4G17G21G23G11
  22071727.944     7690887.369 5   5992896.11621        11.500           0.594
  19453820.741   -24558303.198 7 -18898508.62323        23.500           2.750
  19887518.468   -16228678.910 7 -12645709.97323        24.250           3.469
  20922296.632   -15596629.228 7 -12052690.76421        21.000           1.375
 91  7  2  6 13 44.9950000  0  4G17G21G23G11
  22078463.608     7726309.550 5   6020497.80421        11.000           0.625
  19448693.382   -24585262.330 7 -18919515.72523        24.250           2.750
  19890409.249   -16213482.530 7 -12633868.70723        23.750           3.063
  20913136.663   -15644757.196 7 -12090193.06021        21.000           1.406
 91  7  2  6 13 59.9950000  0  4G17G21G23G11
  22085217.640     7761786.169 5   6048141.88421        11.500           0.688
  19443574.663   -24612137.712 7 -18940457.56223        23.000           2.719
  19893312.960   -16198224.970 7 -12621979.70623        24.000           3.188
  20903998.648   -15692766.400 7 -12127602.80421        20.000           1.344
 91  7  2  6 14 14.9950000  0  4G17G21G23G11
  22091978.233     7797307.873 5   6075821.12421        11.250           0.656
  19438476.460   -24638938.587 7 -18961341.33723        23.500           2.781
  19896225.952   -16182915.578 7 -12610050.32123        23.500           3.125
  20894885.640   -15740665.619 7 -12164926.85121        20.750           1.375
 91  7  2  6 14 29.9950000  0  4G17G21G23G11
  22098746.851     7832878.727 5   6103538.64121        10.750           0.594
  19433392.304   -24665660.804 7 -18982163.82623        23.750           2.781
  19899150.913   -16167550.402 7 -12598077.44423        23.750           3.094
  20885792.124   -15788450.356 7 -12202161.69621        21.250           1.375
 91  7  2  6 14 44.9950000  0  4G17G21G23G11
  22105522.694     7868493.918 5   6131290.71521        11.000           0.688
  19428319.796   -24692309.056 7 -19002928.69123        23.000           2.688
  19902084.468   -16152134.357 7 -12586064.95423        23.750           3.188
  20876718.062   -15836124.947 7 -12239310.70421        20.250           1.438
 91  7  2  6 14 59.9950000  0  4G17G21G23G11
  22112307.749     7904160.573 5   6159082.89421        11.250           0.656
  19423263.554   -24718875.890 7 -19023630.10323        22.500           2.844
  19905029.671   -16136660.245 7 -12574007.23523        24.250           3.250
  20867669.398   -15883681.573 7 -12276367.78521        20.250           1.375
 91  7  2  6 15 14.9950000  0  4G17G21G23G11
  22119104.983     7939883.641 5   6186919.01321        11.250           0.594
  19418225.101   -24745356.253 7 -19044264.15723        22.500           2.813
  19907986.796   -16121123.223 7 -12561900.47023        24.500           3.250
  20858646.374   -15931114.883 7 -12313328.77722        21.250           1.563
 91  7  2  6 15 29.9950000  0  4G17G21G23G11
  22125912.179     7975643.927 5   6214784.15121        11.750           0.594
  19413198.405   -24771769.381 7 -19064845.81223        22.500           2.719
  19910952.101   -16105542.550 7 -12549759.70823        24.250           3.188
  20849638.179   -15978443.613 7 -12350208.28822        21.500           1.531
 91  7  2  6 15 44.9950000  0  4G17G21G23G11
  22132724.241     8011456.009 5   6242689.65221        11.750           0.594
  19408187.546   -24798100.275 7 -19085363.36323        22.000           2.750
  19913926.421   -16089903.330 7 -12537573.32223        24.500           3.063
  20840654.288   -16025652.464 7 -12386994.39022        21.000           1.625
 91  7  2  6 15 59.9950000  0  4G17G21G23G11
  22139551.202     8047314.757 5   6270631.52621        11.500           0.625
  19403192.765   -24824354.299 7 -19105821.01523        22.750           2.781
  19916913.015   -16074211.192 7 -12525345.71023        24.500           3.000
  20831689.968   -16072746.374 7 -12423690.91922        20.500           1.563
 91  7  2  6 16 14.9950000  0  4G17G21G23G11
  22146382.140     8083224.293 5   6298612.95521        11.000           0.656
  19398213.483   -24850527.214 7 -19126215.48323        23.000           2.750
  19919909.632   -16058461.931 7 -12513073.58823        23.750           3.188
  20822754.335   -16119720.629 7 -12460294.21522        22.000           1.531
 91  7  2  6 16 29.9950000  0  4G17G21G23G11
  22153226.444     8119180.986 5   6326631.13021        11.000           0.688
  19393245.944   -24876622.619 7 -19146549.54923        22.500           2.688
  19922916.882   -16042659.279 7 -12500759.88323        24.500           3.344
  20813837.007   -16166578.548 7 -12496806.87622        21.750           1.625
 91  7  2  6 16 44.9950000  0  4G17G21G23G11
  22160082.280     8155187.981 5   6354688.51221        11.500           0.625
  19388295.273   -24902637.097 7 -19166820.54723        22.750           2.719
  19925933.437   -16026799.900 7 -12488401.92423        24.000           3.281
  20804941.429   -16213316.322 7 -12533225.91722        20.750           1.563
 91  7  2  6 16 59.9950000  0  4G17G21G23G11
  22166943.999     8191245.560 5   6382785.31221        11.250           0.531
  19383359.023   -24928570.320 7 -19187028.24123        22.250           2.781
  19928963.296   -16010883.385 7 -12475999.42023        24.000           3.125
  20796071.882   -16259933.220 7 -12569550.74822        21.250           1.688
 91  7  2  6 17 14.9950000  0  4G17G21G23G11
  22173810.444     8227351.344 5   6410919.65421        11.000           0.594
  19378440.866   -24954424.769 7 -19207174.54223        22.500           2.750
  19932002.257   -15994912.622 7 -12463554.66623        24.000           3.094
  20787224.905   -16306431.254 7 -12605782.96522        21.500           1.688
 91  7  2  6 17 29.9950000  0  4G17G21G23G11
  22180687.905     8263506.437 5   6439092.43821        10.750           0.625
  19373535.843   -24980199.006 7 -19227258.34723        22.500           2.750
  19935052.210   -15978886.294 7 -12451066.58723        24.500           3.063
  20778398.663   -16352808.679 7 -12641921.20722        20.750           1.625
 91  7  2  6 17 44.9950000  0  4G17G21G23G11
  22187580.202     8299706.680 5   6467300.40621        11.000           0.594
  19368646.874   -25005897.326 7 -19247283.00523        22.500           2.781
  19938112.733   -15962808.846 7 -12438538.71123        24.500           3.156
  20769593.632   -16399069.409 7 -12677968.50722        20.500           1.781
 91  7  2  6 17 59.9950000  0  4G17G21G23G11
  22194475.124     8335953.276 5   6495544.49321        10.750           0.563
  19363770.062   -25031518.129 7 -19267247.28423        22.000           2.813
  19941181.757   -15946678.802 7 -12425969.87823        24.500           3.188
  20760814.944   -16445211.506 7 -12713923.35722        21.250           1.750
 91  7  2  6 18 14.9950000  0  4G17G21G23G11
  22201381.890     8372246.366 5   6523824.80621        10.250           0.594
  19358911.343   -25057061.348 7 -19287151.09423        22.250           2.813
  19944261.069   -15930496.028 7 -12413359.97523        24.250           3.031
  20752058.983   -16491234.337 7 -12749785.28022        21.750           1.719
 91  7  2  6 18 29.9950000  0  4G17G21G23G11
  22208296.562     8408592.053 5   6552146.08321        10.000           0.594
  19354065.163   -25082520.731 7 -19306989.57023        22.250           2.906
  19947352.530   -15914254.500 7 -12400704.28323        24.250           3.094
  20743324.007   -16537131.341 7 -12785549.16022        21.750           1.875
 91  7  2  6 18 44.9950000  0  4G17G21G23G11
  22215229.038     8444991.480 5   6580509.25221        11.000           0.594
  19349233.765   -25107894.651 7 -19326761.45823        21.250           2.813
  19950453.976   -15897952.896 7 -12388001.75523        24.750           3.313
  20734612.577   -16582900.645 7 -12821213.52622        21.000           1.938
 91  7  2  6 18 59.9950000  0  4G17G21G23G11
  22222158.429     8481433.877 5   6608905.90421        10.500           0.563
  19344422.804   -25133194.029 7 -19346475.24523        22.250           2.938
  19953565.015   -15881602.143 7 -12375260.88223        24.500           3.156
  20725924.265   -16628552.717 7 -12856786.53422        20.750           1.844
 91  7  2  6 19 14.9950000  0  4G17G21G23G11
  22229107.226     8517927.151 5   6637342.19921        10.250           0.625
  19339624.788   -25158410.985 7 -19366124.80723        22.750           2.781
  19956687.241   -15865194.507 7 -12362475.70223        24.250           3.156
  20717262.757   -16674079.302 7 -12892261.77722        21.000           1.906
 91  7  2  6 19 29.9950000  0  4G17G21G23G11
  22236060.913     8554461.772 5   6665810.71521        10.500           0.500
  19334837.913   -25183554.856 7 -19385717.41923        22.000           2.781
  19959817.233   -15848739.750 7 -12349653.80523        24.500           3.063
  20708622.265   -16719489.464 7 -12927646.29122        21.500           1.844
 91  7  2  6 19 44.9950000  0  4G17G21G23G11
  22243018.351     8591042.244 5   6694314.94521        10.250           0.625
  19330067.585   -25208620.979 7 -19405249.43923        21.750           2.813
  19962959.226   -15832232.991 7 -12336791.42923        24.500           3.125
  20700003.562   -16764778.142 7 -12962936.13922        21.500           1.906
 91  7  2  6 19 59.9950000  0  4G17G21G23G11
  22249986.179     8627670.573 5   6722856.45621        10.000           0.594
  19325313.538   -25233607.520 7 -19424719.45323        22.500           2.750
  19966112.265   -15815672.399 7 -12323887.10423        24.250           3.000
  20691410.202   -16809942.879 7 -12998129.41022        21.250           1.844
 91  7  2  6 20 14.9950000  0  4G17G21G23G11
  22256966.116     8664346.925 5   6751435.41521        10.250           0.500
  19320574.577   -25258513.878 7 -19444126.99523        22.500           2.750
  19969272.890   -15799057.753 7 -12310940.64623        23.750           3.000
  20682838.163   -16854982.698 7 -13033225.33422        21.750           1.781
 91  7  2  6 20 29.9950000  0  4G17G21G23G11
  22263958.952     8701067.908 5   6780049.13021        10.500           0.531
  19315849.382   -25283343.595 7 -19463474.81223        22.000           2.781
  19972444.679   -15782392.731 7 -12297954.94223        23.500           3.031
  20674291.491   -16899900.896 7 -13068226.49822        22.250           1.875
 91  7  2  6 20 44.9950000  0  4G17G21G23G11
  22270950.632     8737836.458 5   6808699.93521        10.000           0.531
  19311137.835   -25308093.690 7 -19482760.57223        22.500           2.781
  19975625.413   -15765674.292 7 -12284927.56923        23.750           3.063
  20665767.757   -16944694.173 7 -13103130.32722        21.750           1.844
 91  7  2  6 20 59.9950000  0  4G17G21G23G11
  22277957.835     8774653.131 5   6837388.21721         9.750           0.469
  19306445.483   -25332763.230 7 -19501983.56323        23.000           2.781
  19978816.085   -15748901.472 7 -12271857.82623        23.250           3.000
  20657265.554   -16989361.237 7 -13137935.80322        21.250           1.750
 91  7  2  6 21 14.9950000  0  4G17G21G23G11
  22284978.585     8811517.698 5   6866113.83421        10.000           0.594
  19301765.288   -25357352.309 7 -19521143.86223        23.000           2.750
  19982016.866   -15732074.735 7 -12258746.05623        23.750           2.969
  20648789.265   -17033901.747 7 -13172642.66222        21.250           1.906
 91  7  2  6 21 29.9950000  0  4G17G21G23G11
  22291995.280     8848427.845 5   6894874.95221         9.500           0.563
  19297100.577   -25381863.337 7 -19540243.35423        23.000           2.781
  19985229.429   -15715196.601 7 -12245594.24123        23.750           3.125
  20640340.491   -17078317.688 7 -13207252.44622        21.750           1.844
 91  7  2  6 21 44.9950000  0  4G17G21G23G11
  22299030.304     8885381.142 5   6923669.69121         9.500           0.563
  19292450.765   -25406298.722 7 -19559283.90023        23.500           2.813
  19988449.569   -15698269.701 7 -12232404.46223        23.750           3.063
  20631908.562   -17122611.145 7 -13241766.79922        21.250           1.844
 91  7  2  6 21 59.9950000  0  4G17G21G23G11
  22306066.015     8922372.026 5   6952493.71721         9.250           0.438
  19287812.968   -25430663.582 7 -19578269.50623        23.250           2.750
  19991679.601   -15681299.082 7 -12219180.64223        24.000           3.000
  20623502.101   -17166786.865 7 -13276189.40922        20.750           1.844
 91  7  2  6 22 14.9950000  0  4G17G21G23G11
  22313110.851     8959407.002 5   6981352.11321         9.250           0.500
  19283192.694   -25454951.487 7 -19597195.14423        23.000           2.719
  19994920.663   -15664278.471 7 -12205917.87523        23.750           2.875
  20615120.405   -17210837.835 7 -13310514.80122        21.000           1.969
 91  7  2  6 22 29.9950000  0  4G17G21G23G11
  22320173.851     8996494.940 5   7010251.77021         9.500           0.469
  19278588.530   -25479153.508 7 -19616053.87523        23.500           2.781
  19998169.241   -15647199.179 7 -12192609.34623        23.750           2.844
  20606763.585   -17254754.953 7 -13344735.90022        20.750           1.781
 91  7  2  6 22 44.9950000  0  4G17G21G23G11
  22327242.788     9033634.907 5   7039191.96521         9.500           0.500
  19274000.312   -25503270.458 7 -19634846.27923        23.500           2.719
  20001431.554   -15630062.126 7 -12179255.77723        23.750           3.063
  20598430.577   -17298538.713 7 -13378853.09122        21.000           1.781
 91  7  2  6 22 59.9950000  0  4G17G21G23G11
  22334319.093     9070812.623 5   7068161.58421        10.000           0.344
  19269419.913   -25527316.491 7 -19653583.44223        22.250           2.813
  20004700.554   -15612881.552 7 -12165868.33623        23.750           3.031
  20590121.827   -17342202.780 7 -13412877.01522        21.000           1.813
 91  7  2  6 23 14.9950000  0  4G17G21G23G11
  22341399.679     9108036.187 5   7097166.91521         9.750           0.469
  19264861.179   -25551283.360 7 -19672258.91523        23.000           2.813
  20007981.343   -15595649.486 7 -12152440.76223        24.000           3.094
  20581837.163   -17385738.627 7 -13446801.02722        20.500           1.750
 91  7  2  6 23 29.9950000  0  4G17G21G23G11
  22348490.366     9145306.675 5   7126208.83921         9.250           0.375
  19260317.280   -25575169.830 7 -19690871.73123        23.000           2.719
  20011269.929   -15578364.695 7 -12138972.15123        24.000           3.063
  20573576.046   -17429144.535 7 -13480623.78822        20.500           1.844
 91  7  2  6 23 44.9950000  0  4G17G21G23G11
  22355595.452     9182618.906 5   7155283.28021         9.500           0.500
  19255785.624   -25598980.984 7 -19709425.86623        23.250           2.781
  20014568.968   -15561032.357 7 -12125466.43123        23.750           3.219
  20565341.585   -17472425.390 7 -13514349.09822        21.000           1.875
 91  7  2  6 23 59.9950000  0  4G17G21G23G11
  22362700.905     9219975.364 5   7184392.15621         9.250           0.406
  19251269.890   -25622714.208 7 -19727919.27623        23.000           2.906
  20017875.601   -15543649.941 7 -12111921.65023        23.750           3.219
  20557129.858   -17515578.084 7 -13547974.54722        21.000           1.719
 91  7  2  6 24 14.9950000  0  4G17G21G23G11
  22369816.913     9257381.565 5   7213539.82421         9.500           0.469
  19246768.460   -25646363.952 7 -19746347.64123        23.000           2.750
  20021192.163   -15526212.163 7 -12098333.75623        23.750           3.125
  20548944.968   -17558596.673 7 -13581495.51022        20.750           1.813
 91  7  2  6 24 29.9950000  0  4G17G21G23G11
  22376945.210     9294829.919 5   7242720.32221         9.250           0.438
  19242283.210   -25669937.824 7 -19764716.89723        23.250           2.750
  20024521.155   -15508726.537 7 -12084708.61823        24.000           3.156
  20540780.101   -17601488.477 7 -13614917.66822        20.250           1.750
 91  7  2  6 24 44.9950000  0  4G17G21G23G11
  22384079.218     9332321.008 5   7271934.13721         9.250           0.375
  19237810.788   -25693434.932 7 -19783026.33023        23.000           2.813
  20027858.694   -15491192.363 7 -12071045.62423        24.000           3.156
  20532642.882   -17644252.349 7 -13648240.12722        20.000           1.781
 91  7  2  6 24 59.9950000  0  4G17G21G23G11
  22391222.108     9369860.075 5   7301185.32421         9.250           0.469
  19233354.866   -25716849.907 7 -19801271.76923        23.500           2.781
  20031202.835   -15473604.277 7 -12057340.60623        23.500           3.188
  20524532.202   -17686882.341 7 -13681458.26422        20.500           1.750
 91  7  2  6 25 14.9950000  0  4G17G21G23G11
  22398370.788     9407441.310 5   7330469.36221         9.500           0.438
  19228912.968   -25740188.797 7 -19819457.94223        23.000           2.781
  20034560.241   -15455968.657 7 -12043598.58223        23.500           3.188
  20516443.390   -17729383.990 7 -13714576.40022        20.500           1.844
 91  7  2  6 25 29.9950000  0  4G17G21G23G11
  22405534.499     9445069.921 5   7359790.32621        10.000           0.563
  19224488.749   -25763446.102 7 -19837580.50423        23.250           2.750
  20037926.444   -15438280.046 7 -12029815.25523        23.500           3.125
  20508381.374   -17771751.535 7 -13747590.04222        20.500           1.719
